Date StartTime U_cm/s V_cm/s W_cm/s Ustd_cm/s Vstd_cm/s Wstd_cm/s Uvar_(cm/s)^2 Vvar_(cm/s)^2 Wvar_(cm/s)^2 KE_(m/s)^2 TurbulentKE_(m/s)^2 HorizWindSpeed_cm/s FrictionSpeec_cm/s DragCoef SpeedOfSound_m/s SonicTemperature_C Pressure_mb 
04/23/2013  00:00:00       45.270       50.734       69.603       49.609       63.731       41.464     2461.102     4061.605     1719.252        0.885        0.412       67.995       38.457        0.320      337.512        9.535      865.741
04/23/2013  00:01:00       58.814       47.172       65.648       69.079       82.079       49.042     4771.865     6737.017     2405.152        1.195        0.696       75.394       44.286        0.345      337.526        9.559      865.731
04/23/2013  00:02:00       87.611       38.682       45.600       59.206       80.604       42.503     3505.367     6497.068     1806.507        1.153        0.590       95.770       24.472        0.065      337.486        9.491      865.732
04/23/2013  00:03:00       52.661       56.392       54.759       38.770       36.234       36.619     1503.130     1312.901     1340.978        0.655        0.208       77.157       23.107        0.090      337.434        9.405      865.739
04/23/2013  00:04:00      133.781       85.785       83.677       80.499       64.898       58.014     6480.088     4211.709     3365.614        2.316        0.703      158.923       44.045        0.077      337.484        9.487      865.744
04/23/2013  00:05:00      183.763       11.670       68.490      142.585      159.972       84.863    20330.422    25591.100     7201.796        4.585        2.656      184.133       98.700        0.287      337.555        9.605      865.722
04/23/2013  00:06:00       82.373      -21.147       56.792      111.290      143.868       75.116    12385.537    20697.982     5642.406        2.458        1.936       85.045       93.949        1.220      337.570        9.632      865.716
04/23/2013  00:07:00      119.901     -106.372       34.841       92.741      141.547       87.896     8600.856    20035.524     7725.645        3.163        1.818      160.285       92.135        0.330      337.639        9.748      865.690
04/23/2013  00:08:00       61.476       42.932       64.194       72.092      108.831       74.991     5197.290    11844.163     5623.639        1.620        1.133       74.983       78.727        1.102      337.525        9.557      865.758
04/23/2013  00:09:00       70.678       68.131       51.556       58.292       58.199       54.697     3397.924     3387.168     2991.764        1.103        0.489       98.170       44.664        0.207      337.519        9.548      865.796
04/23/2013  00:10:00      114.632       68.435       58.486      123.236       78.956       61.921    15187.146     6234.075     3834.266        2.324        1.263      133.506       47.581        0.127      337.507        9.525      865.816
04/23/2013  00:11:00      202.355       99.800       75.788      108.719       84.909       68.649    11819.825     7209.462     4712.688        4.019        1.187      225.627       54.395        0.058      337.567        9.624      865.799
04/23/2013  00:12:00       97.642       71.746      111.853       93.047      105.871       54.886     8657.724    11208.752     3012.425        2.503        1.144      121.168       62.964        0.270      337.624        9.722      865.799
04/23/2013  00:13:00       55.212       41.873      110.440       74.187       88.424       62.962     5503.745     7818.837     3964.170        1.714        0.864       69.295       61.842        0.796      337.586        9.659      865.763
04/23/2013  00:14:00       64.578       93.796      136.138       85.062      128.393       72.985     7235.546    16484.699     5326.792        3.027        1.452      113.877       90.037        0.625      337.594        9.672      865.747
04/23/2013  00:15:00       46.002       41.099       83.954       73.331       77.263       54.498     5377.413     5969.516     2970.072        1.258        0.716       61.687       50.280        0.664      337.556        9.609      865.769
04/23/2013  00:16:00       55.708      -45.858       34.578       63.847       60.068       42.432     4076.484     3608.171     1800.441        0.794        0.474       72.155       39.586        0.301      337.572        9.636      865.789
04/23/2013  00:17:00       51.949       -3.862       49.937       44.429       87.061       45.189     1973.929     7579.687     2042.063        0.840        0.580       52.093       55.448        1.133      337.513        9.538      865.815
04/23/2013  00:18:00       50.092      -53.559       12.180       37.687       65.560       36.850     1420.309     4298.146     1357.917        0.630        0.354       73.333       33.683        0.211      337.503        9.521      865.835
04/23/2013  00:19:00       47.814       33.831       56.177       41.662       53.873       32.792     1735.711     2902.253     1075.323        0.615        0.286       58.572       35.369        0.365      337.445        9.424      865.851
04/23/2013  00:20:00      110.136       40.648       68.275       66.128       49.601       50.005     4372.974     2460.279     2500.496        1.389        0.467      117.397       40.086        0.117      337.417        9.376      865.859
04/23/2013  00:21:00       89.107      -27.372       51.414       72.745       84.734       49.439     5291.839     7179.808     2444.239        1.312        0.746       93.217       50.171        0.290      337.502        9.518      865.848
04/23/2013  00:22:00      124.067       34.325       66.481       74.198      134.604       77.221     5505.305    18118.126     5963.122        2.528        1.479      128.728       88.019        0.468      337.506        9.522      865.853
04/23/2013  00:23:00      102.318      104.356       72.439       92.697       90.203       66.817     8592.769     8136.504     4464.459        2.390        1.060      146.148       60.240        0.170      337.488        9.494      865.899
04/23/2013  00:24:00       55.778       -7.805       53.131       52.909       64.797       49.861     2799.409     4198.592     2486.155        0.774        0.474       56.321       38.895        0.477      337.490        9.500      865.905
04/23/2013  00:25:00       85.337      -23.201       29.732       79.184       85.544       56.070     6270.167     7317.844     3143.817        1.271        0.837       88.435       51.627        0.341      337.452        9.435      865.912
04/23/2013  00:26:00       65.816       29.274       47.379       91.969       82.868       76.518     8458.365     6867.067     5855.067        1.430        1.059       72.033       63.810        0.785      337.419        9.379      865.911
04/23/2013  00:27:00       51.019       95.526      130.356       90.217       74.600       60.260     8139.109     5565.140     3631.253        2.302        0.867      108.296       58.874        0.296      337.443        9.419      865.918
04/23/2013  00:28:00       67.094       81.041       80.293       73.976       58.630       53.923     5472.500     3437.460     2907.708        1.466        0.591      105.210       42.559        0.164      337.475        9.472      865.933
04/23/2013  00:29:00      101.922       80.606       83.762       70.058       56.846       54.953     4908.179     3231.448     3019.875        1.753        0.558      129.944       33.461        0.066      337.396        9.341      865.948
04/23/2013  00:30:00       25.155       -0.106       43.089       48.037       41.014       28.010     2307.555     1682.170      784.568        0.363        0.239       25.155       18.716        0.554      337.325        9.223      865.982
04/23/2013  00:31:00       12.920       42.654       64.232       28.476       40.212       25.303      810.864     1617.030      640.217        0.459        0.153       44.568       25.558        0.329      337.301        9.181      866.004
04/23/2013  00:32:00       50.573       15.727       57.978       58.242       92.105       48.453     3392.128     8483.295     2347.719        1.019        0.711       52.962       55.199        1.086      337.389        9.330      865.997
04/23/2013  00:33:00       19.735       40.432       53.869       46.100       53.353       34.135     2125.195     2846.542     1165.165        0.553        0.307       44.991       27.483        0.373      337.332        9.235      866.005
04/23/2013  00:34:00       65.083       39.641       15.849       54.344       28.811       32.944     2953.259      830.088     1085.292        0.546        0.243       76.205       32.936        0.187      337.257        9.110      866.020
04/23/2013  00:35:00       77.585       46.871       18.465       34.799       23.372       22.083     1210.948      546.252      487.639        0.540        0.112       90.644       19.135        0.045      337.111        8.862      866.030
04/23/2013  00:36:00      103.958       61.062        5.685       26.753       23.493       20.046      715.721      551.934      401.845        0.812        0.083      120.565       10.739        0.008      337.129        8.895      866.039
04/23/2013  00:37:00       99.755       56.362       33.061       38.733       29.225       32.893     1500.213      854.101     1081.966        0.883        0.172      114.576       15.527        0.018      337.186        8.990      866.047
04/23/2013  00:38:00       89.370       63.681       48.078       51.066       44.959       42.331     2607.762     2021.319     1791.914        1.039        0.321      109.737       33.507        0.093      337.176        8.975      866.045
04/23/2013  00:39:00      145.780       42.531       42.802       91.814       75.151       67.584     8429.835     5647.633     4567.590        2.176        0.932      151.857       51.429        0.115      337.225        9.055      866.037
04/23/2013  00:40:00      185.159       43.001       49.925       94.422       65.429       50.506     8915.431     4280.957     2550.902        2.718        0.787      190.087       40.405        0.045      337.183        8.983      866.036
04/23/2013  00:41:00      107.688       74.270       66.619       51.583       39.307       45.510     2660.834     1545.009     2071.154        1.391        0.314      130.816       31.830        0.059      337.197        9.009      866.054
04/23/2013  00:42:00      120.536       76.860       46.411       62.359       47.376       41.574     3888.660     2244.515     1728.358        1.522        0.393      142.955       30.481        0.045      337.266        9.124      866.072
04/23/2013  00:43:00      127.514       50.915       11.010       56.116       41.688       36.831     3148.966     1737.859     1356.534        1.261        0.312      137.303       26.952        0.039      337.203        9.019      866.100
04/23/2013  00:44:00       92.550       67.288       25.569       32.488       24.344       27.012     1055.463      592.606      729.646        0.806        0.119      114.426        9.134        0.006      337.065        8.787      866.119
04/23/2013  00:45:00      136.779       11.166       26.895       79.664       76.479       44.677     6346.391     5849.045     1996.063        1.687        0.710      137.234       40.360        0.086      337.188        8.992      866.115
04/23/2013  00:46:00      130.357       81.320       31.152       54.135       36.675       38.854     2930.608     1345.038     1509.620        1.518        0.289      153.642       26.833        0.031      337.051        8.762      866.138
04/23/2013  00:47:00      126.160       93.898       38.986       74.767       56.273       46.232     5590.172     3166.660     2137.368        1.857        0.545      157.268       18.403        0.014      337.122        8.881      866.111
04/23/2013  00:48:00       99.902      -20.624       75.012       94.541      178.903       93.654     8938.092    32006.264     8771.093        3.286        2.486      102.008      119.877        1.381      337.259        9.109      866.070
04/23/2013  00:49:00      131.793      -16.108       65.233      105.113      181.314      108.533    11048.779    32874.834    11779.335        3.878        2.785      132.774      135.477        1.041      337.338        9.241      866.026
04/23/2013  00:50:00       92.348      123.274      155.401       90.815      128.029       89.526     8247.418    16391.421     8014.816        4.026        1.633      154.028       91.985        0.357      337.319        9.212      866.018
04/23/2013  00:51:00      169.273       91.555       62.277       77.805       61.614       69.974     6053.557     3796.280     4896.402        2.783        0.737      192.447       37.771        0.039      337.177        8.973      866.032
04/23/2013  00:52:00      143.114       72.274       39.557       64.575       47.917       49.780     4169.964     2296.066     2478.004        1.811        0.447      160.328       32.944        0.042      337.102        8.847      866.047
04/23/2013  00:53:00      152.616       87.579       62.958       95.341       69.360       55.074     9089.895     4810.746     3033.126        2.593        0.847      175.959       51.425        0.085      337.089        8.824      866.076
04/23/2013  00:54:00       88.659       69.864       48.180       72.196       61.385       41.976     5212.246     3768.165     1761.944        1.290        0.537      112.878       38.842        0.118      337.033        8.732      866.093
04/23/2013  00:55:00       88.293       41.343       36.603       65.965       44.503       38.475     4351.441     1980.538     1480.314        0.933        0.391       97.493       31.638        0.105      337.017        8.704      866.104
04/23/2013  00:56:00      174.836       62.767       13.982       65.931       62.263       41.407     4346.903     3876.688     1714.580        2.232        0.497      185.762       10.882        0.003      337.106        8.853      866.105
04/23/2013  00:57:00      125.097       69.441       43.490       52.381       35.437       45.564     2743.720     1255.810     2076.084        1.422        0.304      143.078       29.621        0.043      337.104        8.852      866.097
04/23/2013  00:58:00       83.956       24.778       41.609       35.100       35.704       32.798     1231.999     1274.740     1075.725        0.649        0.179       87.536       27.968        0.102      337.033        8.732      866.097
04/23/2013  00:59:00       54.314       49.109       28.260       36.216       36.381       35.530     1311.579     1323.589     1262.361        0.503        0.195       73.223       26.307        0.129      337.099        8.843      866.104
04/23/2013  01:00:00       46.096       63.663       69.956       44.674       35.040       25.604     1995.748     1227.815      655.541        0.747        0.194       78.599       20.144        0.066      337.075        8.803      866.098
04/23/2013  01:01:00      131.617      100.903       70.642       83.125       43.317       41.532     6909.752     1876.343     1724.921        2.150        0.526      165.845       49.167        0.088      337.138        8.909      866.108
04/23/2013  01:02:00      117.877       70.341       12.036       53.297       41.922       33.628     2840.587     1757.487     1130.813        1.236        0.286      137.269       22.270        0.026      337.043        8.750      866.136
04/23/2013  01:03:00       58.229       41.518        3.446       31.776       21.420       18.320     1009.725      458.815      335.606        0.346        0.090       71.515       11.997        0.028      336.896        8.506      866.142
04/23/2013  01:04:00       84.273       48.413        0.991       23.620       17.778       19.050      557.917      316.052      362.895        0.534        0.062       97.189       11.592        0.014      336.881        8.479      866.156
04/23/2013  01:05:00       42.598       42.738       19.402       22.203       20.224       25.281      492.958      409.015      639.112        0.278        0.077       60.342       12.645        0.044      336.914        8.535      866.179
04/23/2013  01:06:00       62.142       43.740       25.243       20.020       14.103       15.309      400.815      198.890      234.355        0.362        0.042       75.992       10.268        0.018      336.842        8.415      866.169
04/23/2013  01:07:00      146.562       71.517       24.808       52.163       32.462       29.857     2720.977     1053.775      891.430        1.594        0.233      163.080       24.323        0.022      336.832        8.397      866.167
04/23/2013  01:08:00      152.873       98.957       39.618       63.529       43.813       49.266     4035.975     1919.567     2427.172        2.156        0.419      182.106       36.822        0.041      336.853        8.432      866.168
04/23/2013  01:09:00      198.739      121.913       34.487       67.072       60.746       58.324     4498.602     3690.093     3401.667        3.357        0.580      233.152       20.275        0.008      336.794        8.330      866.148
04/23/2013  01:10:00      172.746       74.779       23.521       72.715       51.044       53.945     5287.532     2605.540     2910.092        2.339        0.540      188.236       27.471        0.021      336.916        8.536      866.120
04/23/2013  01:11:00       88.959       47.477        2.325       52.516       32.551       25.554     2757.889     1059.536      653.003        0.732        0.224      100.835       15.323        0.023      336.847        8.423      866.131
04/23/2013  01:12:00       95.720       66.586       11.859       49.383       54.952       40.795     2438.653     3019.732     1664.213        1.043        0.356      116.602       33.635        0.083      336.864        8.451      866.129
04/23/2013  01:13:00       82.065       47.115       13.276       50.184       40.842       31.493     2518.442     1668.057      991.796        0.715        0.259       94.628       24.020        0.064      336.772        8.298      866.108
04/23/2013  01:14:00      108.314       59.039       36.735       36.063       31.418       35.267     1300.558      987.074     1243.755        1.005        0.177      123.360       18.434        0.022      336.771        8.297      866.084
04/23/2013  01:15:00       96.283       47.600       11.673       46.303       38.257       29.213     2143.927     1463.633      853.397        0.807        0.223      107.407       18.117        0.028      336.718        8.209      866.059
04/23/2013  01:16:00       63.885       58.633       -0.439       37.523       28.712       23.736     1407.959      824.371      563.409        0.516        0.140       86.713       14.942        0.030      336.712        8.199      866.038
04/23/2013  01:17:00       89.150       56.876        0.015       22.729       17.464       21.802      516.622      305.004      475.331        0.624        0.065      105.748       11.611        0.012      336.662        8.115      866.031
04/23/2013  01:18:00       70.337       53.682       15.678       20.898       16.631       20.351      436.720      276.601      414.178        0.460        0.056       88.482       10.880        0.015      336.639        8.077      866.034
04/23/2013  01:19:00       66.374       49.984       10.773       20.008       16.949       12.494      400.328      287.269      156.105        0.393        0.042       83.090        8.559        0.011      336.622        8.049      866.033
04/23/2013  01:20:00       81.145       61.053       -1.885       19.962       12.583       10.681      398.478      158.335      114.088        0.549        0.034      101.548        7.868        0.006      336.682        8.148      866.029
04/23/2013  01:21:00       33.682       38.107       -8.247       23.651       16.497       10.864      559.361      272.135      118.035        0.180        0.047       50.859       10.350        0.041      336.733        8.233      866.004
04/23/2013  01:22:00       54.895       46.454       -1.972       20.721       17.258       17.674      429.355      297.854      312.383        0.311        0.052       71.913        7.364        0.010      336.718        8.209      866.015
04/23/2013  01:23:00        6.605       16.103       13.640       12.457       18.964        9.491      155.166      359.632       90.082        0.055        0.030       17.405        8.669        0.248      336.684        8.152      866.036
04/23/2013  01:24:00       19.106       23.209       15.764       14.432       12.105        7.761      208.280      146.539       60.233        0.078        0.021       30.061        8.114        0.073      336.690        8.163      866.041
04/23/2013  01:25:00       21.372       10.850       11.268       11.550       11.435        9.533      133.393      130.759       90.886        0.053        0.018       23.969        3.944        0.027      336.650        8.095      866.045
04/23/2013  01:26:00       14.265       20.304        2.719       11.382       23.372        9.966      129.557      546.261       99.319        0.070        0.039       24.815        9.678        0.152      336.640        8.077      866.060
04/23/2013  01:27:00        4.193       83.128        5.861       41.038       54.254       33.777     1684.123     2943.481     1140.873        0.636        0.288       83.234       34.384        0.171      336.706        8.188      866.072
04/23/2013  01:28:00        9.481       98.890      -10.556       25.737       59.526       18.430      662.383     3543.374      339.649        0.726        0.227       99.343       28.839        0.084      336.708        8.192      866.080
04/23/2013  01:29:00       21.775      114.098      -20.513       22.171       47.068       21.733      491.570     2215.410      472.305        0.855        0.159      116.158       20.016        0.030      336.680        8.145      866.066
04/23/2013  01:30:00       98.432       62.851       28.246       54.727       41.932       33.476     2995.098     1758.260     1120.616        1.015        0.294      116.787       14.538        0.015      336.804        8.352      866.041
04/23/2013  01:31:00      115.758       89.300       23.547       62.374       54.906       33.427     3890.536     3014.652     1117.392        1.497        0.401      146.200       20.723        0.020      336.828        8.390      866.026
04/23/2013  01:32:00       57.972       46.926        8.282       38.273       24.289       24.893     1464.809      589.964      619.638        0.415        0.134       74.584       26.042        0.122      336.822        8.382      866.015
04/23/2013  01:33:00       58.408       49.355       16.440       20.075       14.312       13.767      403.015      204.829      189.543        0.346        0.040       76.468        6.009        0.006      336.684        8.153      866.015
04/23/2013  01:34:00       51.519       50.541       22.634       22.440       12.167       16.475      503.566      148.047      271.437        0.332        0.046       72.171        6.579        0.008      336.618        8.042      866.012
04/23/2013  01:35:00       40.790       44.754       -1.530       22.368       12.908       11.511      500.329      166.606      132.496        0.223        0.040       60.553        2.181        0.001      336.542        7.914      866.032
04/23/2013  01:36:00       25.495       56.519       -5.379       20.364       26.220       15.159      414.693      687.514      229.805        0.260        0.067       62.003        8.247        0.018      336.391        7.661      866.044
04/23/2013  01:37:00       30.599       36.186       -0.559       24.146       15.984       12.277      583.010      255.481      150.715        0.162        0.049       47.389        9.835        0.043      336.410        7.694      866.035
04/23/2013  01:38:00       30.231       49.053        1.503       20.115       11.318       10.383      404.606      128.098      107.798        0.198        0.032       57.620        9.848        0.029      336.574        7.968      865.998
04/23/2013  01:39:00       30.777       48.189       -3.947       16.420       19.898       16.523      269.615      395.931      273.015        0.211        0.047       57.179       13.939        0.059      336.509        7.858      865.973
04/23/2013  01:40:00       16.811       46.607        1.919       17.302       31.534       18.525      299.358      994.424      343.190        0.205        0.082       49.547       18.529        0.140      336.428        7.723      865.967
04/23/2013  01:41:00       19.003       71.471       -8.436       16.787       16.435       13.905      281.815      270.096      193.362        0.314        0.037       73.955       10.352        0.020      336.465        7.787      865.973
04/23/2013  01:42:00       20.254       54.188      -12.106       21.521       36.442        9.502      463.164     1328.043       90.293        0.269        0.094       57.849       10.240        0.031      336.507        7.856      865.980
04/23/2013  01:43:00       56.102       30.006        5.540       14.719       11.538       11.648      216.658      133.130      135.668        0.228        0.024       63.623        4.713        0.005      336.514        7.867      865.992
04/23/2013  01:44:00       33.614       -4.534        2.280       26.391       26.860       10.066      696.490      721.478      101.318        0.134        0.076       33.919        9.624        0.081      336.453        7.765      866.005
04/23/2013  01:45:00       12.813      -34.202        8.723       11.061       20.591       10.861      122.343      424.009      117.956        0.104        0.033       36.523        8.069        0.049      336.341        7.577      866.009
04/23/2013  01:46:00       37.647      -23.378        4.623       26.525       28.034       17.010      703.568      785.928      289.338        0.188        0.089       44.315       13.093        0.087      336.440        7.743      866.004
04/23/2013  01:47:00       26.991        3.657       13.883       12.176       17.613       10.708      148.247      310.219      114.655        0.075        0.029       27.238        6.709        0.061      336.491        7.829      866.001
04/23/2013  01:48:00       85.661       42.913       14.254       23.405       17.286       13.585      547.815      298.809      184.540        0.521        0.052       95.809        3.989        0.002      336.463        7.782      865.998
04/23/2013  01:49:00       86.556       49.134       32.924       41.400       36.321       29.818     1713.930     1319.234      889.108        0.746        0.196       99.529       24.689        0.062      336.441        7.745      865.999
04/23/2013  01:50:00      148.596       45.327       12.143      116.814       65.828       42.683    13645.565     4333.366     1821.860        2.204        0.990      155.355       22.990        0.022      336.691        8.161      865.975
04/23/2013  01:51:00       80.741       35.538       34.567       78.088       56.454       44.534     6097.699     3187.038     1983.261        1.012        0.563       88.216       39.304        0.199      336.650        8.096      865.964
04/23/2013  01:52:00       95.584       51.467       11.818       35.402       27.236       28.320     1253.278      741.806      802.027        0.736        0.140      108.560       11.447        0.011      336.527        7.888      865.956
04/23/2013  01:53:00       52.594       56.909       34.443       40.304       23.718       32.998     1624.385      562.535     1088.859        0.523        0.164       77.490       24.140        0.097      336.536        7.903      865.925
04/23/2013  01:54:00       35.946       41.571       34.103       20.855       24.556       25.106      434.927      603.015      630.289        0.293        0.083       54.957       18.785        0.117      336.452        7.763      865.911
04/23/2013  01:55:00      122.812       79.258       22.613       34.866       29.612       31.581     1215.664      876.843      997.347        1.248        0.154      146.166       14.179        0.009      336.483        7.816      865.900
04/23/2013  01:56:00       72.612       68.933       42.191       33.495       19.260       20.112     1121.923      370.941      404.482        0.685        0.095      100.122       10.441        0.011      336.361        7.611      865.877
04/23/2013  01:57:00      120.417       53.282       15.574       25.823       30.977       21.455      666.814      959.579      460.320        0.983        0.104      131.679       10.753        0.007      336.373        7.630      865.883
04/23/2013  01:58:00      104.752       70.588       33.454       38.756       41.878       21.863     1502.024     1753.726      477.997        1.040        0.187      126.315       15.933        0.016      336.342        7.580      865.866
04/23/2013  01:59:00      126.518       47.089       30.676       43.954       40.931       27.974     1931.980     1675.374      782.519        1.178        0.219      134.997       22.612        0.028      336.677        8.139      865.859
04/23/2013  02:00:00       84.696       21.355       11.050       46.350       33.718       33.514     2148.349     1136.871     1123.164        0.608        0.220       87.347       19.073        0.048      336.570        7.963      865.865
04/23/2013  02:01:00       72.232       49.678       50.330       72.146       43.343       39.275     5205.025     1878.582     1542.527        0.942        0.431       87.666       30.644        0.122      336.458        7.772      865.873
04/23/2013  02:02:00      143.806       62.122       40.244       81.061       55.720       51.079     6570.906     3104.733     2609.087        1.922        0.614      156.651       44.971        0.082      336.471        7.794      865.885
04/23/2013  02:03:00       70.112       58.141       45.315       43.717       37.687       28.807     1911.145     1420.288      829.823        0.725        0.208       91.083       17.796        0.038      336.284        7.482      865.882
04/23/2013  02:04:00      146.407       84.252       23.248       50.450       33.918       33.011     2545.209     1150.429     1089.704        1.693        0.239      168.918       26.327        0.024      336.334        7.565      865.891
04/23/2013  02:05:00      104.101       68.379       35.734       46.997       21.880       30.534     2208.671      478.746      932.333        1.020        0.181      124.550       29.066        0.054      336.256        7.435      865.881
04/23/2013  02:06:00      100.635       30.580       18.748       37.720       30.768       29.978     1422.825      946.654      898.693        0.734        0.163      105.178       15.667        0.022      336.252        7.430      865.868
04/23/2013  02:07:00      100.664       71.284        9.470       20.698       18.603       16.780      428.413      346.065      281.576        0.818        0.053      123.347       10.507        0.007      336.290        7.492      865.870
04/23/2013  02:08:00       63.984       41.073       23.105       36.318       25.002       22.166     1318.984      625.118      491.319        0.437        0.122       76.033       21.529        0.080      336.206        7.351      865.870
04/23/2013  02:09:00       17.133      -11.617       44.050       29.845       82.616       33.071      890.751     6825.374     1093.722        0.559        0.440       20.701       48.378        5.462      336.378        7.639      865.889
04/23/2013  02:10:00      124.177       74.107       46.546       60.794       35.149       28.429     3695.855     1235.438      808.209        1.441        0.287      144.609       20.162        0.019      336.490        7.826      865.867
04/23/2013  02:11:00       81.981       50.743       17.625       42.461       29.879       30.529     1802.898      892.744      931.999        0.662        0.181       96.415       16.483        0.029      336.304        7.516      865.859
04/23/2013  02:12:00       34.768       31.656        6.797        8.827       14.015        9.851       77.918      196.419       97.043        0.131        0.019       47.020        6.925        0.022      336.265        7.449      865.849
04/23/2013  02:13:00       56.371       40.945       13.228       17.455       10.485       15.121      304.685      109.945      228.638        0.284        0.032       69.672        6.632        0.009      336.311        7.527      865.830
04/23/2013  02:14:00       35.159       28.300        5.812       11.270       14.531       10.962      127.010      211.151      120.175        0.126        0.023       45.134        5.238        0.013      336.307        7.522      865.801
04/23/2013  02:15:00       40.265       42.640        4.775       13.258       11.963       13.462      175.775      143.104      181.222        0.198        0.025       58.647       10.164        0.030      336.357        7.604      865.775
04/23/2013  02:16:00       26.344       13.861        2.636       37.359       26.139       20.294     1395.676      683.232      411.864        0.169        0.125       29.768       10.411        0.122      336.366        7.620      865.747
04/23/2013  02:17:00       34.476       19.783        1.865       23.553       29.885       16.891      554.738      893.132      285.300        0.166        0.087       39.749       10.431        0.069      336.306        7.519      865.716
04/23/2013  02:18:00       75.705       99.920      -15.109       50.561       50.786       33.986     2556.405     2579.226     1155.015        1.112        0.315      125.361       34.201        0.074      336.338        7.572      865.684
04/23/2013  02:19:00       43.922       37.247        1.288       37.446       39.751       27.984     1402.209     1580.136      783.084        0.354        0.188       57.589       28.103        0.238      336.298        7.505      865.656
04/23/2013  02:20:00       68.824       41.861       25.612       48.112       50.381       40.427     2314.757     2538.228     1634.343        0.681        0.324       80.555       44.688        0.308      336.156        7.268      865.636
04/23/2013  02:21:00       95.205       49.494       38.278       52.855       44.316       46.482     2793.693     1963.910     2160.603        0.995        0.346      107.302       28.373        0.070      336.433        7.732      865.599
04/23/2013  02:22:00       55.042       50.025       52.462       29.570       26.498       26.476      874.368      702.134      700.996        0.528        0.114       74.378       17.687        0.057      336.250        7.426      865.585
04/23/2013  02:23:00       68.848       16.467       13.515       36.748       41.848       30.131     1350.396     1751.271      907.873        0.460        0.200       70.790       25.855        0.133      336.266        7.453      865.582
04/23/2013  02:24:00       20.274       33.030       41.506       35.730       28.318       27.965     1276.656      801.909      782.021        0.304        0.143       38.756       26.179        0.456      336.251        7.428      865.555
04/23/2013  02:25:00       37.932       10.055       18.841       39.080       44.373       28.693     1527.224     1968.934      823.317        0.311        0.216       39.242       32.235        0.675      336.356        7.603      865.550
04/23/2013  02:26:00      150.999       57.833       50.482       90.160       42.074       55.711     8128.754     1770.250     3103.669        2.085        0.650      161.695       42.195        0.068      336.513        7.865      865.573
04/23/2013  02:27:00      115.842      106.068       54.454       69.306       67.783       59.959     4803.301     4594.576     3595.105        2.031        0.650      157.066       20.964        0.018      336.655        8.101      865.581
04/23/2013  02:28:00       50.898       66.866       69.026       76.148       61.212       59.212     5798.543     3746.896     3506.069        1.244        0.653       84.034       49.518        0.347      336.600        8.011      865.600
04/23/2013  02:29:00      118.470       61.806       40.606       79.292       54.799       52.993     6287.199     3002.929     2808.244        1.580        0.605      133.622       37.161        0.077      336.495        7.835      865.630
04/23/2013  02:30:00      122.872       83.345       34.372       80.751       63.145       50.815     6520.794     3987.288     2582.120        1.816        0.655      148.472       51.742        0.121      336.322        7.543      865.618
04/23/2013  02:31:00       82.263       54.811       44.475       68.385       52.977       39.862     4676.471     2806.615     1588.951        1.041        0.454       98.851       32.402        0.107      336.358        7.605      865.601
04/23/2013  02:32:00       43.818       18.985       19.656       45.184       28.375       23.170     2041.583      805.134      536.858        0.302        0.169       47.754       23.523        0.243      336.214        7.363      865.599
04/23/2013  02:33:00       77.773      -66.805        7.798       59.372       43.878       31.443     3525.060     1925.283      988.649        0.850        0.322      102.526       31.197        0.093      336.406        7.685      865.591
04/23/2013  02:34:00       53.360        3.789       43.466       49.573       58.511       41.550     2457.520     3423.553     1726.370        0.618        0.380       53.495       41.658        0.606      336.377        7.637      865.576
04/23/2013  02:35:00       34.271       34.056       60.592       48.321       40.498       35.816     2334.886     1640.118     1282.758        0.563        0.263       48.315       31.701        0.431      336.462        7.779      865.573
04/23/2013  02:36:00       59.986      -17.523       20.896       45.405       57.144       34.351     2061.653     3265.459     1180.022        0.542        0.325       62.493       40.587        0.422      336.585        7.987      865.560
04/23/2013  02:37:00       50.834      -16.248       21.768       30.822       40.690       30.522      949.983     1655.699      931.611        0.343        0.177       53.368       29.379        0.303      336.535        7.902      865.550
04/23/2013  02:38:00       60.932      -68.588       -5.790       39.396       47.563       24.915     1552.015     2262.245      620.764        0.644        0.222       91.745       25.343        0.076      336.721        8.213      865.559
04/23/2013  02:39:00       38.421       -3.083       22.707       47.261       27.215       32.577     2233.633      740.637     1061.289        0.302        0.202       38.545       26.485        0.472      336.494        7.833      865.575
04/23/2013  02:40:00       52.222      -11.169       12.430       50.610       35.403       27.979     2561.363     1253.391      782.827        0.380        0.230       53.403       31.722        0.353      336.490        7.827      865.592
04/23/2013  02:41:00       52.906      -25.135       16.192       40.508       60.391       28.915     1640.871     3647.039      836.084        0.491        0.306       58.573       30.830        0.277      336.521        7.878      865.608
04/23/2013  02:42:00       27.988       31.360       67.448       42.198       56.423       34.145     1780.653     3183.536     1165.885        0.622        0.307       42.033       35.827        0.726      336.535        7.903      865.604
04/23/2013  02:43:00       57.502      -71.957        5.214       53.084       74.290       49.809     2817.892     5519.022     2480.929        0.966        0.541       92.110       50.529        0.301      336.707        8.191      865.602
04/23/2013  02:44:00       30.480      -98.326       -9.956       37.898       47.418       33.768     1436.240     2248.434     1140.298        0.776        0.241      102.942       28.596        0.077      336.686        8.155      865.600
04/23/2013  02:45:00       81.903     -140.730      -24.756       43.906       57.679       26.032     1927.766     3326.844      677.669        1.653        0.297      162.828       21.529        0.017      336.765        8.286      865.594
04/23/2013  02:46:00       60.162      -99.334      -16.649       48.852       34.726       24.927     2386.532     1205.861      621.373        0.899        0.211      116.132       16.886        0.021      336.690        8.161      865.585
04/23/2013  02:47:00       15.774      -14.947       30.565       36.356       36.498       31.082     1321.776     1332.107      966.101        0.251        0.181       21.731       31.056        2.042      336.618        8.040      865.582
04/23/2013  02:48:00       -7.484        1.305       34.424       16.072       25.183       18.752      258.302      634.172      351.652        0.124        0.062        7.597       18.038        5.638      336.296        7.502      865.587
04/23/2013  02:49:00      -12.734       -7.958        8.565       12.708       17.795       13.281      161.496      316.648      176.372        0.048        0.033       15.016       11.075        0.544      336.238        7.405      865.585
04/23/2013  02:50:00       -3.201      -17.742       13.308       22.570       14.945        9.275      509.407      223.361       86.019        0.066        0.041       18.028        8.499        0.222      336.119        7.207      865.579
04/23/2013  02:51:00       30.841      -27.234        6.881       42.091       25.501       21.092     1771.675      650.307      444.877        0.230        0.143       41.145       20.264        0.243      336.301        7.510      865.579
04/23/2013  02:52:00      -15.633      -24.596        0.875       21.321       24.122       19.298      454.564      581.855      372.398        0.113        0.070       29.144       16.500        0.321      335.864        6.781      865.572
04/23/2013  02:53:00      -40.482      -30.652       -5.886       18.192       13.240       13.383      330.944      175.302      179.096        0.165        0.034       50.777        8.664        0.029      335.741        6.579      865.558
04/23/2013  02:54:00      -46.262      -26.741        0.938       19.157       18.560       12.386      366.986      344.461      153.420        0.186        0.043       53.434       10.660        0.040      335.677        6.471      865.533
04/23/2013  02:55:00      -46.074      -12.799        1.185       36.599       16.062       16.182     1339.506      257.982      261.871        0.207        0.093       47.818       17.462        0.133      335.683        6.480      865.521
04/23/2013  02:56:00      -57.490      -15.065      -11.024       12.525       12.129        7.527      156.875      147.121       56.659        0.201        0.018       59.431        4.654        0.006      335.629        6.391      865.520
04/23/2013  02:57:00      -32.441        3.248       -0.972       12.959       10.472        7.940      167.942      109.671       63.043        0.070        0.017       32.603        6.598        0.041      335.805        6.683      865.521
04/23/2013  02:58:00      -23.075      -38.475      -10.735       32.787       14.484       12.535     1074.990      209.778      157.116        0.178        0.072       44.864        6.669        0.022      335.636        6.402      865.535
04/23/2013  02:59:00       -8.496      -57.355       -0.041       33.267       42.779       22.561     1106.707     1830.051      508.999        0.340        0.172       57.981       12.333        0.045      335.993        6.998      865.542
04/23/2013  03:00:00       42.800      -87.326        7.464       66.227       46.578       25.863     4386.020     2169.508      668.885        0.837        0.361       97.251       15.022        0.024      336.064        7.115      865.539
04/23/2013  03:01:00        7.329      -50.977        3.154       35.895       37.014       25.446     1288.453     1370.067      647.482        0.298        0.165       51.502       20.639        0.161      335.961        6.944      865.553
04/23/2013  03:02:00      -27.261      -30.209       13.950       19.407       23.174       14.331      376.644      537.025      205.370        0.148        0.056       40.691       10.372        0.065      335.751        6.594      865.569
04/23/2013  03:03:00       -7.821      -36.518        8.068       25.405       29.189       20.357      645.424      851.992      414.419        0.169        0.096       37.347       14.172        0.144      335.891        6.828      865.579
04/23/2013  03:04:00       13.882      -21.854       13.836       19.740       18.614       15.808      389.667      346.477      249.881        0.092        0.049       25.891        8.184        0.100      335.967        6.954      865.577
04/23/2013  03:05:00        1.798      -21.704        2.558       12.743       21.324       17.588      162.374      454.733      309.345        0.070        0.046       21.779       16.038        0.542      335.453        6.095      865.567
04/23/2013  03:06:00       11.399      -33.010       12.235       26.532       17.300       17.927      703.970      299.275      321.374        0.135        0.066       34.922       13.685        0.154      335.749        6.592      865.553
04/23/2013  03:07:00       26.962      -46.088        8.260       20.695       25.943       17.089      428.296      673.057      292.046        0.216        0.070       53.395       14.519        0.074      335.866        6.784      865.534
04/23/2013  03:08:00       42.917      -28.768       21.851       30.563       28.771       18.784      934.072      827.766      352.824        0.263        0.106       51.667       15.821        0.094      335.945        6.916      865.524
04/23/2013  03:09:00       10.128      -24.536       24.080       20.001       30.367       20.675      400.032      922.180      427.445        0.152        0.087       26.544       13.687        0.266      335.982        6.977      865.539
04/23/2013  03:10:00       -9.897      -19.121       10.554       20.258       20.428       16.748      410.399      417.302      280.492        0.084        0.055       21.531       16.241        0.569      335.769        6.624      865.576
04/23/2013  03:11:00      -20.625      -28.665       -8.844       16.618       19.508       12.661      276.143      380.569      160.299        0.107        0.041       35.314        9.052        0.066      335.746        6.584      865.585
04/23/2013  03:12:00      -27.779      -35.863       -2.020       18.528       21.058       13.554      343.300      443.421      183.710        0.152        0.049       45.364       10.760        0.056      335.446        6.084      865.576
04/23/2013  03:13:00      -21.701      -22.654        6.524       15.965       19.797       11.842      254.874      391.941      140.241        0.091        0.039       31.371        7.750        0.061      335.381        5.977      865.571
04/23/2013  03:14:00      -16.858      -46.138       -2.070       22.375       15.720       15.694      500.637      247.119      246.314        0.171        0.050       49.121        9.809        0.040      335.581        6.308      865.574
04/23/2013  03:15:00      -25.624      -45.648        0.898       17.335       26.105       23.804      300.518      681.450      566.649        0.214        0.077       52.348       16.676        0.101      335.172        5.630      865.588
04/23/2013  03:16:00       -4.085      -77.472       -3.383       50.207       51.594       24.442     2520.733     2661.972      597.407        0.590        0.289       77.580       17.120        0.049      335.582        6.313      865.604
04/23/2013  03:17:00       -3.855      -61.675        8.573       26.526       34.700       20.819      703.615     1204.073      433.410        0.312        0.117       61.795        6.516        0.011      335.743        6.581      865.630
04/23/2013  03:18:00      -39.728       -2.046       -9.108       27.745       12.412       12.332      769.807      154.050      152.085        0.137        0.054       39.781       13.175        0.110      334.867        5.122      865.643
04/23/2013  03:19:00      -18.909       -7.331       -5.925       25.586       11.755       12.894      654.652      138.185      166.259        0.070        0.048       20.280        6.030        0.088      335.243        5.748      865.648
04/23/2013  03:20:00      -19.385      -25.393       -5.722       26.184       20.092       13.055      685.618      403.679      170.426        0.116        0.063       31.946        9.360        0.086      335.344        5.916      865.624
04/23/2013  03:21:00      -24.566       -1.004        0.121       15.240       22.461       10.560      232.242      504.484      111.506        0.073        0.042       24.587        7.484        0.093      335.294        5.832      865.621
04/23/2013  03:22:00      -13.058      -12.627       -0.426       17.507        8.785        6.523      306.497       77.170       42.545        0.038        0.021       18.165        4.365        0.058      335.237        5.737      865.610
04/23/2013  03:23:00       11.421      -19.179        4.164       27.932       18.234       12.618      780.192      332.477      159.217        0.089        0.064       22.322       11.400        0.261      335.505        6.183      865.624
04/23/2013  03:24:00       25.126       -1.277        3.734       19.646       15.019       14.519      385.960      225.569      210.807        0.073        0.041       25.159       11.323        0.203      335.900        6.843      865.631
04/23/2013  03:25:00       10.967      -16.323        5.389       21.097       19.399        9.344      445.072      376.325       87.312        0.066        0.045       19.665        4.606        0.055      335.678        6.473      865.632
04/23/2013  03:26:00       -3.273      -15.269       -1.179       18.021       14.159        7.351      324.745      200.475       54.042        0.041        0.029       15.616        6.856        0.193      335.570        6.292      865.620
04/23/2013  03:27:00      -20.262      -33.662       -3.054       10.878       19.577       12.257      118.328      383.258      150.238        0.110        0.033       39.289        6.203        0.025      335.364        5.949      865.596
04/23/2013  03:28:00      -31.000      -34.324        2.237       25.448       25.522       19.200      647.582      651.354      368.640        0.191        0.083       46.251       14.330        0.096      334.912        5.198      865.582
04/23/2013  03:29:00      -37.451      -40.233       -8.462       26.572       17.895       14.675      706.052      320.232      215.343        0.217        0.062       54.966        9.771        0.032      335.035        5.402      865.566
04/23/2013  03:30:00       25.296      -66.170       -1.391       31.577       41.737       20.692      997.105     1742.005      428.178        0.409        0.158       70.841       21.704        0.094      335.766        6.619      865.572
04/23/2013  03:31:00        6.236      -20.742       23.927       20.359       18.558       15.093      414.503      344.398      227.804        0.101        0.049       21.659       12.151        0.315      335.554        6.266      865.583
04/23/2013  03:32:00        7.491       18.338       36.186       17.996       22.309       12.934      323.872      497.689      167.288        0.135        0.049       19.809       11.264        0.323      335.687        6.486      865.603
04/23/2013  03:33:00       20.137       33.291       13.585       18.771       16.203       15.293      352.359      262.553      233.882        0.127        0.042       38.907        7.434        0.037      335.739        6.573      865.600
04/23/2013  03:34:00       18.348        5.152        6.082       26.301       13.313        7.770      691.750      177.237       60.370        0.066        0.046       19.058        5.278        0.077      335.586        6.318      865.590
04/23/2013  03:35:00       -2.506      -16.948        3.554       13.204        9.915        7.520      174.337       98.313       56.556        0.032        0.016       17.133        6.903        0.162      335.498        6.171      865.592
04/23/2013  03:36:00      -11.097      -28.218        1.300       13.331       20.448        8.789      177.727      418.114       77.241        0.080        0.034       30.321        3.997        0.017      335.351        5.927      865.604
04/23/2013  03:37:00      -21.500      -27.049       -2.574       14.921       20.019       12.144      222.638      400.775      147.483        0.099        0.039       34.553        4.636        0.018      335.113        5.532      865.617
04/23/2013  03:38:00      -27.056      -37.305       -1.432       24.222       19.799       13.081      586.698      391.988      171.121        0.164        0.057       46.084        7.217        0.025      335.101        5.511      865.647
04/23/2013  03:39:00       43.043      -99.222       -4.730       58.754       29.917       30.278     3451.985      895.053      916.746        0.849        0.263      108.156       24.642        0.052      335.663        6.447      865.644
04/23/2013  03:40:00       10.315      -18.277       21.053       39.611       39.256       27.393     1569.043     1541.029      750.380        0.237        0.193       20.987       26.997        1.655      335.334        5.900      865.648
04/23/2013  03:41:00        8.984       10.367       42.940       21.189       25.302       20.498      448.957      640.214      420.165        0.177        0.075       13.718       18.529        1.824      335.481        6.144      865.640
04/23/2013  03:42:00       30.032       21.773       31.110       37.510       34.848       22.257     1406.993     1214.370      495.382        0.273        0.156       37.094       17.329        0.218      335.601        6.343      865.652
04/23/2013  03:43:00       67.859       49.145       28.680       15.369       14.577       14.255      236.200      212.486      203.212        0.425        0.033       83.786        7.600        0.008      335.749        6.589      865.641
04/23/2013  03:44:00       47.259       36.866       22.878       29.566       23.775       23.439      874.156      565.272      549.369        0.305        0.099       59.938       21.080        0.124      335.703        6.513      865.622
04/23/2013  03:45:00       47.732       37.651       25.315       30.929       22.015       22.143      956.611      484.672      490.303        0.313        0.097       60.794       17.437        0.082      335.716        6.536      865.586
04/23/2013  03:46:00       61.859       35.258       25.271       26.166       16.468       19.238      684.638      271.179      370.112        0.352        0.066       71.202       11.809        0.028      335.756        6.602      865.567
04/23/2013  03:47:00       63.399       27.494       17.238       26.218       41.146       23.255      687.360     1692.968      540.809        0.400        0.146       69.104        7.084        0.011      335.726        6.552      865.544
04/23/2013  03:48:00       31.821       28.071       44.719       40.504       62.914       30.697     1640.569     3958.155      942.294        0.517        0.327       42.433       35.396        0.696      335.727        6.554      865.545
04/23/2013  03:49:00       18.658      -15.425       34.513       30.190       47.366       26.194      911.449     2243.549      686.106        0.281        0.192       24.208       17.732        0.537      335.674        6.465      865.544
04/23/2013  03:50:00       53.873       45.422       37.532       31.732       41.722       18.533     1006.944     1740.697      343.456        0.473        0.155       70.466       16.420        0.054      335.729        6.557      865.582
04/23/2013  03:51:00       58.389       29.075       11.221       27.187       24.108       22.337      739.155      581.190      498.920        0.310        0.091       65.227       13.659        0.044      335.710        6.527      865.621
04/23/2013  03:52:00       57.520       49.214       16.135       46.614       28.638       27.651     2172.902      820.118      764.589        0.487        0.188       75.701       23.889        0.100      335.639        6.407      865.647
04/23/2013  03:53:00      103.371       85.562       28.598       37.818       37.657       34.849     1430.185     1418.024     1214.462        1.144        0.203      134.188       26.284        0.038      335.879        6.808      865.675
04/23/2013  03:54:00       78.950       42.897       22.710       44.714       29.622       25.824     1999.333      877.463      666.883        0.607        0.177       89.852       11.347        0.016      335.658        6.438      865.687
04/23/2013  03:55:00       71.931       50.101       17.766       28.453       20.909       21.531      809.546      437.172      463.596        0.485        0.086       87.660       11.090        0.016      335.585        6.318      865.696
04/23/2013  03:56:00       35.784       30.380        6.718       16.301       13.791       13.942      265.720      190.178      194.370        0.145        0.033       46.941        6.297        0.018      335.581        6.309      865.703
04/23/2013  03:57:00       14.176       25.273       -3.296       10.521       15.275       10.025      110.689      233.311      100.505        0.065        0.022       28.977        7.596        0.069      335.697        6.504      865.699
04/23/2013  03:58:00       32.004       19.646        3.975       12.403       14.113       13.699      153.832      199.165      187.674        0.098        0.027       37.553        7.220        0.037      335.589        6.324      865.711
04/23/2013  03:59:00       63.987       33.871       17.348       38.220       21.585       15.410     1460.768      465.927      237.476        0.385        0.108       72.399       16.308        0.051      335.613        6.363      865.706
04/23/2013  04:00:00       64.881       42.079       20.681       39.992       32.539       24.201     1599.352     1058.788      585.666        0.483        0.162       77.332       14.364        0.035      335.643        6.415      865.698
04/23/2013  04:01:00       81.281       44.331       23.651       27.468       19.412       18.897      754.492      376.830      357.086        0.531        0.074       92.584       14.159        0.023      335.607        6.354      865.714
04/23/2013  04:02:00      106.140       62.097       17.369       40.236       33.228       23.873     1618.947     1104.128      569.915        0.936        0.165      122.971       10.125        0.007      335.567        6.286      865.711
04/23/2013  04:03:00       67.315       54.909       19.792       43.969       31.081       26.842     1933.252      966.028      720.483        0.578        0.181       86.870       23.437        0.073      335.512        6.194      865.694
04/23/2013  04:04:00      121.856       76.797       30.023       37.707       34.028       22.398     1421.801     1157.877      501.689        1.236        0.154      144.037       13.032        0.008      335.633        6.397      865.674
04/23/2013  04:05:00      108.795       56.265       28.497       45.898       28.516       25.458     2106.638      813.175      648.087        0.969        0.178      122.483       17.272        0.020      335.628        6.389      865.652
04/23/2013  04:06:00      118.269       71.869       20.400       30.638       25.407       25.905      938.665      645.528      671.091        1.091        0.113      138.393       16.135        0.014      335.634        6.399      865.646
04/23/2013  04:07:00      116.676       74.185       33.397       38.162       24.088       29.632     1456.359      580.245      878.045        1.157        0.146      138.263       21.731        0.025      335.587        6.320      865.648
04/23/2013  04:08:00      140.490       83.587       41.788       42.281       32.309       28.084     1787.705     1043.841      788.726        1.604        0.181      163.475       16.735        0.010      335.610        6.358      865.662
04/23/2013  04:09:00      119.419       90.516       22.969       54.423       36.048       27.975     2961.872     1299.476      782.625        1.401        0.252      149.846       22.913        0.023      335.613        6.363      865.681
04/23/2013  04:10:00       86.132       62.696       41.468       37.268       25.307       31.620     1388.875      640.440      999.812        0.805        0.151      106.534       21.033        0.039      335.528        6.222      865.685
04/23/2013  04:11:00      101.703       52.841       22.567       23.004       17.046       17.287      529.167      290.568      298.832        0.738        0.056      114.611       13.225        0.013      335.597        6.337      865.683
04/23/2013  04:12:00      115.499       60.321       32.389       28.044       16.007       20.765      786.485      256.222      431.192        0.975        0.074      130.302       14.749        0.013      335.564        6.281      865.701
04/23/2013  04:13:00       89.804       53.348       25.077       33.367       26.131       23.329     1113.369      682.811      544.253        0.694        0.117      104.455       15.814        0.023      335.584        6.315      865.703
04/23/2013  04:14:00      132.510       68.003       26.466       31.280       23.923       21.672      978.418      572.331      469.670        1.245        0.101      148.941       11.288        0.006      335.640        6.409      865.701
04/23/2013  04:15:00       84.071       54.340       26.876       19.710       19.941       16.576      388.494      397.632      274.763        0.590        0.053      100.103        9.789        0.010      335.498        6.172      865.721
04/23/2013  04:16:00       92.876       54.639        7.517       26.862       21.822       21.971      721.545      476.206      482.744        0.667        0.084      107.756       14.578        0.018      335.453        6.098      865.740
04/23/2013  04:17:00      110.864       58.381       18.102       35.848       22.561       24.036     1285.076      508.977      577.746        0.920        0.119      125.297       19.267        0.024      335.473        6.131      865.758
04/23/2013  04:18:00      101.573       62.826       17.870       32.508       23.042       20.915     1056.770      530.913      437.449        0.830        0.101      119.433       18.251        0.023      335.581        6.310      865.766
04/23/2013  04:19:00       77.154       51.739       37.661       35.819       27.713       27.711     1283.026      768.032      767.922        0.643        0.141       92.896       17.961        0.037      335.665        6.451      865.778
04/23/2013  04:20:00       68.281       54.614       48.795       32.117       26.803       29.913     1031.502      718.391      894.812        0.633        0.132       87.436       23.382        0.072      335.621        6.376      865.799
04/23/2013  04:21:00      100.520       45.405       20.164       35.401       30.104       26.306     1253.230      906.262      692.031        0.771        0.143      110.299       19.176        0.030      335.602        6.345      865.798
04/23/2013  04:22:00      124.618       63.142       16.054       34.632       33.665       23.211     1199.395     1133.326      538.734        1.132        0.144      139.702       14.644        0.011      335.513        6.197      865.791
04/23/2013  04:23:00       91.717       59.002       24.357       42.504       24.747       18.790     1806.600      612.409      353.076        0.763        0.139      109.056       10.738        0.010      335.454        6.099      865.768
04/23/2013  04:24:00       84.267       43.620       23.939       36.618       25.094       24.056     1340.884      629.691      578.674        0.606        0.127       94.888       13.086        0.019      335.456        6.101      865.732
04/23/2013  04:25:00      108.904       43.004       18.916       38.053       26.749       26.066     1448.009      715.504      679.445        0.845        0.142      117.088       19.271        0.027      335.505        6.183      865.701
04/23/2013  04:26:00      120.611       28.612       24.560       37.467       26.609       25.572     1403.784      708.063      653.911        0.937        0.138      123.959       15.887        0.016      335.466        6.119      865.676
04/23/2013  04:27:00      119.804       56.522       16.196       35.263       31.594       22.043     1243.473      998.169      485.884        1.027        0.136      132.468        8.769        0.004      335.507        6.187      865.667
04/23/2013  04:28:00       89.233       43.932       39.292       40.196       36.129       33.893     1615.712     1305.272     1148.712        0.775        0.203       99.461       28.939        0.085      335.430        6.057      865.672
04/23/2013  04:29:00      104.185       22.385       41.678       36.581       35.959       27.543     1338.199     1293.056      758.615        0.824        0.169      106.563       23.184        0.047      335.513        6.197      865.683
04/23/2013  04:30:00      225.262      -70.712       13.616      120.598       74.661       56.207    14543.787     5574.264     3159.186        3.960        1.164      236.100       63.314        0.072      336.056        7.100      865.670
04/23/2013  04:31:00      118.547       48.636       53.204       75.764       89.436       50.876     5740.126     7998.723     2588.406        1.779        0.816      128.136       44.478        0.120      335.863        6.779      865.678
04/23/2013  04:32:00       91.336       62.000       70.501       45.598       43.382       31.924     2079.216     1881.960     1019.139        1.107        0.249      110.391       25.533        0.053      335.759        6.607      865.714
04/23/2013  04:33:00       41.566       59.745       55.267       29.404       29.344       25.078      864.596      861.057      628.913        0.535        0.118       72.782       10.700        0.022      335.659        6.441      865.720
04/23/2013  04:34:00       69.989       72.700       56.276       43.117       30.073       27.150     1859.033      904.367      737.103        0.842        0.175      100.915       20.949        0.043      335.729        6.558      865.713
04/23/2013  04:35:00       78.353       74.091       66.564       53.802       36.808       33.022     2894.705     1354.857     1090.443        1.070        0.267      107.837       26.942        0.062      335.843        6.746      865.700
04/23/2013  04:36:00       93.021       89.589       67.273       31.400       24.907       34.519      985.977      620.369     1191.587        1.200        0.140      129.148       24.707        0.037      335.646        6.419      865.676
04/23/2013  04:37:00       77.237       59.899       49.642       51.922       32.213       27.134     2695.886     1037.682      736.266        0.824        0.223       97.742       25.572        0.068      335.608        6.355      865.659
04/23/2013  04:38:00       66.489       26.247       17.542       36.945       29.358       30.127     1364.910      861.888      907.631        0.428        0.157       71.482       11.641        0.027      335.597        6.337      865.635
04/23/2013  04:39:00       89.967       -6.674       17.716       36.516       22.810       23.154     1333.451      520.291      536.107        0.542        0.119       90.214       16.141        0.032      335.598        6.338      865.607
04/23/2013  04:40:00       63.499       37.293       45.100       50.320       35.452       24.139     2532.094     1256.857      582.687        0.591        0.219       73.640       20.595        0.078      335.699        6.507      865.583
04/23/2013  04:41:00       76.481       33.272       57.787       40.023       31.759       27.881     1601.825     1008.653      777.364        0.684        0.169       83.405       24.265        0.085      335.649        6.424      865.567
04/23/2013  04:42:00       67.159       28.029       48.863       46.068       29.895       30.049     2122.257      893.706      902.948        0.580        0.196       72.773       25.560        0.123      335.698        6.506      865.560
04/23/2013  04:43:00       43.211       47.969       67.656       45.559       32.727       27.922     2075.597     1071.064      779.627        0.634        0.196       64.561       22.914        0.126      335.669        6.457      865.555
04/23/2013  04:44:00       30.889       52.100       67.224       28.072       40.777       21.860      788.045     1662.742      477.838        0.556        0.146       60.569       22.712        0.141      335.561        6.279      865.564
04/23/2013  04:45:00       62.944       48.190       47.802       47.315       42.405       27.169     2238.725     1798.206      738.152        0.667        0.239       79.273       28.034        0.125      335.573        6.298      865.582
04/23/2013  04:46:00       87.944       17.454       18.257       50.662       39.162       29.039     2566.625     1533.642      843.274        0.666        0.247       89.660       22.110        0.061      335.634        6.397      865.609
04/23/2013  04:47:00      101.506       57.990       27.069       53.164       34.391       33.613     2826.371     1182.771     1129.859        0.977        0.257      116.902       30.157        0.067      335.513        6.198      865.640
04/23/2013  04:48:00       80.811       25.016       30.439       44.128       30.643       26.816     1947.283      938.986      719.120        0.584        0.180       84.595       16.873        0.040      335.543        6.245      865.645
04/23/2013  04:49:00       75.878       51.436       35.430       24.322       25.512       31.050      591.558      650.862      964.079        0.593        0.110       91.669       15.718        0.029      335.474        6.131      865.625
04/23/2013  04:50:00       64.679       48.013       40.647       23.008       18.045       19.983      529.346      325.630      399.319        0.470        0.063       80.552       10.290        0.016      335.425        6.050      865.605
04/23/2013  04:51:00       26.732       37.845       40.479       23.979       17.518       14.371      575.008      306.875      206.529        0.244        0.054       46.334        8.946        0.037      335.444        6.082      865.595
04/23/2013  04:52:00       40.712       49.137       51.316       24.050       22.166       20.057      578.413      491.310      402.303        0.409        0.074       63.811        3.554        0.003      335.437        6.070      865.604
04/23/2013  04:53:00       51.149       45.651       41.029       29.885       20.396       15.700      893.141      415.988      246.485        0.397        0.078       68.558       12.376        0.033      335.406        6.018      865.626
04/23/2013  04:54:00       74.634       27.418       25.056       43.755       23.091       21.510     1914.498      533.205      462.662        0.493        0.146       79.510       19.964        0.063      335.468        6.120      865.651
04/23/2013  04:55:00       39.958        8.353       21.371       40.607       25.053       18.166     1648.947      627.632      329.991        0.236        0.130       40.822       14.646        0.129      335.422        6.044      865.654
04/23/2013  04:56:00       65.283       28.922       13.135       24.226       15.533       14.482      586.877      241.262      209.720        0.315        0.052       71.403       12.407        0.030      335.375        5.966      865.661
04/23/2013  04:57:00       55.912       43.981       16.573       24.051       14.866       16.716      578.435      220.993      279.427        0.321        0.054       71.137        8.593        0.015      335.368        5.954      865.670
04/23/2013  04:58:00       15.837       38.889       -3.882       25.117       20.738       16.398      630.878      430.060      268.893        0.155        0.066       41.990       11.814        0.079      335.300        5.840      865.673
04/23/2013  04:59:00       12.890       12.304        2.357       19.405       20.494        8.729      376.572      420.024       76.187        0.060        0.044       17.820        9.944        0.311      335.270        5.791      865.673
04/23/2013  05:00:00       52.890       34.623       12.138       15.746       14.316       12.776      247.947      204.950      163.237        0.238        0.031       63.215        9.713        0.024      335.365        5.950      865.682
04/23/2013  05:01:00       46.033       34.536        2.660       23.710       19.127       20.232      562.180      365.860      409.341        0.233        0.067       57.548       16.157        0.079      335.297        5.837      865.683
04/23/2013  05:02:00       37.664       30.418        4.760       33.750       18.071       20.229     1139.054      326.552      409.212        0.212        0.094       48.413       14.266        0.087      335.245        5.750      865.675
04/23/2013  05:03:00       25.913       37.146       -5.780       24.165       20.856       12.506      583.945      434.968      156.409        0.163        0.059       45.291        9.462        0.044      335.279        5.806      865.669
04/23/2013  05:04:00       54.216       43.259        7.707       30.557       24.552       17.993      933.727      602.797      323.731        0.336        0.093       69.359       14.721        0.045      335.357        5.935      865.681
04/23/2013  05:05:00       49.023       43.325        2.762       31.524       23.519       18.225      993.763      553.159      332.159        0.308        0.094       65.424       13.354        0.042      335.352        5.928      865.697
04/23/2013  05:06:00       35.371       43.611       -1.383       28.143       23.558       19.713      792.056      554.959      388.598        0.244        0.087       56.152       14.835        0.070      335.340        5.908      865.682
04/23/2013  05:07:00       65.984       60.727        8.404       47.048       31.539       28.528     2213.532      994.679      813.822        0.607        0.201       89.675       20.623        0.053      335.381        5.976      865.662
04/23/2013  05:08:00       69.424       62.590        6.073       22.498       14.674       21.754      506.169      215.333      473.233        0.498        0.060       93.473       13.898        0.022      335.215        5.700      865.659
04/23/2013  05:09:00       86.861       53.912        9.452       21.514       20.127       16.539      462.871      405.081      273.526        0.584        0.057      102.232        8.333        0.007      335.163        5.614      865.668
04/23/2013  05:10:00       63.856       32.488       11.354       23.113       24.688       16.580      534.192      609.519      274.902        0.334        0.071       71.645       12.022        0.028      335.064        5.452      865.685
04/23/2013  05:11:00       80.903       46.087       25.371       24.715       16.658       13.193      610.819      277.490      174.058        0.519        0.053       93.109        7.235        0.006      335.099        5.509      865.690
04/23/2013  05:12:00       69.119       27.372       15.892       19.779       15.626       16.283      391.208      244.182      265.122        0.334        0.045       74.342        8.780        0.014      335.114        5.534      865.680
04/23/2013  05:13:00       93.674       49.264       30.869       35.998       18.901       22.579     1295.832      357.235      509.806        0.716        0.108      105.838       10.272        0.009      335.379        5.973      865.655
04/23/2013  05:14:00       47.046       35.429       21.047       35.504       30.379       28.210     1260.500      922.872      795.787        0.344        0.149       58.894       20.046        0.116      335.480        6.142      865.632
04/23/2013  05:15:00       75.010       43.161        8.743       28.906       24.119       21.280      835.560      581.741      452.826        0.472        0.094       86.541       10.502        0.015      335.384        5.982      865.648
04/23/2013  05:16:00       48.476       60.857        9.442       42.733       24.515       20.900     1826.120      600.963      436.827        0.450        0.143       77.804       16.834        0.047      335.325        5.883      865.679
04/23/2013  05:17:00       55.063       72.871        3.301       38.184       30.645       30.608     1458.043      939.133      936.820        0.584        0.167       91.335       24.294        0.071      335.226        5.719      865.702
04/23/2013  05:18:00       39.961       31.469        2.338       39.553       24.448       19.931     1564.471      597.686      397.228        0.258        0.128       50.864       18.437        0.131      335.143        5.579      865.732
04/23/2013  05:19:00       37.928       39.218        2.128       27.644       17.524       20.022      764.198      307.103      400.876        0.223        0.074       54.558       12.452        0.052      335.102        5.513      865.760
04/23/2013  05:20:00       23.354       27.026        5.958       14.588       11.294        9.999      212.799      127.551       99.986        0.088        0.022       35.718        9.576        0.072      335.068        5.456      865.789
04/23/2013  05:21:00      -21.470        7.714        5.358       16.197       12.578       10.722      262.328      158.197      114.963        0.054        0.027       22.814        5.830        0.065      334.852        5.097      865.799
04/23/2013  05:22:00      -30.444        4.770       15.281       15.334       18.332       11.013      235.139      336.078      121.290        0.094        0.035       30.815       10.873        0.125      334.644        4.752      865.803
04/23/2013  05:23:00      -43.267       -6.554       -5.060        9.179        8.116        6.680       84.257       65.867       44.619        0.107        0.010       43.761        4.124        0.009      334.343        4.253      865.822
04/23/2013  05:24:00      -49.208      -22.607      -11.942        8.279        8.397        7.119       68.539       70.502       50.681        0.163        0.009       54.153        5.091        0.009      334.462        4.451      865.847
04/23/2013  05:25:00       -7.659      -19.716       -1.121       14.121       11.491        7.738      199.395      132.034       59.875        0.042        0.020       21.151        7.566        0.128      334.465        4.456      865.869
04/23/2013  05:26:00      -29.981       -3.697       -9.019       13.845        5.751        8.503      191.676       33.073       72.295        0.065        0.015       30.208        4.952        0.027      334.832        5.063      865.882
04/23/2013  05:27:00      -31.852        0.346        0.555        5.368        5.942        6.128       28.819       35.312       37.557        0.056        0.005       31.854        5.198        0.027      334.882        5.150      865.886
04/23/2013  05:28:00      -15.701        4.653        4.763       12.939        9.135        6.001      167.415       83.452       36.016        0.029        0.014       16.376        1.476        0.008      334.804        5.019      865.884
04/23/2013  05:29:00       34.711       29.310       12.721       16.185        6.717        9.315      261.967       45.114       86.762        0.131        0.020       45.430        8.968        0.039      334.950        5.260      865.888
04/23/2013  05:30:00       39.370       36.279        0.877       13.655       13.984       13.240      186.461      195.548      175.297        0.171        0.028       53.536        8.839        0.027      335.067        5.454      865.898
04/23/2013  05:31:00       49.145       42.121        1.510       24.653       16.204       13.117      607.766      262.574      172.063        0.262        0.052       64.725        9.436        0.021      334.985        5.319      865.908
04/23/2013  05:32:00       97.235       59.263       17.847       30.754       17.390       20.788      945.790      302.396      432.126        0.748        0.084      113.872        6.464        0.003      335.171        5.627      865.915
04/23/2013  05:33:00       64.863       22.364       22.404       30.577       21.641       18.082      934.976      468.338      326.967        0.347        0.087       68.610       16.259        0.056      335.112        5.528      865.917
04/23/2013  05:34:00       57.060       30.541       13.602       22.804       25.618       20.366      520.008      656.282      414.773        0.298        0.080       64.719       14.701        0.052      335.139        5.574      865.921
04/23/2013  05:35:00       42.152       33.432       32.066       30.880       25.382       20.566      953.590      644.259      422.975        0.297        0.101       53.801       11.404        0.045      335.123        5.547      865.906
04/23/2013  05:36:00       61.868       43.798       23.019       20.285       12.870       11.998      411.482      165.647      143.947        0.350        0.036       75.802        8.455        0.012      335.156        5.605      865.885
04/23/2013  05:37:00       67.633       43.659        8.990       20.029       13.017       14.611      401.159      169.452      213.478        0.367        0.039       80.500       11.507        0.020      335.139        5.574      865.849
04/23/2013  05:38:00       58.144       38.849       16.833       16.727       13.896       18.181      279.798      193.102      330.534        0.299        0.040       69.928        8.895        0.016      335.150        5.593      865.817
04/23/2013  05:39:00       77.526       48.173       21.499       13.945       13.152       12.827      194.460      172.971      164.522        0.466        0.027       91.274        5.149        0.003      335.179        5.640      865.774
04/23/2013  05:40:00       37.836        7.813       16.884       26.421       23.602       13.641      698.079      557.043      186.065        0.161        0.072       38.634        7.159        0.034      335.112        5.530      865.755
04/23/2013  05:41:00        7.687      -20.648       11.227       14.052       11.922       10.557      197.454      142.123      111.458        0.053        0.023       22.032        7.350        0.111      334.831        5.063      865.743
04/23/2013  05:42:00        4.282      -15.718       11.078        7.859       14.826        7.418       61.770      219.816       55.028        0.036        0.017       16.291        3.822        0.055      334.560        4.613      865.748
04/23/2013  05:43:00        6.328       -1.101       -0.422        7.604        9.219        7.143       57.817       84.986       51.017        0.012        0.010        6.423        6.016        0.877      334.833        5.067      865.751
04/23/2013  05:44:00       22.196        8.141        4.525        5.454        5.811        3.794       29.751       33.766       14.396        0.033        0.004       23.642        2.764        0.014      335.004        5.348      865.762
04/23/2013  05:45:00        9.617       -7.692        5.218       10.747        8.046        6.475      115.488       64.732       41.928        0.020        0.011       12.315        4.605        0.140      334.899        5.176      865.776
04/23/2013  05:46:00       -5.679       -6.121        2.072       10.557       12.069        5.633      111.440      145.669       31.736        0.018        0.014        8.350        5.106        0.374      334.783        4.984      865.802
04/23/2013  05:47:00       -5.214       -2.337        5.590       10.353       11.203        6.695      107.176      125.510       44.828        0.017        0.014        5.714        6.240        1.193      334.716        4.872      865.829
04/23/2013  05:48:00      -18.946        3.654        1.594       15.884        5.893        6.453      252.309       34.725       41.635        0.035        0.016       19.295        7.888        0.167      334.526        4.557      865.853
04/23/2013  05:49:00       -1.424       14.584        2.900       26.718       14.536        8.495      713.844      211.305       72.158        0.061        0.050       14.653        4.605        0.099      334.646        4.757      865.864
04/23/2013  05:50:00       23.901       15.949        7.098       20.520       16.485        8.705      421.076      271.750       75.771        0.082        0.038       28.734        5.016        0.030      335.058        5.441      865.860
04/23/2013  05:51:00       37.061        9.787        9.849       29.733       22.976       13.133      884.041      527.885      172.463        0.158        0.079       38.331       14.157        0.136      334.829        5.060      865.855
04/23/2013  05:52:00       57.208       29.497       12.488       36.478       29.030       21.605     1330.626      842.715      466.764        0.347        0.132       64.365       13.680        0.045      334.985        5.319      865.850
04/23/2013  05:53:00       50.613       33.982        8.847       27.570       14.483       10.058      760.090      209.744      101.172        0.243        0.054       60.963        5.400        0.008      334.876        5.139      865.852
04/23/2013  05:54:00       24.919       26.822        5.475       25.893       24.556       18.154      670.463      602.976      329.562        0.149        0.080       36.611       15.722        0.184      334.812        5.033      865.857
04/23/2013  05:55:00       32.851       41.183        5.303       27.162       24.336       17.677      737.773      592.231      312.493        0.222        0.082       52.681       13.763        0.068      334.819        5.044      865.862
04/23/2013  05:56:00       24.855       81.723       -3.560       17.632       19.470       12.775      310.882      379.088      163.201        0.408        0.043       85.419       10.765        0.016      334.733        4.901      865.874
04/23/2013  05:57:00       14.235      102.396       -8.693       26.118       22.774       15.350      682.126      518.662      235.625        0.610        0.072      103.381       11.828        0.013      334.882        5.149      865.880
04/23/2013  05:58:00       15.690       97.906       -7.013       18.583       19.781       12.609      345.323      391.279      158.995        0.539        0.045       99.155        4.933        0.002      334.873        5.133      865.898
04/23/2013  05:59:00       32.497       59.583       -2.013       25.086       31.414       20.765      629.307      986.825      431.189        0.333        0.102       67.869       20.256        0.089      334.832        5.065      865.922
04/23/2013  06:00:00       23.472       89.852       -8.931       17.311       21.904       13.518      299.686      479.795      182.732        0.483        0.048       92.867       13.063        0.020      334.868        5.125      865.941
04/23/2013  06:01:00       31.285       63.556       -0.115       21.518       35.496       25.134      463.045     1259.941      631.694        0.369        0.118       70.838       24.142        0.116      334.798        5.010      865.951
04/23/2013  06:02:00       -0.712       92.074      -14.703       23.480       22.908       10.276      551.305      524.795      105.598        0.494        0.059       92.076        9.624        0.011      334.863        5.115      865.942
04/23/2013  06:03:00      -15.621       12.957       -2.907       18.406       13.173       13.236      338.793      173.531      175.195        0.055        0.034       20.296       11.017        0.295      334.557        4.608      865.936
04/23/2013  06:04:00      -21.380       -3.449       -1.713       20.045       15.187        9.779      401.821      230.655       95.627        0.060        0.036       21.656        5.447        0.063      334.424        4.388      865.926
04/23/2013  06:05:00        6.568       35.470      -10.960       29.372       32.827       14.224      862.709     1077.583      202.326        0.178        0.107       36.073       18.147        0.253      334.667        4.791      865.922
04/23/2013  06:06:00       12.634       61.089       -1.520       24.430       31.852       16.468      596.846     1014.564      271.207        0.289        0.094       62.381       14.400        0.053      334.866        5.120      865.922
04/23/2013  06:07:00       18.466       26.857        4.196       29.170       23.312       18.600      850.905      543.462      345.977        0.141        0.087       32.593       17.193        0.278      334.847        5.090      865.922
04/23/2013  06:08:00       14.245       59.308      -12.301       13.739       18.991       11.083      188.771      360.671      122.835        0.227        0.034       60.995        8.758        0.021      334.829        5.059      865.929
04/23/2013  06:09:00        9.364       71.946       -9.548       12.046       14.711        7.377      145.118      216.401       54.415        0.289        0.021       72.553        5.753        0.006      334.912        5.199      865.943
04/23/2013  06:10:00       -7.747       85.043      -11.520       20.980       25.004        9.129      440.146      625.201       83.338        0.429        0.057       85.395       12.654        0.022      334.862        5.114      865.960
04/23/2013  06:11:00       12.484      115.800      -15.437       17.676       13.707        9.664      312.441      187.893       93.397        0.720        0.030      116.471        3.967        0.001      334.959        5.275      865.974
04/23/2013  06:12:00       23.829       63.487      -10.124       23.634       33.931       13.097      558.548     1151.326      171.528        0.329        0.094       67.812        6.808        0.010      334.787        4.990      865.986
04/23/2013  06:13:00       46.907       86.721       -2.167       18.848       32.882       20.396      355.262     1081.196      416.009        0.579        0.093       98.594       15.859        0.026      334.855        5.103      866.003
04/23/2013  06:14:00       38.280       65.407        2.347       29.604       33.247       21.094      876.394     1105.390      444.937        0.409        0.121       75.786       18.730        0.061      334.801        5.014      866.017
04/23/2013  06:15:00       27.980       93.130        0.195       24.601       41.862       23.143      605.228     1752.406      535.615        0.617        0.145       97.243       25.021        0.066      334.729        4.893      866.026
04/23/2013  06:16:00       37.477       58.233       -5.491       26.519       34.123       25.097      703.247     1164.350      629.858        0.366        0.125       69.251       22.443        0.105      334.731        4.897      866.031
04/23/2013  06:17:00       38.714       46.331        0.706       31.288       29.423       22.500      978.969      865.700      506.265        0.300        0.118       60.377       20.366        0.114      334.758        4.942      866.031
04/23/2013  06:18:00       22.045       52.940       -3.663       22.982       35.715       19.846      528.157     1275.555      393.852        0.275        0.110       57.346       15.051        0.069      334.749        4.926      866.035
04/23/2013  06:19:00       29.740       75.737      -12.187       19.114       30.786       18.396      365.359      947.798      338.411        0.421        0.083       81.367       14.665        0.032      334.808        5.025      866.034
04/23/2013  06:20:00       14.290       94.210       -9.326       22.132       32.912       16.661      489.831     1083.170      277.605        0.551        0.093       95.288       16.956        0.032      334.836        5.072      866.039
04/23/2013  06:21:00       31.218       83.108      -12.742       24.224       32.202       17.123      586.788     1036.954      293.196        0.498        0.096       88.778       13.874        0.024      334.823        5.049      866.055
04/23/2013  06:22:00       24.119       81.624       -9.532       19.479       25.837       11.139      379.438      667.526      124.071        0.425        0.059       85.113        8.089        0.009      334.763        4.952      866.082
04/23/2013  06:23:00       36.585       42.676        2.029       32.301       26.121       16.111     1043.370      682.300      259.573        0.257        0.099       56.212       14.119        0.063      334.745        4.921      866.105
04/23/2013  06:24:00       50.689       58.024       -5.003       31.261       31.437       22.465      977.247      988.310      504.657        0.422        0.124       77.046       18.597        0.058      334.744        4.921      866.113
04/23/2013  06:25:00       42.568       48.598        3.675       23.697       33.782       26.214      561.545     1141.191      687.176        0.329        0.119       64.605       24.335        0.142      334.742        4.915      866.103
04/23/2013  06:26:00       59.260       43.568        0.546       26.339       30.102       19.111      693.758      906.132      365.225        0.369        0.098       73.553       15.934        0.047      334.750        4.930      866.096
04/23/2013  06:27:00       58.032       52.776        4.441       27.875       24.196       17.730      777.043      585.448      314.354        0.392        0.084       78.441        9.443        0.014      334.763        4.950      866.089
04/23/2013  06:28:00       75.931       46.810        5.732       17.352       15.097       15.927      301.105      227.931      253.669        0.439        0.039       89.201        9.628        0.012      334.733        4.901      866.075
04/23/2013  06:29:00       72.513       41.510        5.066       32.799       22.035       18.722     1075.765      485.520      350.501        0.446        0.096       83.553       19.453        0.054      334.744        4.920      866.043
04/23/2013  06:30:00       86.600       40.488        9.650       31.283       26.690       17.795      978.632      712.331      316.649        0.562        0.100       95.598       11.190        0.014      334.825        5.053      866.010
04/23/2013  06:31:00       98.083       64.784       12.254       24.732       25.166       20.475      611.654      633.343      419.223        0.782        0.083      117.546       15.771        0.018      334.842        5.081      865.989
04/23/2013  06:32:00      113.600       56.731        8.057       32.730       23.064       23.738     1071.238      531.970      563.490        0.918        0.108      126.978       15.948        0.016      334.825        5.054      865.977
04/23/2013  06:33:00       84.167       36.821       17.217       39.944       30.527       31.999     1595.504      931.893     1023.953        0.614        0.178       91.869       22.898        0.062      334.873        5.132      865.991
04/23/2013  06:34:00       78.288       26.552        9.983       45.907       35.030       27.789     2107.459     1227.087      772.239        0.552        0.205       82.668       25.457        0.095      334.899        5.177      866.017
04/23/2013  06:35:00       82.896       52.371        2.362       32.153       20.261       18.152     1033.845      410.508      329.484        0.570        0.089       98.053       16.098        0.027      334.805        5.020      866.065
04/23/2013  06:36:00      110.985       68.392       30.256       41.297       28.651       23.484     1705.451      820.893      551.475        1.049        0.154      130.365       19.994        0.024      334.814        5.034      866.113
04/23/2013  06:37:00      119.002       76.336       18.760       34.010       21.610       22.754     1156.674      466.972      517.745        1.124        0.107      141.382       14.878        0.011      334.830        5.059      866.145
04/23/2013  06:38:00       97.116       70.944       25.679       29.979       24.902       26.264      898.741      620.117      689.774        0.867        0.110      120.269       18.346        0.023      334.828        5.058      866.143
04/23/2013  06:39:00       72.474       55.849       10.104       31.252       24.451       21.964      976.682      597.859      482.438        0.526        0.103       91.496       14.175        0.024      334.856        5.105      866.125
04/23/2013  06:40:00       58.826       42.620        9.059       26.565       19.802       22.680      705.724      392.108      514.390        0.349        0.081       72.643       15.787        0.047      334.870        5.127      866.122
04/23/2013  06:41:00       71.216       40.626        7.776       23.991       19.233       18.476      575.547      369.890      341.364        0.403        0.064       81.989       10.223        0.016      334.868        5.125      866.142
04/23/2013  06:42:00       82.139       60.136       17.114       27.888       24.686       21.193      777.760      609.389      449.133        0.625        0.092      101.799        8.906        0.008      334.922        5.215      866.179
04/23/2013  06:43:00       79.389       65.023        8.093       38.368       20.956       23.223     1472.066      439.154      539.327        0.652        0.123      102.619       21.415        0.044      334.940        5.245      866.229
04/23/2013  06:44:00       61.653       46.379        8.367       52.191       26.889       19.355     2723.935      723.024      374.605        0.492        0.191       77.150        9.234        0.014      334.975        5.301      866.284
04/23/2013  06:45:00       85.482       40.397       22.404       73.748       42.045       28.350     5438.757     1767.763      803.750        0.872        0.401       94.546       23.010        0.059      335.036        5.403      866.348
04/23/2013  06:46:00       90.067       59.366       15.055       36.290       26.266       27.471     1316.997      689.890      754.657        0.731        0.138      107.872       10.983        0.010      335.081        5.479      866.390
04/23/2013  06:47:00      110.263       62.460       17.006       39.291       27.109       23.758     1543.766      734.886      564.447        0.960        0.142      126.725       19.989        0.025      335.053        5.433      866.401
04/23/2013  06:48:00      105.449       63.418        5.219       25.359       23.303       23.578      643.099      543.045      555.915        0.845        0.087      123.050       16.335        0.018      335.036        5.405      866.398
04/23/2013  06:49:00       72.517       38.716        3.045       33.174       29.969       20.689     1100.496      898.149      428.047        0.460        0.121       82.205       17.855        0.047      335.128        5.555      866.385
04/23/2013  06:50:00       83.144       55.120        4.130       24.336       17.871       21.757      592.252      319.385      473.378        0.568        0.069       99.756       14.212        0.020      335.089        5.494      866.364
04/23/2013  06:51:00       88.103       59.751        5.897       25.058       25.905       21.939      627.909      671.056      481.321        0.657        0.089      106.453       13.831        0.017      335.085        5.485      866.337
04/23/2013  06:52:00       73.202       61.498        7.993       28.514       17.999       21.408      813.063      323.960      458.314        0.540        0.080       95.606       14.584        0.023      335.087        5.489      866.309
04/23/2013  06:53:00       51.848       47.166        3.955       29.569       23.388       22.633      874.334      546.986      512.272        0.343        0.097       70.091       19.013        0.074      335.197        5.672      866.296
04/23/2013  06:54:00       78.696       48.400        8.657       33.327       21.778       21.444     1110.704      474.277      459.863        0.533        0.102       92.388        9.565        0.011      335.132        5.564      866.297
04/23/2013  06:55:00       85.762       57.873        7.666       15.471       22.339       19.409      239.353      499.042      376.713        0.594        0.056      103.462        8.198        0.006      335.105        5.520      866.336
04/23/2013  06:56:00       56.261       57.529       -0.905       32.108       24.048       20.906     1030.955      578.289      437.075        0.426        0.102       80.467       14.565        0.033      335.174        5.631      866.373
04/23/2013  06:57:00       87.981       57.938        8.878       39.047       21.811       25.233     1524.701      475.720      636.715        0.691        0.132      105.344       17.060        0.026      335.175        5.634      866.409
04/23/2013  06:58:00       75.769       52.192       13.730       33.798       32.384       24.886     1142.301     1048.706      619.313        0.573        0.141       92.005       12.863        0.020      335.205        5.685      866.442
04/23/2013  06:59:00       86.325       42.436        8.302       33.435       33.134       27.576     1117.895     1097.884      760.413        0.615        0.149       96.191       16.645        0.030      335.254        5.765      866.444
04/23/2013  07:00:00       88.711       43.801       13.676       38.787       25.788       21.956     1504.428      665.035      482.074        0.631        0.133       98.935       15.094        0.023      335.282        5.810      866.439
04/23/2013  07:01:00       70.275       41.910       19.202       44.477       26.733       29.367     1978.245      714.671      862.436        0.531        0.178       81.823       27.309        0.111      335.324        5.880      866.417
04/23/2013  07:02:00       73.489       30.320        5.244       29.389       21.397       23.066      863.705      457.820      532.047        0.410        0.093       79.498       18.722        0.055      335.381        5.975      866.398
04/23/2013  07:03:00       80.542       49.943        9.345       33.205       25.479       23.693     1102.547      649.199      561.369        0.569        0.116       94.770       15.125        0.025      335.381        5.976      866.390
04/23/2013  07:04:00       99.875       32.539       16.253       38.307       29.410       27.597     1467.447      864.968      761.611        0.720        0.155      105.042       17.966        0.029      335.390        5.991      866.373
04/23/2013  07:05:00       95.793       45.106       20.439       28.388       21.487       23.015      805.882      461.712      529.678        0.671        0.090      105.881       15.822        0.022      335.374        5.964      866.372
04/23/2013  07:06:00       91.596       65.406       12.859       24.260       21.278       17.959      588.535      452.751      322.516        0.710        0.068      112.551       10.862        0.009      335.358        5.938      866.354
04/23/2013  07:07:00       96.099       28.610        7.417       41.722       41.043       30.817     1740.714     1684.498      949.686        0.724        0.219      100.267       16.779        0.028      335.443        6.081      866.361
04/23/2013  07:08:00       80.298       64.953       40.210       32.108       28.652       26.172     1030.896      820.953      684.956        0.741        0.127      103.280       11.171        0.012      335.515        6.200      866.357
04/23/2013  07:09:00       94.003       59.830       34.292       53.143       40.787       33.814     2824.222     1663.574     1143.373        0.961        0.282      111.428       17.992        0.026      335.621        6.378      866.358
04/23/2013  07:10:00       37.969       79.479       74.033       55.238       35.082       31.075     3051.281     1230.776      965.679        0.924        0.262       88.083       28.671        0.106      335.651        6.428      866.334
04/23/2013  07:11:00       46.484       52.034       26.740       39.035       32.788       31.462     1523.737     1075.026      989.837        0.459        0.179       69.773       27.224        0.152      335.576        6.302      866.297
04/23/2013  07:12:00       15.816       45.987       73.051       31.784       39.910       24.359     1010.244     1592.834      593.352        0.545        0.160       48.631       21.754        0.200      335.800        6.676      866.271
04/23/2013  07:13:00       67.600       75.137       60.221       56.533       36.038       30.867     3195.977     1298.715      952.761        0.964        0.272      101.071       22.995        0.052      335.701        6.510      866.267
04/23/2013  07:14:00       63.130       50.829       70.750       48.064       39.454       29.969     2310.103     1556.647      898.168        0.817        0.238       81.050       28.053        0.120      335.824        6.714      866.274
04/23/2013  07:15:00       84.901       42.367       51.660       60.665       53.057       36.843     3680.200     2815.094     1357.429        0.976        0.393       94.885       32.604        0.118      335.797        6.671      866.263
04/23/2013  07:16:00       81.451       51.156       37.576       46.452       32.984       34.194     2157.756     1087.932     1169.200        0.754        0.221       96.184       21.287        0.049      335.862        6.779      866.245
04/23/2013  07:17:00       65.353       50.507       60.450       47.778       47.039       32.743     2282.690     2212.706     1072.081        0.802        0.278       82.595       28.016        0.115      335.838        6.737      866.236
04/23/2013  07:18:00       79.771       82.745       85.530       60.735       49.850       43.826     3688.732     2484.975     1920.751        1.431        0.405      114.935       42.420        0.136      335.707        6.521      866.218
04/23/2013  07:19:00       77.936       67.179       80.267       56.028       48.888       42.143     3139.118     2389.992     1776.041        1.217        0.365      102.893       36.185        0.124      335.813        6.695      866.206
04/23/2013  07:20:00      116.917       66.405       48.671       73.460       61.471       35.760     5396.378     3778.730     1278.809        1.545        0.523      134.459       30.338        0.051      335.853        6.762      866.215
04/23/2013  07:21:00       88.075       69.050       73.013       74.571       42.551       36.701     5560.898     1810.610     1346.962        1.329        0.436      111.916       35.959        0.103      335.933        6.896      866.225
04/23/2013  07:22:00      103.802       60.702       56.744       75.792       57.600       50.844     5744.463     3317.755     2585.087        1.466        0.582      120.248       45.190        0.141      335.889        6.824      866.245
04/23/2013  07:23:00      153.988       70.251       63.419       89.141       65.518       53.507     7946.179     4292.645     2863.042        2.388        0.755      169.256       51.376        0.092      335.821        6.708      866.256
04/23/2013  07:24:00      136.463       77.995       72.874       79.372       63.269       56.413     6299.852     4002.922     3182.388        2.175        0.674      157.179       40.202        0.065      335.806        6.683      866.264
04/23/2013  07:25:00      112.104       74.518       58.337       65.031       59.128       52.721     4229.061     3496.178     2779.462        1.601        0.525      134.611       40.343        0.090      335.843        6.746      866.276
04/23/2013  07:26:00      125.056       95.989      113.476       75.423       65.369       51.656     5688.638     4273.129     2668.313        2.518        0.632      157.648       39.908        0.064      335.841        6.741      866.292
04/23/2013  07:27:00      104.153       72.518       78.043       72.770       64.652       61.988     5295.447     4179.828     3842.506        1.775        0.666      126.912       52.768        0.173      335.920        6.874      866.308
04/23/2013  07:28:00      144.454      123.722       91.986      102.302       73.940       64.740    10465.773     5467.131     4191.290        3.238        1.006      190.195       67.509        0.126      335.900        6.840      866.313
04/23/2013  07:29:00      152.348       95.870        8.334       57.863       46.109       48.765     3348.183     2126.040     2378.012        2.016        0.393      180.003       30.801        0.029      335.951        6.924      866.326
04/23/2013  07:30:00      118.690      110.586       72.482       70.306       49.782       52.971     4943.003     2478.277     2805.941        2.090        0.511      162.224       43.838        0.073      336.077        7.137      866.335
04/23/2013  07:31:00      189.419      102.969       33.374       91.315       57.075       70.009     8338.441     3257.506     4901.197        3.204        0.825      215.597       58.905        0.075      335.968        6.950      866.352
04/23/2013  07:32:00      147.926      111.887       35.130       65.112       62.248       50.839     4239.548     3874.859     2584.619        2.316        0.535      185.475       19.706        0.011      335.952        6.925      866.385
04/23/2013  07:33:00       99.452       74.524       40.935       75.092       52.090       45.253     5638.777     2713.349     2047.808        1.376        0.520      124.275       46.885        0.142      336.117        7.204      866.410
04/23/2013  07:34:00       70.639       48.321       73.120       72.493       70.827       49.300     5255.240     5016.412     2430.512        1.268        0.635       85.585       35.791        0.175      336.323        7.548      866.407
04/23/2013  07:35:00       88.862       95.425      121.643       94.639       75.191       55.417     8956.449     5653.661     3071.039        2.474        0.884      130.393       62.685        0.231      336.119        7.205      866.397
04/23/2013  07:36:00      122.130       67.447      108.499       90.196       95.172       57.877     8135.254     9057.762     3349.781        2.589        1.027      139.516       68.958        0.244      335.966        6.949      866.390
04/23/2013  07:37:00      100.803       69.242       60.148       68.006       44.901       57.527     4624.765     2016.140     3309.381        1.426        0.498      122.294       48.733        0.159      335.983        6.981      866.381
04/23/2013  07:38:00       56.658      103.101       90.231       60.201       34.639       42.280     3624.139     1199.832     1787.591        1.430        0.331      117.643       37.443        0.101      336.130        7.225      866.363
04/23/2013  07:39:00       81.513       96.421       85.237       60.477       53.774       53.887     3657.430     2891.681     2903.799        1.633        0.473      126.259       46.319        0.135      335.977        6.969      866.356
04/23/2013  07:40:00       31.141       91.093       91.434       59.802       57.380       58.734     3576.275     3292.419     3449.625        1.397        0.516       96.268       51.515        0.286      336.233        7.397      866.351
04/23/2013  07:41:00      135.069       76.051       97.512      117.641       95.488       76.240    13839.499     9118.004     5812.513        3.115        1.439      155.008       62.959        0.165      336.147        7.250      866.336
04/23/2013  07:42:00       95.583       64.759      106.316       93.933       92.102       65.995     8823.444     8482.718     4355.294        2.314        1.083      115.455       60.903        0.278      336.125        7.215      866.330
04/23/2013  07:43:00      111.938      108.171       85.073       90.813       63.437       57.144     8246.968     4024.195     3265.411        2.350        0.777      155.663       57.336        0.136      336.303        7.514      866.332
04/23/2013  07:44:00      136.143      123.713       97.077       96.539       81.571       77.854     9319.719     6653.893     6061.296        3.264        1.102      183.956       71.458        0.151      336.197        7.334      866.320
04/23/2013  07:45:00      185.171      122.904       72.922       99.052       87.397       76.514     9811.233     7638.245     5854.389        3.900        1.165      222.247       35.756        0.026      336.117        7.201      866.302
04/23/2013  07:46:00      169.029      100.358       64.745       78.345       73.471       80.280     6137.926     5398.056     6444.837        3.040        0.899      196.577       52.611        0.072      336.078        7.135      866.297
04/23/2013  07:47:00       63.785       52.079       51.332       68.036       55.382       48.417     4628.931     3067.214     2344.214        0.973        0.502       82.346       39.877        0.235      336.363        7.614      866.297
04/23/2013  07:48:00       87.513      126.342      108.550       81.435       87.487       83.620     6631.600     7653.940     6992.359        2.834        1.064      153.691       73.660        0.230      336.248        7.420      866.281
04/23/2013  07:49:00      195.236      129.008       72.433      129.777       87.900       87.415    16841.966     7726.332     7641.296        4.610        1.610      234.009       78.757        0.113      335.981        6.974      866.275
04/23/2013  07:50:00      204.420      107.207       72.518      104.443       83.008       72.944    10908.240     6890.292     5320.845        4.082        1.156      230.827       60.608        0.069      336.109        7.187      866.271
04/23/2013  07:51:00      207.536       74.229       76.711      120.344       91.688       89.489    14482.772     8406.613     8008.232        4.268        1.545      220.411       73.822        0.112      336.086        7.149      866.255
04/23/2013  07:52:00      143.670      153.524      124.807      121.154       97.774       83.272    14678.309     9559.837     6934.222        4.547        1.559      210.263       84.076        0.160      336.022        7.041      866.264
04/23/2013  07:53:00      109.187      139.105      141.050       95.109       91.407       74.392     9045.781     8355.201     5534.189        3.705        1.147      176.839       63.650        0.130      336.194        7.328      866.289
04/23/2013  07:54:00      171.356       49.451       35.855      135.083       84.131       60.598    18247.502     7077.991     3672.074        3.104        1.450      178.349       37.028        0.043      336.142        7.244      866.311
04/23/2013  07:55:00       42.796        9.559       55.868       74.666       84.586       57.970     5575.085     7154.826     3360.571        1.056        0.805       43.850       47.284        1.163      336.589        7.993      866.319
04/23/2013  07:56:00      142.235      -20.404       69.192       82.825      138.183       82.352     6860.056    19094.520     6781.898        2.908        1.637      143.691       96.210        0.448      336.274        7.464      866.297
04/23/2013  07:57:00      143.472      -54.085       45.294      112.079      110.430       66.873    12561.601    12194.864     4471.934        2.739        1.461      153.328       84.024        0.300      336.282        7.476      866.291
04/23/2013  07:58:00      156.485      -87.181       42.109      138.273      163.679      112.480    19119.327    26790.673    12651.726        4.620        2.928      179.131      132.072        0.544      336.259        7.438      866.252
04/23/2013  07:59:00      127.269       13.882       87.549      124.913       91.957       60.001    15603.197     8456.039     3600.138        2.585        1.383      128.024       58.085        0.206      336.248        7.421      866.241
04/23/2013  08:00:00      -15.205      119.230      166.880       48.797      105.074       69.639     2381.139    11040.606     4849.525        3.028        0.914      120.196       75.494        0.394      336.514        7.865      866.240
04/23/2013  08:01:00      136.503       68.272      105.000       86.752      122.583       87.244     7525.917    15026.509     7611.544        3.224        1.508      152.624       90.134        0.349      336.204        7.346      866.231
04/23/2013  08:02:00      140.100       66.269       72.883      105.718       90.369       78.104    11176.363     8166.497     6100.291        2.738        1.272      154.983       53.613        0.120      336.294        7.498      866.242
04/23/2013  08:03:00      146.296       74.669       52.639      113.308       85.093       80.985    12838.596     7240.854     6558.515        2.819        1.332      164.250       63.356        0.149      336.242        7.410      866.257
04/23/2013  08:04:00      135.883      122.988       88.281      109.127       97.588       84.656    11908.732     9523.407     7166.713        3.499        1.430      183.277       78.076        0.181      336.254        7.430      866.261
04/23/2013  08:05:00      185.183       91.580       81.886      126.497       97.407       79.869    16001.561     9488.212     6379.085        4.062        1.593      206.590       75.938        0.135      336.280        7.471      866.271
04/23/2013  08:06:00      106.583      136.918      128.893       86.498       61.333       57.345     7481.943     3761.691     3288.487        3.062        0.727      173.513       46.347        0.071      336.037        7.068      866.280
04/23/2013  08:07:00      121.948      109.775      116.667      129.007       77.051       75.089    16642.840     5936.801     5638.385        3.437        1.411      164.079       64.400        0.154      336.265        7.447      866.270
04/23/2013  08:08:00       40.609       29.701      104.205       76.275       75.761       62.299     5817.933     5739.654     3881.160        1.441        0.772       50.311       51.828        1.061      336.567        7.954      866.252
04/23/2013  08:09:00      118.297      153.025      147.746      100.344      101.159       66.261    10068.908    10233.161     4390.464        4.196        1.235      193.419       52.649        0.074      336.216        7.368      866.254
04/23/2013  08:10:00       64.849       46.330       91.287       73.962       72.987       54.944     5470.402     5327.073     3018.810        1.425        0.691       79.699       45.736        0.329      336.446        7.754      866.239
04/23/2013  08:11:00       58.536       -7.012       75.086       89.217      105.966       59.822     7959.692    11228.899     3578.623        1.594        1.138       58.954       68.168        1.337      336.612        8.029      866.211
04/23/2013  08:12:00      108.487       89.622      126.736       87.539       99.690       78.035     7663.081     9938.105     6089.488        2.977        1.185      140.718       79.152        0.316      336.275        7.466      866.193
04/23/2013  08:13:00       84.912      112.599      119.013      104.601       86.154       72.823    10941.402     7422.560     5303.124        2.885        1.183      141.026       64.362        0.208      336.276        7.467      866.149
04/23/2013  08:14:00      217.323       99.737       71.854      146.020      108.647      111.871    21321.971    11804.137    12515.192        5.398        2.282      239.117       82.042        0.118      336.214        7.360      866.095
04/23/2013  08:15:00       87.339      128.376      111.559      101.077       68.537       62.455    10216.570     4697.377     3900.613        2.768        0.941      155.269       61.774        0.158      336.434        7.731      866.093
04/23/2013  08:16:00      119.805      106.498       73.090       98.966       88.282       76.494     9794.203     7793.731     5851.408        2.723        1.172      160.297       58.860        0.135      336.500        7.842      866.104
04/23/2013  08:17:00       64.781      192.249      202.305      102.019       99.913       77.633    10407.963     9982.596     6026.817        5.425        1.321      202.870       65.806        0.105      336.322        7.542      866.078
04/23/2013  08:18:00      113.480       95.516       65.001      119.503       69.952       62.621    14280.869     4893.293     3921.441        2.466        1.155      148.328       65.202        0.193      336.653        8.097      866.102
04/23/2013  08:19:00      219.713       83.680       37.311       98.719       81.349       54.952     9745.436     6617.691     3019.686        3.802        0.969      235.108       43.457        0.034      336.523        7.879      866.107
04/23/2013  08:20:00       70.286      -30.998       58.520       90.711       96.839       54.565     8228.474     9377.827     2977.354        1.495        1.029       76.818       55.380        0.520      336.973        8.634      866.093
04/23/2013  08:21:00      157.689       89.418      119.458      149.208      138.121       79.862    22262.991    19077.300     6377.877        4.742        2.386      181.277       80.742        0.198      336.711        8.194      866.084
04/23/2013  08:22:00      217.975      155.976      117.352      140.287      103.837      106.662    19680.391    10782.090    11376.803        6.372        2.092      268.033       92.193        0.118      336.287        7.485      866.081
04/23/2013  08:23:00      164.432      114.353      102.251      126.767      101.626       92.580    16069.758    10327.864     8571.109        4.276        1.748      200.287       89.917        0.202      336.249        7.420      866.068
04/23/2013  08:24:00       43.927       82.567      102.776       78.641       70.605       60.254     6184.441     4985.090     3630.565        1.705        0.740       93.525       54.088        0.334      336.713        8.198      866.072
04/23/2013  08:25:00       95.749       75.947      121.217      114.597       93.112       65.027    13132.498     8669.838     4228.491        2.782        1.302      122.212       60.318        0.244      336.654        8.098      866.070
04/23/2013  08:26:00       31.921      -16.321       53.772       74.404       90.127       51.441     5535.907     8122.923     2646.198        1.024        0.815       35.852       35.796        0.997      336.781        8.314      866.061
04/23/2013  08:27:00       39.176      -38.354       51.043       66.364      105.146       59.614     4404.153    11055.595     3553.859        1.231        0.951       54.825       67.082        1.497      336.891        8.495      866.068
04/23/2013  08:28:00       66.964      -26.598       76.433       76.181      132.708       70.646     5803.540    17611.480     4990.856        1.971        1.420       72.053       74.245        1.062      336.757        8.271      866.047
04/23/2013  08:29:00       46.824       55.885      104.906       92.473      141.339       86.517     8551.198    19976.791     7485.247        2.616        1.801       72.909       94.353        1.675      336.744        8.251      866.027
04/23/2013  08:30:00      107.455      109.153      125.320      101.221      127.538       84.089    10245.634    16265.854     7071.015        3.637        1.679      153.169       88.378        0.333      336.580        7.974      866.024
04/23/2013  08:31:00      124.984       21.627       48.115      146.590      100.159       65.841    21488.582    10031.816     4334.975        2.712        1.793      126.841       38.391        0.092      336.809        8.358      866.008
04/23/2013  08:32:00      123.647     -109.224       37.330      136.207      143.762       80.995    18552.288    20667.616     6560.243        3.719        2.289      164.980       99.405        0.363      336.954        8.602      865.988
04/23/2013  08:33:00       77.596      -78.288       27.213       85.506      122.767       80.102     7311.205    15071.727     6416.365        2.084        1.440      110.228       48.572        0.194      336.831        8.397      866.010
04/23/2013  08:34:00      156.966     -230.417       -4.282      103.915      178.475       84.812    10798.431    31853.214     7193.072        6.379        2.492      278.801      109.937        0.155      336.638        8.071      866.023
04/23/2013  08:35:00      102.650      -90.556       24.868       83.887      107.473       64.910     7036.958    11550.470     4213.270        2.107        1.140      136.885       63.172        0.213      336.826        8.388      866.071
04/23/2013  08:36:00       92.905      -71.638       50.601       81.123      129.745       86.437     6580.940    16833.827     7471.325        2.360        1.544      117.317       71.233        0.369      336.820        8.377      866.088
04/23/2013  08:37:00       72.804      109.044      127.077       82.288       80.822       68.876     6771.360     6532.221     4743.896        2.569        0.902      131.114       64.931        0.245      336.749        8.259      866.145
04/23/2013  08:38:00       90.468      135.904      152.647      103.973       94.599       79.631    10810.368     8949.061     6341.029        3.802        1.305      163.262       50.947        0.097      336.798        8.339      866.154
04/23/2013  08:39:00       62.677        9.108       60.639       68.239      130.319       74.163     4656.591    16983.111     5500.114        1.741        1.357       63.335       74.532        1.385      336.739        8.242      866.161
04/23/2013  08:40:00       71.315       62.641       42.162       58.494       58.349       59.016     3421.560     3404.605     3482.872        1.055        0.515       94.920       36.676        0.149      336.860        8.445      866.160
04/23/2013  08:41:00      119.288       94.350      120.606      116.680      122.556       82.575    13614.244    15019.905     6818.692        3.656        1.773      152.091       98.312        0.418      336.514        7.863      866.145
04/23/2013  08:42:00      209.708      119.763       91.112      110.944      106.062       71.986    12308.621    11249.186     5181.934        4.768        1.437      241.497       73.132        0.092      336.500        7.841      866.150
04/23/2013  08:43:00       90.305      144.692      138.035       78.689       71.651       66.550     6192.017     5133.815     4428.951        3.195        0.788      170.560       57.410        0.113      336.618        8.038      866.163
04/23/2013  08:44:00       64.522      -22.404       45.748       55.957      101.579       58.982     3131.215    10318.339     3478.837        1.184        0.846       68.300       61.275        0.805      336.700        8.178      866.189
04/23/2013  08:45:00       51.256       33.670       38.480       42.370       67.844       48.118     1795.223     4602.858     2315.323        0.698        0.436       61.326       29.055        0.224      336.816        8.372      866.190
04/23/2013  08:46:00       29.255       25.587       82.000       76.123       56.482       59.104     5794.668     3190.183     3493.250        1.035        0.624       38.866       52.807        1.846      337.360        9.282      866.193
04/23/2013  08:47:00       61.883      -28.022       55.230       83.463       88.513       65.615     6966.102     7834.583     4305.280        1.338        0.955       67.932       67.447        0.986      336.982        8.649      866.188
04/23/2013  08:48:00       44.324       57.732       48.959       67.704       56.270       56.041     4583.880     3166.351     3140.559        0.929        0.545       72.784       29.492        0.164      337.139        8.912      866.208
04/23/2013  08:49:00       46.104       75.763        7.955       50.402       52.283       45.966     2540.412     2733.462     2112.904        0.766        0.369       88.688       36.057        0.165      336.928        8.559      866.222
04/23/2013  08:50:00       40.700       54.028        5.889       60.877       46.036       31.420     3706.042     2119.269      987.237        0.571        0.341       67.642       24.339        0.129      336.538        7.907      866.209
04/23/2013  08:51:00       28.527       64.618       42.929       36.115       42.831       67.274     1304.290     1834.484     4525.809        0.725        0.383       70.635       39.290        0.309      336.744        8.252      866.224
04/23/2013  08:52:00       89.406      124.757       97.595       68.133       56.076       56.250     4642.091     3144.553     3164.105        2.201        0.548      153.486       45.526        0.088      336.615        8.033      866.218
04/23/2013  08:53:00       37.750       17.064       45.460       63.570       59.453       42.246     4041.165     3534.698     1784.687        0.657        0.468       41.428       40.142        0.939      337.019        8.710      866.252
04/23/2013  08:54:00       -0.753       21.231       -0.376       30.790       49.637       31.219      948.031     2463.873      974.652        0.242        0.219       21.245       24.731        1.355      336.982        8.650      866.257
04/23/2013  08:55:00       55.094       69.807       62.154       71.093       41.793       42.480     5054.264     1746.636     1804.564        1.019        0.430       88.929       45.232        0.259      337.239        9.078      866.282
04/23/2013  08:56:00      205.278       95.563       23.668      102.561       78.237       70.863    10518.671     6120.993     5021.502        3.674        1.083      226.432       51.308        0.051      336.860        8.442      866.280
04/23/2013  08:57:00      185.553      113.361       55.216      109.962       64.980       65.647    12091.711     4222.342     4309.563        3.547        1.031      217.441       46.457        0.046      336.896        8.503      866.259
04/23/2013  08:58:00      131.974      119.392       31.352      132.889      103.271       85.848    17659.484    10664.813     7369.852        3.417        1.785      177.965       66.087        0.138      336.987        8.656      866.263
04/23/2013  08:59:00      158.911       95.762       22.471       83.128       80.859       54.996     6910.191     6538.112     3024.532        2.570        0.824      185.534       33.868        0.033      337.130        8.894      866.276
04/23/2013  09:00:00      135.585       89.527       37.642      102.935       76.469       58.758    10595.627     5847.450     3452.546        2.385        0.995      162.475       40.754        0.063      337.055        8.767      866.291
04/23/2013  09:01:00      165.887       88.121       48.843      117.009       82.534       71.756    13691.052     6811.830     5148.901        3.166        1.283      187.840       64.836        0.119      337.050        8.760      866.283
04/23/2013  09:02:00      140.095      142.025      123.093       94.431       74.230       70.652     8917.253     5510.029     4991.769        3.718        0.971      199.494       54.324        0.074      337.117        8.874      866.273
04/23/2013  09:03:00       87.603      -14.365       50.316       83.876       99.504       67.649     7035.114     9901.053     4576.380        1.596        1.076       88.773       56.807        0.409      337.228        9.059      866.266
04/23/2013  09:04:00      196.508      114.663       44.972      102.218       64.350       65.159    10448.589     4140.927     4245.709        3.631        0.942      227.515       18.728        0.007      337.081        8.811      866.257
04/23/2013  09:05:00      320.215      186.241       43.767      144.866       99.592       84.037    20986.059     9918.600     7062.245        8.855        1.898      370.437       56.221        0.023      336.831        8.393      866.246
04/23/2013  09:06:00      221.435      114.032       45.802      132.302       98.009       90.126    17503.755     9605.774     8122.761        4.968        1.762      249.072       39.639        0.025      337.188        8.990      866.232
04/23/2013  09:07:00       92.332      177.659      130.005      109.339       77.606       76.431    11954.946     6022.617     5841.703        4.040        1.191      200.219       63.350        0.100      337.488        9.494      866.243
04/23/2013  09:08:00      117.956       78.208      122.296      117.222      130.081       83.172    13741.066    16921.025     6917.618        3.628        1.879      141.528       73.462        0.269      337.199        9.009      866.229
04/23/2013  09:09:00      224.935      151.492       99.268      121.688       92.187       80.399    14808.071     8498.400     6463.955        5.658        1.489      271.193       72.085        0.071      337.159        8.942      866.214
04/23/2013  09:10:00      201.607      160.662      114.884      164.143       90.477       74.294    26942.814     8186.167     5519.582        6.014        2.032      257.794       59.980        0.054      337.330        9.229      866.204
04/23/2013  09:11:00      330.511      205.781       94.733      199.197      121.756      128.610    39679.506    14824.450    16540.583       11.579        3.552      389.337      105.085        0.073      336.941        8.577      866.135
04/23/2013  09:12:00      118.511      167.595      134.425      111.998       98.799       88.212    12543.501     9761.246     7781.350        4.514        1.504      205.263       74.247        0.131      337.205        9.019      866.134
04/23/2013  09:13:00      101.314     -102.735       53.114       95.909      131.883       89.862     9198.502    17393.113     8075.179        2.915        1.733      144.288       81.136        0.316      337.404        9.352      866.106
04/23/2013  09:14:00      207.162      188.197      144.506      146.274      144.839      112.289    21396.011    20978.409    12608.853        7.709        2.749      279.882       99.134        0.125      337.177        8.973      866.092
04/23/2013  09:15:00      237.042      193.936      163.016      138.638      145.738      130.115    19220.610    21239.665    16929.805        8.887        2.870      306.268      108.576        0.126      337.000        8.675      866.093
04/23/2013  09:16:00      182.825      151.571      140.159      101.226      115.652       88.317    10246.633    13375.322     7799.821        5.373        1.571      237.485       76.885        0.105      337.161        8.945      866.107
04/23/2013  09:17:00       89.854       81.970      117.925       92.241       85.562       62.012     8508.325     7320.851     3845.465        2.418        0.984      121.626       55.883        0.211      337.485        9.489      866.095
04/23/2013  09:18:00      186.632      135.544       93.617      121.795       93.926      102.424    14834.037     8822.036    10490.627        4.805        1.707      230.660       74.371        0.104      337.111        8.860      866.070
04/23/2013  09:19:00      373.183      208.416       59.561      113.193      113.291       93.552    12812.562    12834.957     8751.963       11.032        1.720      427.437       49.944        0.014      336.968        8.622      866.051
04/23/2013  09:20:00      217.471      145.415       16.894      109.889       98.512       64.164    12075.550     9704.586     4117.082        4.731        1.295      261.609       38.126        0.021      337.002        8.678      866.051
04/23/2013  09:21:00      176.771      187.049      187.995      132.126      159.029      133.611    17457.223    25290.352    17851.847        8.108        3.030      257.362      126.857        0.243      337.237        9.072      865.991
04/23/2013  09:22:00       96.909      177.614      167.546      107.251      126.523      104.620    11502.776    16008.157    10945.313        5.373        1.923      202.332       93.135        0.212      337.015        8.703      865.992
04/23/2013  09:23:00       90.877      163.807      142.972      112.214       96.061       86.094    12592.032     9227.719     7412.246        4.238        1.462      187.327       77.299        0.170      337.357        9.274      865.995
04/23/2013  09:24:00      290.056      213.423       42.081      110.603       98.213       98.831    12233.081     9645.833     9767.608        8.154        1.582      360.114       52.779        0.021      337.021        8.711      865.979
04/23/2013  09:25:00      171.324      146.508       79.939      113.896       80.841       72.720    12972.401     6535.223     5288.250        4.100        1.240      225.426       36.567        0.026      337.490        9.498      865.963
04/23/2013  09:26:00       55.507      102.838      130.208       82.757      102.468       81.826     6848.769    10499.598     6695.573        2.732        1.202      116.862       76.626        0.430      337.827       10.064      865.965
04/23/2013  09:27:00      100.014      -53.728       16.436       76.427      142.942       64.718     5841.084    20432.403     4188.415        2.180        1.523      113.532       79.065        0.485      337.803       10.023      865.954
04/23/2013  09:28:00      175.502      -13.994       57.501       88.866      186.533      110.607     7897.092    34794.522    12233.866        4.460        2.746      176.059      107.607        0.374      337.633        9.737      865.942
04/23/2013  09:29:00      155.236      193.764      168.731      180.081      152.088      135.040    32429.071    23130.694    18235.741        8.194        3.690      248.280      123.914        0.249      337.530        9.564      865.930
04/23/2013  09:30:00       54.209      165.737      188.366      110.508      111.281       87.627    12212.022    12383.553     7678.492        4.907        1.614      174.377       77.320        0.197      337.666        9.792      865.959
04/23/2013  09:31:00      240.745      135.239       68.086      149.903      115.520      105.590    22470.835    13344.952    11149.274        6.391        2.348      276.130       84.679        0.094      337.586        9.658      865.982
04/23/2013  09:32:00      299.945      138.499       53.996      147.527      119.724      100.207    21764.177    14333.884    10041.386        7.909        2.307      330.377       77.578        0.055      337.092        8.830      865.992
04/23/2013  09:33:00      147.886       74.071       81.017      129.748      115.956      102.694    16834.428    13445.775    10546.008        3.736        2.041      165.399       89.161        0.291      337.247        9.090      865.969
04/23/2013  09:34:00      208.022      151.491       69.167      130.802       98.421       92.141    17109.248     9686.708     8489.894        5.314        1.764      257.338       83.661        0.106      337.183        8.983      865.961
04/23/2013  09:35:00      223.023      178.679       94.318       98.170       80.017       98.322     9637.393     6402.780     9667.145        5.813        1.285      285.772       65.851        0.053      337.425        9.387      865.907
04/23/2013  09:36:00      162.983      222.330      201.023      125.059      105.346      101.756    15639.689    11097.845    10354.220        7.674        1.855      275.670       81.381        0.087      337.320        9.211      865.897
04/23/2013  09:37:00       53.567      159.928      188.027       94.780       99.073       69.857     8983.169     9815.541     4880.032        4.373        1.184      168.660       59.308        0.124      337.707        9.860      865.882
04/23/2013  09:38:00      232.697      148.595       64.856      128.216      102.419       70.007    16439.292    10489.719     4901.034        5.613        1.592      276.095       38.743        0.020      337.508        9.526      865.902
04/23/2013  09:39:00      173.928       96.688       21.505       93.468       67.159       72.229     8736.307     4510.331     5217.063        2.926        0.923      198.996       36.535        0.034      337.558        9.610      865.899
04/23/2013  09:40:00      111.525      141.337      131.868       94.973      109.520      130.643     9019.884    11994.546    17067.572        4.393        1.904      180.039      112.418        0.390      337.893       10.173      865.893
04/23/2013  09:41:00      107.825      -12.081       95.134      109.552      148.369       80.760    12001.740    22013.282     6522.197        3.067        2.027      108.500       90.547        0.696      337.721        9.885      865.874
04/23/2013  09:42:00      186.174       52.033      109.162      160.543      157.934       94.859    25773.906    24943.029     8998.219        5.449        2.986      193.309       97.834        0.256      337.418        9.375      865.855
04/23/2013  09:43:00      159.795      118.066      119.818      129.510      122.728       79.860    16772.790    15062.084     6377.664        4.601        1.911      198.680       62.705        0.100      337.650        9.764      865.867
04/23/2013  09:44:00      289.169      124.553       62.632      130.069       84.500       93.911    16918.038     7140.331     8819.281        6.796        1.644      314.853       56.994        0.033      337.385        9.320      865.865
04/23/2013  09:45:00      104.561       72.806       52.652      108.963       82.628       61.623    11872.868     6827.387     3797.437        2.075        1.125      127.412       57.417        0.203      337.710        9.867      865.877
04/23/2013  09:46:00      130.070       73.821       87.325      113.495       81.543       83.725    12881.071     6649.189     7009.839        2.826        1.327      149.558       62.036        0.172      337.473        9.470      865.851
04/23/2013  09:47:00      117.100       94.250      107.515       98.719       87.774       81.210     9745.374     7704.212     6595.115        2.909        1.202      150.318       80.569        0.287      337.551        9.598      865.831
04/23/2013  09:48:00       99.092      120.027      119.624       98.588       79.203       82.902     9719.588     6273.147     6872.714        3.070        1.143      155.646       68.908        0.196      337.838       10.080      865.826
04/23/2013  09:49:00       99.692       32.161       65.557      105.725       99.718       77.761    11177.768     9943.676     6046.800        2.121        1.358      104.751       65.935        0.396      337.801       10.020      865.825
04/23/2013  09:50:00       60.790       90.978      133.440      125.773      114.341       97.848    15818.914    13073.845     9574.181        3.411        1.923      109.419       69.766        0.407      338.260       10.789      865.776
04/23/2013  09:51:00      230.332      169.762      163.715      180.450      192.002      112.425    32562.282    36864.747    12639.338        9.535        4.103      286.133      115.274        0.162      337.549        9.595      865.805
04/23/2013  09:52:00      113.462      -26.460       96.699      137.687      147.158      121.272    18957.773    21655.398    14706.909        3.911        2.766      116.506      120.560        1.071      337.696        9.840      865.832
04/23/2013  09:53:00      165.090     -120.831       49.989      151.307      216.663      111.245    22893.670    46942.793    12375.561        6.327        4.111      204.585      141.222        0.476      337.577        9.643      865.788
04/23/2013  09:54:00       55.109       25.860       65.761       76.599       99.248       63.606     5867.380     9850.086     4045.745        1.389        0.988       60.874       48.019        0.622      337.743        9.922      865.828
04/23/2013  09:55:00      260.508      185.222       47.540      134.773       88.462      108.242    18163.795     7825.505    11716.426        7.106        1.885      319.643       77.530        0.059      337.488        9.492      865.835
04/23/2013  09:56:00      265.662      158.777       39.308      124.245      106.132       74.473    15436.821    11264.047     5546.242        6.478        1.612      309.494       64.541        0.043      337.404        9.351      865.834
04/23/2013  09:57:00      226.912       46.363       34.850      110.946      124.943       78.558    12308.919    15610.856     6171.326        4.447        1.705      231.600       42.765        0.034      337.728        9.897      865.849
04/23/2013  09:58:00      188.124      114.749      138.750      137.116      156.204      116.733    18800.783    24399.607    13626.507        6.231        2.841      220.359      117.049        0.282      337.525        9.556      865.840
04/23/2013  09:59:00      156.539       -8.992       90.444      145.447      116.907       91.177    21154.797    13667.314     8313.158        3.794        2.157      156.797       92.256        0.346      337.668        9.794      865.818
04/23/2013  10:00:00       82.253       24.156       64.256      127.786      108.088       66.469    16329.257    11683.006     4418.115        2.195        1.622       85.727       23.795        0.077      337.951       10.272      865.845
04/23/2013  10:01:00      136.331      123.303       57.055      143.219      100.290       74.384    20511.746    10058.030     5532.907        3.657        1.805      183.820       67.078        0.133      338.054       10.443      865.874
04/23/2013  10:02:00      150.711      115.032       70.052      139.470       67.969       72.108    19451.871     4619.829     5199.540        3.506        1.464      189.595       52.577        0.077      337.616        9.709      865.856
04/23/2013  10:03:00      143.444      114.364       10.033      100.065       77.929       70.663    10013.092     6072.951     4993.210        2.741        1.054      183.454       43.132        0.055      337.744        9.923      865.844
04/23/2013  10:04:00      354.019      199.887      136.631      162.750      133.590      135.056    26487.716    17846.179    18240.229       12.325        3.129      406.552      118.484        0.085      337.723        9.888      865.821
04/23/2013  10:05:00      201.507      196.245      183.942      169.085      137.692      130.385    28589.696    18959.218    17000.178        8.874        3.227      281.278      106.737        0.144      337.549        9.595      865.799
04/23/2013  10:06:00      102.532      -60.102       86.776      129.609      141.727       88.471    16798.602    20086.572     7827.165        3.317        2.236      118.849       76.585        0.415      338.124       10.560      865.819
04/23/2013  10:07:00      124.367        6.042       66.758      105.130      114.529       81.947    11052.341    13116.998     6715.371        2.542        1.544      124.514       76.231        0.375      337.758        9.947      865.867
04/23/2013  10:08:00      146.029      143.881       86.443      137.778      101.350       85.117    18982.742    10271.921     7244.874        4.299        1.825      205.003       64.402        0.099      337.870       10.133      865.857
04/23/2013  10:09:00      282.987      177.860       62.236      131.747      100.605       95.782    17357.307    10121.305     9174.220        7.611        1.833      334.239       73.853        0.049      338.005       10.360      865.822
04/23/2013  10:10:00      385.398      248.400      107.994      229.323      154.310      140.560    52588.903    23811.639    19757.048       15.901        4.808      458.513      121.164        0.070      337.859       10.115      865.773
04/23/2013  10:11:00      319.184      108.059       58.267      159.682      120.630      111.214    25498.340    14551.588    12368.614        8.467        2.621      336.980       66.704        0.039      337.698        9.844      865.799
04/23/2013  10:12:00      314.772      136.028       59.988      175.278      116.484       99.714    30722.228    13568.570     9942.969        8.770        2.712      342.907       65.364        0.036      337.500        9.512      865.776
04/23/2013  10:13:00      271.849      199.182      119.721      141.330      137.312      123.101    19974.150    18854.592    15153.889        9.093        2.699      337.009       86.226        0.065      337.477        9.474      865.751
04/23/2013  10:14:00      281.830      189.224      106.069      162.960      124.589      106.101    26556.112    15522.421    11257.436        8.990        2.667      339.461       95.108        0.078      337.570        9.631      865.739
04/23/2013  10:15:00      138.438      168.509      145.551      145.043      120.071      122.211    21037.480    14417.134    14935.594        5.956        2.520      218.083      101.918        0.218      337.889       10.165      865.715
04/23/2013  10:16:00      145.977      117.159      136.335      105.947       91.401       76.009    11224.751     8354.179     5777.419        3.948        1.268      187.178       60.021        0.103      337.981       10.319      865.691
04/23/2013  10:17:00      194.314      127.087       82.305      112.750       86.014       82.470    12712.514     7398.466     6801.304        4.379        1.346      232.183       57.164        0.061      338.087       10.497      865.701
04/23/2013  10:18:00      170.240      125.670       70.160      104.421      100.089       90.746    10903.779    10017.712     8234.859        3.942        1.458      211.600       66.375        0.098      338.145       10.594      865.715
04/23/2013  10:19:00      206.948      180.308      157.989      165.020      167.245      151.160    27231.622    27970.735    22849.490        8.916        3.903      274.478      138.050        0.253      338.018       10.382      865.701
04/23/2013  10:20:00      255.649      130.731      105.293      173.186      145.261      135.486    29993.422    21100.855    18356.527        8.148        3.473      287.136      107.797        0.141      337.619        9.713      865.674
04/23/2013  10:21:00      199.532      146.590      125.034      150.590      118.674       97.081    22677.284    14083.532     9424.638        6.155        2.309      247.592       85.851        0.120      337.669        9.796      865.645
04/23/2013  10:22:00      146.443      107.957      102.715      117.027      102.871       85.137    13695.242    10582.517     7248.259        3.758        1.576      181.935       81.700        0.202      338.146       10.595      865.623
04/23/2013  10:23:00      188.669      139.847      101.316      118.617      110.111      103.901    14069.930    12124.451    10795.483        5.120        1.849      234.847       70.349        0.090      338.224       10.727      865.583
04/23/2013  10:24:00      283.158      176.981      105.303      166.331      108.479      116.713    27666.127    11767.696    13621.874        8.781        2.653      333.917       91.089        0.074      338.103       10.524      865.529
04/23/2013  10:25:00      100.871        1.195       56.798      102.151      168.071       70.425    10434.822    28247.819     4959.623        2.851        2.182      100.878       84.133        0.696      338.403       11.029      865.534
04/23/2013  10:26:00      163.330      -93.113       67.490      130.336      244.933      121.993    16987.464    59992.227    14882.252        6.586        4.593      188.007      159.700        0.722      338.160       10.621      865.483
04/23/2013  10:27:00      172.963        7.830       98.831      135.279      291.920      135.438    18300.477    85217.015    18343.452        8.078        6.093      173.140      168.539        0.948      338.458       11.120      865.457
04/23/2013  10:28:00      129.665       28.104       64.169      134.592      177.669      108.354    18115.037    31566.308    11740.641        4.156        3.071      132.676       97.369        0.539      338.382       10.993      865.445
04/23/2013  10:29:00      157.946       62.364      107.181      166.876      136.566       86.289    27847.652    18650.395     7445.844        4.712        2.697      169.812       98.410        0.336      338.278       10.820      865.457
04/23/2013  10:30:00       88.324       92.049      117.402      116.225      104.288       66.497    13508.355    10875.893     4421.797        2.943        1.440      127.570       65.051        0.260      338.339       10.921      865.419
04/23/2013  10:31:00       69.126       19.964       82.594       88.502      145.119       97.210     7832.567    21059.591     9449.846        2.516        1.917       71.952       98.220        1.863      338.667       11.473      865.395
04/23/2013  10:32:00      146.306     -138.847       45.616      161.730      238.625      150.136    26156.529    56942.111    22540.908        7.418        5.282      201.703      167.409        0.689      338.419       11.055      865.296
04/23/2013  10:33:00      114.572     -143.336       67.900      166.788      219.209      149.871    27818.172    48052.367    22461.429        6.829        4.917      183.499      158.496        0.746      338.385       10.999      865.287
04/23/2013  10:34:00       79.414     -264.454      -42.318      182.784      137.682       76.813    33410.103    18956.470     5900.288        6.814        2.913      276.120       72.689        0.069      338.476       11.151      865.331
04/23/2013  10:35:00      158.171     -179.347       19.758      144.356      162.545      112.324    20838.528    26420.788    12616.665        5.871        2.994      239.130      125.624        0.276      338.073       10.475      865.335
04/23/2013  10:36:00       16.581       68.084      141.240       73.211      142.374       87.063     5359.803    20270.270     7579.916        2.903        1.660       70.074       85.889        1.502      338.353       10.944      865.322
04/23/2013  10:37:00       63.361        6.007      135.639      102.365      236.971      115.310    10478.647    56155.421    13296.473        5.117        3.997       63.645      155.705        5.985      338.099       10.518      865.279
04/23/2013  10:38:00       88.062     -146.211       44.907      103.714      159.707       94.241    10756.548    25506.196     8881.379        3.814        2.257      170.683       88.399        0.268      338.290       10.839      865.312
04/23/2013  10:39:00      166.831     -147.666       30.610      134.247      195.367      121.859    18022.332    38168.317    14849.655        6.079        3.552      222.795      122.819        0.304      338.601       11.362      865.245
04/23/2013  10:40:00      102.637      -73.430       76.482       96.450      163.778      103.347     9302.622    26823.269    10680.541        3.428        2.340      126.200       85.657        0.461      338.770       11.644      865.273
04/23/2013  10:41:00      120.648      -76.542       75.662      123.450      212.269      139.354    15239.930    45058.026    19419.661        5.291        3.986      142.880      159.197        1.241      338.585       11.333      865.285
04/23/2013  10:42:00       95.031       34.713      114.920      112.246      147.726       88.850    12599.243    21822.850     7894.269        3.287        2.116      101.172       98.235        0.943      338.613       11.382      865.289
04/23/2013  10:43:00      148.730       60.268      168.479      153.400      202.245      145.642    23531.487    40903.204    21211.699        6.987        4.282      160.477      171.348        1.140      338.497       11.186      865.262
04/23/2013  10:44:00      121.689       57.778      166.337      156.680      232.855      159.129    24548.756    54221.370    25322.105        7.493        5.205      134.709      181.811        1.822      338.464       11.131      865.231
04/23/2013  10:45:00      293.890     -408.402      -62.429      124.353      153.845       79.042    15463.710    23668.255     6247.594       15.121        2.269      503.153       78.773        0.025      337.991       10.336      865.254
04/23/2013  10:46:00      120.238     -177.628       27.554      108.734      192.504       99.890    11823.189    37057.900     9977.955        5.280        2.943      214.497      112.330        0.274      338.332       10.909      865.293
04/23/2013  10:47:00       94.063       12.481       85.680      104.685      178.547      107.962    10958.966    31879.156    11655.841        3.541        2.725       94.887      124.828        1.731      338.653       11.449      865.287
04/23/2013  10:48:00      105.788      -42.633       72.605      116.445      194.713      107.239    13559.347    37913.034    11500.236        4.061        3.149      114.055      134.041        1.381      338.299       10.854      865.280
04/23/2013  10:49:00      151.243      -69.204       80.067      122.469      169.997      108.087    14998.667    28899.057    11682.705        4.482        2.779      166.324      119.926        0.520      338.320       10.889      865.231
04/23/2013  10:50:00      168.341       22.386      106.713      126.590      156.011       90.099    16025.004    24339.281     8117.787        4.434        2.424      169.823      102.722        0.366      338.311       10.873      865.216
04/23/2013  10:51:00       93.893       25.841      111.093      126.758      128.648       90.964    16067.676    16550.380     8274.472        3.135        2.045       97.384       84.635        0.755      338.739       11.593      865.178
04/23/2013  10:52:00      214.801      126.761      176.301      143.559      154.000      125.240    20609.065    23715.987    15685.050        7.664        3.001      249.415      118.064        0.224      338.368       10.969      865.152
04/23/2013  10:53:00      139.399      131.565      148.253      128.787      193.317      119.160    16586.038    37371.364    14199.130        6.342        3.408      191.681      122.026        0.405      338.642       11.429      865.162
04/23/2013  10:54:00       75.414      224.524      289.542      161.814      163.430      111.872    26183.932    26709.225    12515.391       10.266        3.270      236.851      120.113        0.257      338.371       10.975      865.122
04/23/2013  10:55:00      122.836      -11.946       78.044      137.328      115.655       84.793    18858.909    13376.167     7189.931        3.037        1.971      123.415       75.082        0.370      338.687       11.507      865.166
04/23/2013  10:56:00       58.992       18.398      101.166       73.331      111.288       76.415     5377.386    12384.910     5839.220        1.882        1.180       61.794       75.727        1.502      338.994       12.024      865.172
04/23/2013  10:57:00      126.074      126.770      165.696      117.150      123.449       89.039    13724.020    15239.698     7927.870        4.815        1.845      178.788       89.662        0.252      338.793       11.683      865.191
04/23/2013  10:58:00      238.790      254.967      209.184      146.978      123.044      107.469    21602.625    15139.855    11549.620       10.703        2.415      349.326       80.302        0.053      338.256       10.781      865.180
04/23/2013  10:59:00      160.222      -78.128       88.844      161.003      260.061      123.274    25922.009    67631.967    15196.406        7.419        5.438      178.256      160.062        0.806      338.537       11.252      865.161
04/23/2013  11:00:00      219.981     -375.400        2.852      146.792      239.051      122.435    21547.904    57145.335    14990.387       14.148        4.684      435.106      146.219        0.113      338.323       10.894      865.160
04/23/2013  11:01:00      121.612        6.711      120.622      112.315      178.964      101.981    12614.765    32028.072    10400.102        4.220        2.752      121.797      120.118        0.973      338.952       11.951      865.207
04/23/2013  11:02:00      109.453      -44.857       42.099       88.080      154.658       73.082     7758.052    23919.204     5340.989        2.638        1.851      118.288       86.229        0.531      338.926       11.907      865.237
04/23/2013  11:03:00      142.947       -9.497      149.380      195.001      241.501      143.649    38025.369    58322.838    20635.013        7.989        5.849      143.262      175.989        1.509      338.777       11.657      865.156
04/23/2013  11:04:00       90.634       79.859      136.963      120.700      122.090       84.424    14568.529    14905.856     7127.467        3.497        1.830      120.798       78.021        0.417      338.637       11.421      865.197
04/23/2013  11:05:00       48.316       23.964       88.239       86.651      125.699       77.002     7508.474    15800.331     5929.241        1.996        1.462       53.932       80.473        2.226      339.033       12.088      865.216
04/23/2013  11:06:00       45.250       58.708       84.868       81.456       81.036       70.027     6635.050     6566.894     4903.846        1.540        0.905       74.123       55.954        0.570      339.032       12.087      865.204
04/23/2013  11:07:00        2.524      -26.713       55.457       36.068       78.275       41.723     1300.914     6127.049     1740.844        0.648        0.458       26.832       48.019        3.203      339.236       12.431      865.194
04/23/2013  11:08:00       75.937      -32.534       41.582       91.460       81.529       63.488     8364.966     6646.983     4030.725        1.379        0.952       82.613       49.874        0.364      338.754       11.620      865.149
04/23/2013  11:09:00      102.654       87.275      102.864      114.375      104.149       97.508    13081.741    10846.995     9507.760        3.108        1.672      134.740       83.977        0.388      338.376       10.985      865.110
04/23/2013  11:10:00      192.227      -72.751       58.172      146.181      255.913      113.467    21369.007    65491.310    12874.867        7.266        4.987      205.533      150.517        0.536      338.538       11.256      865.078
04/23/2013  11:11:00      151.533       43.588      117.976      142.743      161.188      101.393    20375.439    25981.471    10280.545        4.770        2.832      157.677      110.626        0.492      338.816       11.724      865.050
04/23/2013  11:12:00      146.006        5.954       74.135      150.469      121.172       79.612    22641.002    14682.535     6338.074        3.525        2.183      146.127       60.989        0.174      338.787       11.674      865.050
04/23/2013  11:13:00       36.853      -46.829       82.293       76.391      133.358       88.425     5835.584    17784.386     7819.037        2.087        1.572       59.591       78.363        1.729      339.099       12.199      865.071
04/23/2013  11:14:00      123.396     -209.847       -1.423       95.612       99.721       72.875     9141.730     9944.269     5310.773        4.183        1.220      243.439       65.400        0.072      338.601       11.360      865.094
04/23/2013  11:15:00      146.455     -174.323       -2.619      128.374      142.183       83.525    16479.949    20215.981     6976.473        4.775        2.184      227.678       90.286        0.157      338.921       11.898      865.063
04/23/2013  11:16:00       39.538       -9.168       77.859      100.489      161.948       81.070    10098.062    26227.090     6572.372        2.529        2.145       40.587       88.224        4.725      339.108       12.214      865.083
04/23/2013  11:17:00      162.500     -182.943        2.138      147.799      208.777       91.582    21844.632    43587.734     8387.185        6.683        3.691      244.692      118.296        0.234      338.388       11.005      865.045
04/23/2013  11:18:00      131.704     -132.553       46.388      131.486      189.058       98.287    17288.688    35742.900     9660.412        4.987        3.135      186.859      133.137        0.508      338.699       11.526      865.005
04/23/2013  11:19:00      209.783     -219.305       28.728      133.884      166.576      105.628    17924.951    27747.513    11157.242        7.487        2.841      303.486      108.609        0.128      338.838       11.760      864.938
04/23/2013  11:20:00      135.376      -30.271       89.602      147.825      144.217      104.187    21852.323    20798.536    10854.964        4.038        2.675      138.719       95.693        0.476      338.670       11.478      864.946
04/23/2013  11:21:00      242.236      -22.703       79.603      136.991      214.426      130.888    18766.610    45978.669    17131.685        7.369        4.094      243.298      138.049        0.322      338.712       11.546      864.924
04/23/2013  11:22:00      126.268       79.418       97.764      117.393      130.847       90.326    13781.004    17121.049     8158.699        3.543        1.953      149.167       99.437        0.444      338.824       11.735      864.977
04/23/2013  11:23:00       91.773      -88.178       44.725      112.234      151.639       89.220    12596.379    22994.378     7960.292        3.087        2.178      127.270       71.211        0.313      339.084       12.172      864.980
04/23/2013  11:24:00       42.355      -72.266       48.889       77.283      135.365       71.563     5972.611    18323.807     5121.298        1.941        1.471       83.763       87.969        1.103      339.027       12.078      865.002
04/23/2013  11:25:00       20.019       10.426       64.528       55.713      106.672       65.163     3103.972    11378.961     4246.188        1.170        0.936       22.572       70.286        9.697      339.411       12.726      864.991
04/23/2013  11:26:00       41.011       43.230       92.126      117.097      105.415       73.052    13711.649    11112.232     5336.664        2.109        1.508       59.589       76.135        1.632      339.141       12.269      864.988
04/23/2013  11:27:00      175.338       39.169       79.441      136.448      125.412       95.531    18618.137    15728.059     9126.264        4.102        2.174      179.660       83.849        0.218      338.530       11.242      864.925
04/23/2013  11:28:00      126.829      163.740      157.348      168.547      138.840      113.579    28408.140    19276.454    12900.200        6.411        3.029      207.115      100.615        0.236      338.859       11.795      864.870
04/23/2013  11:29:00      169.811      130.767      212.951      136.148      230.425      121.341    18536.375    53095.676    14723.684        8.880        4.318      214.326      142.427        0.442      338.694       11.516      864.834
04/23/2013  11:30:00      193.473      125.151      147.208      135.813      130.305      102.269    18445.123    16979.396    10459.017        6.031        2.294      230.423       84.521        0.135      339.057       12.127      864.871
04/23/2013  11:31:00      241.821      262.044      233.631      146.906      136.819      112.767    21581.321    18719.569    12716.361       11.736        2.651      356.573       94.399        0.070      338.269       10.803      864.860
04/23/2013  11:32:00      165.311      185.364      175.453      132.045      126.268       90.735    17435.971    15943.585     8232.783        6.703        2.081      248.370       83.320        0.113      338.225       10.729      864.873
04/23/2013  11:33:00      149.710       87.702       78.842      129.191       88.018       89.629    16690.296     7747.115     8033.385        3.439        1.624      173.507       81.115        0.219      338.614       11.383      864.842
04/23/2013  11:34:00       93.296       65.877      115.242       95.030      120.545       70.831     9030.645    14531.103     5016.973        2.745        1.429      114.210       66.585        0.340      339.199       12.367      864.832
04/23/2013  11:35:00      180.364      128.102      100.253      126.192      118.602       93.836    15924.392    14066.512     8805.249        4.889        1.940      221.227       70.235        0.101      339.122       12.238      864.817
04/23/2013  11:36:00      242.088       38.434       65.422      174.089      185.770       96.955    30306.820    34510.494     9400.219        6.928        3.711      245.120       87.367        0.127      338.841       11.763      864.773
04/23/2013  11:37:00      248.510      116.011      136.182      126.019      166.731      106.418    15880.791    27799.272    11324.804        7.437        2.750      274.255       97.190        0.126      338.949       11.944      864.752
04/23/2013  11:38:00      200.941      157.483      129.484      139.451      104.768      101.073    19446.494    10976.289    10215.736        6.128        2.032      255.300       84.739        0.110      338.813       11.716      864.793
04/23/2013  11:39:00      110.195       91.906       57.620      102.719       78.472       63.287    10551.175     6157.849     4005.237        2.231        1.036      143.491       36.249        0.064      339.122       12.238      864.775
04/23/2013  11:40:00       61.554       11.519       69.234       62.903       64.231       45.491     3956.783     4125.600     2069.404        0.943        0.508       62.622       37.898        0.366      339.293       12.528      864.790
04/23/2013  11:41:00       43.050       40.220       74.793       85.042       52.760       41.704     7232.102     2783.661     1739.262        1.041        0.588       58.915       38.627        0.430      339.224       12.411      864.793
04/23/2013  11:42:00        8.613      -23.029       53.108       78.241       86.236       60.409     6121.708     7436.638     3649.237        1.031        0.860       24.587       57.270        5.425      339.506       12.888      864.781
04/23/2013  11:43:00      152.520     -129.392        1.617      141.966      130.532       55.220    20154.453    17038.698     3049.217        4.012        2.012      200.011       84.749        0.180      339.144       12.275      864.783
04/23/2013  11:44:00       50.491       81.281      144.635       62.136       86.058       59.020     3860.941     7405.934     3483.385        2.241        0.738       95.687       53.330        0.311      339.519       12.907      864.776
04/23/2013  11:45:00      127.576      169.357      161.387      113.369      117.068      120.110    12852.564    13704.861    14426.331        5.598        2.049      212.032       92.498        0.190      339.002       12.034      864.782
04/23/2013  11:46:00      326.234      215.444       47.448      149.708      117.174      102.098    22412.527    13729.770    10423.911       10.082        2.328      390.954       73.156        0.035      338.924       11.903      864.753
04/23/2013  11:47:00      271.501      222.382      194.151      166.951      150.164      146.607    27872.527    22549.322    21493.656       11.637        3.596      350.951      113.384        0.104      338.923       11.902      864.725
04/23/2013  11:48:00      390.491      177.697       78.892      203.635      172.347      151.594    41467.314    29703.573    22980.676       14.220        4.708      429.022      129.159        0.091      338.425       11.065      864.713
04/23/2013  11:49:00       99.262      170.032      206.463       97.113      115.460       78.079     9430.867    13331.061     6096.358        5.512        1.443      196.886       70.017        0.126      339.013       12.054      864.714
04/23/2013  11:50:00      198.402      169.771      110.747      161.735       85.852       86.483    26158.087     7370.587     7479.310        6.072        2.050      261.124       67.898        0.068      339.205       12.376      864.699
04/23/2013  11:51:00      176.646      134.920      111.934      150.828      144.782      126.103    22749.053    20961.958    15901.915        6.076        2.981      222.277      115.344        0.269      339.218       12.399      864.688
04/23/2013  11:52:00      162.871      147.366      124.264      161.910      111.241       97.539    26214.966    12374.504     9513.785        5.588        2.405      219.645       77.034        0.123      339.327       12.582      864.682
04/23/2013  11:53:00      160.681      162.003      150.823      104.649      105.034       97.767    10951.379    11032.202     9558.358        5.317        1.577      228.174       71.105        0.097      339.037       12.094      864.700
04/23/2013  11:54:00       88.388       31.922       62.317      136.117       88.763       58.492    18527.865     7878.806     3421.271        2.127        1.491       93.976       50.166        0.285      338.911       11.885      864.694
04/23/2013  11:55:00      185.998      115.625       48.643      110.649       77.850       64.036    12243.239     6060.612     4100.576        3.636        1.120      219.008       33.827        0.024      338.914       11.888      864.665
04/23/2013  11:56:00      188.962      112.756       80.430      144.629      115.235      119.649    20917.546    13279.080    14315.885        5.169        2.426      220.046      111.735        0.258      339.081       12.167      864.592
04/23/2013  11:57:00      202.160      125.967       76.184      189.579      111.157       82.249    35940.289    12355.827     6764.873        5.879        2.753      238.194       63.132        0.070      339.288       12.516      864.539
04/23/2013  11:58:00      228.932      133.664      120.531      158.516      120.741      101.728    25127.265    14578.453    10348.635        6.742        2.503      265.097       77.483        0.085      339.363       12.643      864.466
04/23/2013  11:59:00      146.220        1.212      103.102      170.244      117.580       79.888    28982.883    13824.981     6382.072        4.059        2.459      146.225       81.291        0.309      339.716       13.239      864.433
04/23/2013  12:00:00      181.455       36.445      120.969      174.249      195.628      121.025    30362.607    38270.221    14646.962        6.607        4.164      185.079      139.960        0.572      339.518       12.904      864.411
04/23/2013  12:01:00      153.932      -16.488       61.181      146.232      165.161       86.279    21383.730    27278.295     7443.994        4.190        2.805      154.812       88.167        0.324      339.637       13.104      864.352
04/23/2013  12:02:00      209.703      176.435      208.897      146.799      144.535      106.392    21549.867    20890.251    11319.196        8.624        2.688      274.052      103.259        0.142      339.142       12.269      864.326
04/23/2013  12:03:00      225.741      221.183      173.193      132.627      154.802      139.876    17589.847    23963.558    19565.376        9.549        3.056      316.039      114.915        0.132      339.059       12.130      864.271
04/23/2013  12:04:00      197.562      284.192      271.274      203.494      137.924      126.874    41409.840    19022.933    16097.035       13.494        3.826      346.116      138.469        0.160      339.043       12.103      864.244
04/23/2013  12:05:00      164.403       88.763      101.849      180.997      148.816      105.672    32759.836    22146.247    11166.667        5.566        3.304      186.834       97.254        0.271      339.397       12.700      864.253
04/23/2013  12:06:00      132.241      195.452      165.240      135.632       99.842       80.874    18395.986     9968.469     6540.528        5.894        1.745      235.986       67.537        0.082      338.977       11.992      864.206
04/23/2013  12:07:00       98.464      -61.218       21.921      113.531      135.796       75.205    12889.218    18440.660     5655.735        2.545        1.849      115.943       85.554        0.544      339.349       12.620      864.165
04/23/2013  12:08:00      117.428      -56.576       40.530       99.002      209.783      108.224     9801.420    44008.723    11712.357        4.206        3.276      130.346      123.764        0.902      339.666       13.154      864.114
04/23/2013  12:09:00      238.909      197.083      157.549      179.497      152.421      131.556    32219.109    23232.202    17307.107        9.673        3.638      309.708      108.499        0.123      339.394       12.694      864.075
04/23/2013  12:10:00      150.450      122.054      103.328      149.473      117.464       94.998    22342.294    13797.685     9024.655        4.668        2.258      193.732       71.451        0.136      339.698       13.208      864.050
04/23/2013  12:11:00      280.663      138.597       85.671      189.286      110.975       97.418    35829.229    12315.514     9490.279        8.147        2.882      313.019       94.642        0.091      339.208       12.382      864.019
04/23/2013  12:12:00      196.658      141.571      115.213      144.027      134.126      114.968    20743.802    17989.869    13217.672        6.196        2.598      242.315       96.553        0.159      339.186       12.345      864.020
04/23/2013  12:13:00      167.848      172.462      193.455      172.504      120.119      104.993    29757.643    14428.479    11023.482        7.526        2.760      240.657      109.914        0.209      339.342       12.607      864.027
04/23/2013  12:14:00      129.511       41.052      131.769      117.308      225.701      134.883    13761.225    50941.016    18193.387        5.934        4.145      135.862      145.462        1.146      339.611       13.060      864.031
04/23/2013  12:15:00      184.827      135.955      106.708      128.391       90.081      103.420    16484.315     8114.616    10695.796        4.966        1.765      229.445       77.867        0.115      339.511       12.892      864.008
04/23/2013  12:16:00      234.848      159.779       60.332      167.724      120.499      113.447    28131.305    14519.925    12870.264        6.991        2.776      284.048       75.925        0.071      339.309       12.552      863.986
04/23/2013  12:17:00      256.572       56.711       59.971      180.031      142.675      107.352    32411.182    20356.085    11524.349        6.845        3.215      262.765       93.632        0.127      339.466       12.816      863.993
04/23/2013  12:18:00      130.637       83.414      132.713      142.214      146.122       94.116    20224.831    21351.597     8857.797        4.602        2.522      154.996       67.256        0.188      339.450       12.789      863.960
04/23/2013  12:19:00      184.737      143.059      101.025      171.689      127.858      107.833    29477.069    16347.661    11628.059        6.111        2.873      233.653       89.514        0.147      339.546       12.950      863.903
04/23/2013  12:20:00      305.608      175.221       23.265      143.191      111.279       84.895    20503.606    12383.009     7207.106        8.236        2.005      352.277       52.351        0.022      339.027       12.078      863.885
04/23/2013  12:21:00      224.062      141.843       50.846      119.870       94.968       68.670    14368.714     9018.899     4715.533        5.050        1.405      265.186       35.124        0.018      339.053       12.119      863.865
04/23/2013  12:22:00      169.708      136.254       89.111       88.987       81.776       71.181     7918.635     6687.349     5066.774        3.749        0.984      217.637       23.218        0.011      339.499       12.871      863.844
04/23/2013  12:23:00      122.343       83.808      120.748       95.467      139.396      115.681     9113.980    19431.226    13382.049        3.924        2.096      148.296      114.434        0.595      339.411       12.724      863.815
04/23/2013  12:24:00      178.669      240.621      182.700      134.290       93.807      104.000    18033.745     8799.741    10816.076        8.042        1.882      299.701       92.443        0.095      339.217       12.395      863.801
04/23/2013  12:25:00      138.414       79.541      115.760      123.356      159.899       91.678    15216.583    25567.826     8404.778        4.403        2.459      159.641       93.735        0.345      339.822       13.416      863.788
04/23/2013  12:26:00      110.633      121.795      112.819      135.871      114.521       86.596    18461.010    13114.972     7498.815        3.943        1.954      164.541       61.653        0.140      340.157       13.982      863.787
04/23/2013  12:27:00      109.476      -47.564       83.203      108.839      174.672       97.532    11845.861    30510.358     9512.505        3.651        2.593      119.362      105.405        0.780      340.165       13.994      863.805
04/23/2013  12:28:00      181.100     -161.977      -12.668       88.501      123.121       86.570     7832.489    15158.867     7494.367        4.483        1.524      242.969       83.834        0.119      339.555       12.967      863.785
04/23/2013  12:29:00      135.740     -236.438      -30.141      111.700      120.044       70.591    12476.957    14410.590     4983.116        5.355        1.594      272.632       81.192        0.089      339.364       12.645      863.731
04/23/2013  12:30:00      164.471      169.910      148.479      161.863      104.929      100.717    26199.625    11010.026    10143.965        6.265        2.368      236.474       99.220        0.176      339.521       12.907      863.724
04/23/2013  12:31:00      199.073      121.445      110.483      135.360      102.672       87.402    18322.378    10541.570     7639.144        5.154        1.825      233.193       81.817        0.123      339.603       13.048      863.673
04/23/2013  12:32:00      173.701      120.313       26.000      127.832      104.114      101.501    16341.004    10839.628    10302.479        4.140        1.874      211.299       73.342        0.120      339.448       12.786      863.633
04/23/2013  12:33:00      138.028      109.489       34.132      112.504       75.149       58.518    12657.129     5647.444     3424.306        2.696        1.086      176.180       38.787        0.048      339.393       12.694      863.585
04/23/2013  12:34:00       92.565       21.153       31.982       81.630       66.179       43.907     6663.481     4379.659     1927.806        1.150        0.649       94.951       45.386        0.228      339.705       13.220      863.582
04/23/2013  12:35:00       92.200     -175.377      -22.484       86.986      124.392       75.284     7566.520    15473.274     5667.717        3.423        1.435      198.136       57.889        0.085      339.545       12.950      863.567
04/23/2013  12:36:00      200.481      115.817       94.879      118.337      150.436      111.169    14003.715    22631.093    12358.606        5.579        2.450      231.530       88.913        0.147      339.553       12.962      863.551
04/23/2013  12:37:00      141.957      127.558      100.947      163.354      112.866       86.045    26684.396    12738.720     7403.750        4.671        2.341      190.848       79.059        0.172      339.841       13.449      863.508
04/23/2013  12:38:00      374.468      136.175       32.590      208.872      163.188      130.280    43627.539    26630.442    16972.803       12.351        4.362      398.460       88.896        0.050      339.382       12.675      863.488
04/23/2013  12:39:00      258.190      165.955       97.639      163.971      157.528      115.093    26886.566    24815.056    13246.303        8.433        3.247      306.926       91.026        0.088      339.570       12.991      863.461
04/23/2013  12:40:00      284.050      202.652      104.740      180.905      120.244      114.319    32726.700    14458.519    13068.860        9.648        3.013      348.930       83.734        0.058      339.693       13.198      863.453
04/23/2013  12:41:00      209.836      144.017       90.889      132.001       86.882       93.061    17424.363     7548.437     8660.292        5.333        1.682      254.503       63.963        0.063      339.735       13.268      863.472
04/23/2013  12:42:00      218.966      172.018      180.500      174.727      173.201      140.150    30529.381    29998.714    19642.018        9.513        4.009      278.454      120.562        0.187      339.568       12.988      863.444
04/23/2013  12:43:00      296.414      148.378      139.655      203.029      147.163      125.609    41220.848    21656.888    15777.606       10.400        3.933      331.477      103.459        0.097      339.532       12.927      863.440
04/23/2013  12:44:00      287.416      188.110      102.579      170.654      124.030      109.251    29122.787    15383.526    11935.680        9.247        2.822      343.501       91.415        0.071      339.687       13.187      863.447
04/23/2013  12:45:00      279.326      179.583       99.794      136.903      111.083      108.741    18742.308    12339.463    11824.678        8.156        2.145      332.074       74.221        0.050      339.543       12.946      863.473
04/23/2013  12:46:00      256.901      132.602      116.446      143.424      107.052       81.776    20570.505    11460.081     6687.304        6.792        1.936      289.104       73.135        0.064      339.474       12.829      863.493
04/23/2013  12:47:00      168.693       92.385       60.838       96.188       68.576       64.501     9252.192     4702.627     4160.413        2.940        0.906      192.334       41.669        0.047      339.413       12.727      863.499
04/23/2013  12:48:00       70.063      109.219       -1.088       81.402       73.160       57.406     6626.354     5352.341     3295.468        1.605        0.764      129.760       44.061        0.115      339.356       12.633      863.430
04/23/2013  12:49:00      214.018       93.862      100.093      164.321      100.433       79.782    27001.303    10086.830     6365.228        5.403        2.173      233.696       65.098        0.078      339.730       13.261      863.409
04/23/2013  12:50:00       75.746       75.292       14.094       95.461      130.434       63.113     9112.777    17013.155     3983.198        2.085        1.505      106.800       58.348        0.298      339.704       13.219      863.384
04/23/2013  12:51:00      208.664      113.286       34.757      104.592       77.182       65.456    10939.554     5957.096     4284.447        3.938        1.059      237.433       41.440        0.030      339.637       13.105      863.355
04/23/2013  12:52:00      148.723       71.913       66.750      111.044       92.925       73.881    12330.738     8635.084     5458.441        2.908        1.321      165.197       60.807        0.135      339.721       13.246      863.336
04/23/2013  12:53:00      224.266      148.160       84.331      136.310       86.699       85.138    18580.348     7516.783     7248.426        5.635        1.667      268.787       71.240        0.070      340.166       13.995      863.334
04/23/2013  12:54:00      338.998      228.842       49.494      141.053      104.711       76.240    19896.003    10964.381     5812.573       10.320        1.834      409.009       38.306        0.009      339.548       12.954      863.337
04/23/2013  12:55:00      200.610       81.129       56.696      124.768       92.100       71.340    15567.129     8482.484     5089.443        3.958        1.457      216.394       63.536        0.086      339.970       13.666      863.295
04/23/2013  12:56:00      173.299      117.492       58.203       90.770       95.201       76.777     8239.282     9063.314     5894.752        3.521        1.160      209.373       59.507        0.081      339.913       13.569      863.259
04/23/2013  12:57:00      244.947      151.664       74.085      137.973       90.320       87.419    19036.412     8157.791     7642.091        6.166        1.742      288.099       56.080        0.038      340.205       14.062      863.252
04/23/2013  12:58:00      254.065      106.431       96.616      201.197      135.188       85.444    40480.325    18275.874     7300.689        7.562        3.303      275.457       64.497        0.055      340.013       13.738      863.250
04/23/2013  12:59:00      151.381       76.359       52.344      130.858       82.898       85.798    17123.929     6872.156     7361.296        3.142        1.568      169.549       29.529        0.030      340.063       13.823      863.251
04/23/2013  13:00:00      113.868       88.495      122.531      120.236       98.223       81.585    14456.640     9647.818     6656.159        3.328        1.538      144.213       71.030        0.243      340.011       13.736      863.245
04/23/2013  13:01:00       39.796       77.591       63.643      125.437       88.087       81.694    15734.519     7759.261     6673.966        2.090        1.508       87.202       74.669        0.733      339.946       13.626      863.253
04/23/2013  13:02:00       70.400       85.005       25.154       57.861       61.341       48.178     3347.885     3762.692     2321.165        1.112        0.472      110.372       36.992        0.112      339.439       12.775      863.262
04/23/2013  13:03:00       72.418       37.318       40.444       55.587       50.451       37.816     3089.956     2545.297     1430.025        0.767        0.353       81.468       32.948        0.164      339.788       13.361      863.239
04/23/2013  13:04:00      210.999      166.273      107.099      119.886       91.894      102.625    14372.634     8444.483    10531.971        5.849        1.667      268.640       70.589        0.069      339.760       13.310      863.185
04/23/2013  13:05:00      152.809      161.645      143.322      156.347      119.539      115.583    24444.297    14289.660    13359.426        6.105        2.605      222.440       93.025        0.175      339.850       13.463      863.144
04/23/2013  13:06:00      250.528      166.178       32.764      114.952       89.000       76.094    13213.914     7921.023     5790.367        5.918        1.346      300.632       25.737        0.007      339.821       13.414      863.160
04/23/2013  13:07:00      176.348       92.114       21.562      112.133       77.420       56.404    12573.788     5993.806     3181.414        3.089        1.087      198.956       39.023        0.038      339.532       12.928      863.154
04/23/2013  13:08:00      182.415      144.679       96.319      154.481      104.992       84.945    23864.317    11023.300     7215.645        5.279        2.105      232.825       85.654        0.135      340.057       13.812      863.120
04/23/2013  13:09:00       98.518       -3.492       80.785      106.924      102.555       73.774    11432.765    10517.486     5442.547        2.181        1.370       98.579       67.638        0.471      340.312       14.245      863.110
04/23/2013  13:10:00       87.013       60.215      128.123      156.230      160.783      105.845    24407.945    25851.227    11203.082        4.452        3.073      105.817       98.469        0.866      340.269       14.171      863.072
04/23/2013  13:11:00      189.074     -162.657       51.703      138.416      263.642      139.455    19159.105    69507.190    19447.724        8.647        5.406      249.412      174.775        0.491      340.143       13.957      863.067
04/23/2013  13:12:00      131.045      -50.503       50.270      133.004      174.766      111.131    17690.087    30543.014    12350.052        4.140        3.029      140.440      111.145        0.626      339.958       13.644      863.092
04/23/2013  13:13:00       55.935     -133.276       10.811       67.021       74.446       49.672     4491.823     5542.256     2467.295        1.675        0.625      144.538       44.229        0.094      340.378       14.356      863.069
04/23/2013  13:14:00      217.773     -276.041      -25.713      119.979      152.908       66.961    14394.951    23380.985     4483.714        8.326        2.113      351.601       91.148        0.067      339.615       13.066      863.062
04/23/2013  13:15:00       25.674       69.582       96.862       54.424       97.265       82.099     2962.015     9460.439     6740.198        1.702        0.958       74.167       83.842        1.278      339.926       13.595      863.057
04/23/2013  13:16:00       24.228      -38.195       40.746       44.089       88.097       54.045     1943.840     7761.053     2920.811        0.816        0.631       45.231       65.189        2.077      340.298       14.222      863.042
04/23/2013  13:17:00      140.722      221.856      189.389      163.401      120.498      113.853    26699.734    14519.798    12962.510        7.953        2.709      262.722       98.002        0.139      339.879       13.512      863.040
04/23/2013  13:18:00       78.461       47.511       91.603      129.660       88.624       75.711    16811.765     7854.149     5732.131        2.360        1.520       91.725       70.268        0.587      340.494       14.551      863.029
04/23/2013  13:19:00       88.339      109.420      139.826      105.259       84.124       68.288    11079.504     7076.897     4663.257        3.107        1.141      140.628       51.775        0.136      340.269       14.171      863.015
04/23/2013  13:20:00      195.099       71.000       19.663      130.847       95.425       93.738    17120.907     9105.858     8786.750        3.925        1.751      207.617       48.647        0.055      340.177       14.016      862.997
04/23/2013  13:21:00      160.982       91.176       46.968       95.279       64.960       58.938     9077.996     4219.756     3473.738        2.660        0.839      185.009       30.806        0.028      340.135       13.946      862.999
04/23/2013  13:22:00       59.292       18.018       57.511       92.197       97.328       69.037     8500.354     9472.786     4766.143        1.494        1.137       61.969       63.174        1.039      340.555       14.656      862.953
04/23/2013  13:23:00      129.411      134.099       99.108       99.875       72.309       76.888     9975.037     5228.584     5911.807        3.283        1.056      186.359       37.513        0.041      340.067       13.829      862.901
04/23/2013  13:24:00       40.678       45.432       79.008       57.863       66.584       48.391     3348.150     4433.458     2341.674        1.004        0.506       60.981       26.378        0.187      340.403       14.399      862.816
04/23/2013  13:25:00      139.913       84.157       26.892       93.920       71.828       52.049     8820.967     5159.213     2709.103        2.203        0.834      163.273       27.311        0.028      339.856       13.474      862.749
04/23/2013  13:26:00      145.706      121.963      -12.231       80.854       72.879       54.436     6537.382     5311.368     2963.306        2.553        0.741      190.013       23.374        0.015      339.776       13.338      862.728
04/23/2013  13:27:00       27.182      138.380      -22.638       37.252       70.770       34.347     1387.737     5008.348     1179.733        1.399        0.379      141.024       18.835        0.018      339.488       12.854      862.740
04/23/2013  13:28:00       11.455        3.117       12.419       28.598       35.684       27.014      817.837     1273.316      729.782        0.156        0.141       11.871       14.278        1.447      339.985       13.695      862.753
04/23/2013  13:29:00      139.266       81.598       54.064      151.388       71.386       72.185    22918.312     5095.942     5210.610        3.109        1.661      161.410       47.606        0.087      340.004       13.725      862.766
04/23/2013  13:30:00      180.096      192.100      125.678      121.134      100.332      107.238    14673.506    10066.464    11499.892        6.068        1.812      263.319       83.941        0.102      339.718       13.240      862.753
04/23/2013  13:31:00      105.866       71.802       41.243      105.661       93.159       65.169    11164.158     8678.573     4247.016        2.107        1.204      127.919       59.943        0.220      339.750       13.296      862.735
04/23/2013  13:32:00       51.646      119.546      140.386       72.368       80.182       63.159     5237.139     6429.232     3989.111        2.616        0.783      130.225       63.078        0.235      339.725       13.253      862.716
04/23/2013  13:33:00       36.962      -80.094        8.686       53.780       87.807       41.041     2892.297     7709.984     1684.333        1.007        0.614       88.211       46.191        0.274      339.658       13.141      862.673
04/23/2013  13:34:00       81.936     -109.790       26.543       93.841      100.255       56.164     8806.183    10051.042     3154.398        2.074        1.101      136.994       67.678        0.244      340.124       13.928      862.599
04/23/2013  13:35:00      142.162      -17.426       -3.178      101.021      163.564       49.137    10205.172    26753.258     2414.491        2.994        1.969      143.226       47.512        0.110      340.193       14.041      862.573
04/23/2013  13:36:00       73.275      140.201       -3.691       68.823      102.477       62.749     4736.620    10501.479     3937.431        2.210        0.959      158.195       65.556        0.172      340.011       13.736      862.579
04/23/2013  13:37:00       69.646       88.693      -12.941       61.436       68.284       39.574     3774.396     4662.746     1566.081        1.144        0.500      112.770       34.275        0.092      339.855       13.474      862.524
04/23/2013  13:38:00      107.709       62.759        9.686      103.602       71.720       51.793    10733.426     5143.720     2682.514        1.709        0.928      124.660       39.940        0.103      340.137       13.948      862.497
04/23/2013  13:39:00       89.418      105.165       20.569      111.000       73.021       54.213    12321.063     5332.051     2939.018        2.003        1.030      138.041       39.920        0.084      340.398       14.389      862.459
04/23/2013  13:40:00       97.970      186.212      152.828      129.052       89.403      102.659    16654.506     7992.880    10538.823        5.140        1.759      210.411       96.301        0.209      340.494       14.549      862.417
04/23/2013  13:41:00      201.335      118.172       91.189      102.952       89.209       84.562    10599.059     7958.203     7150.696        4.426        1.285      233.453       50.097        0.046      340.318       14.254      862.406
04/23/2013  13:42:00      173.527       94.754       14.692       80.637       68.655       50.897     6502.275     4713.451     2590.540        2.655        0.690      197.712       37.776        0.037      339.934       13.605      862.372
04/23/2013  13:43:00       88.422      -18.437       10.716       59.671       38.091       42.732     3560.569     1450.952     1825.986        0.755        0.342       90.324       21.839        0.058      339.854       13.472      862.323
04/23/2013  13:44:00       67.025       -7.082       27.212       45.232       36.533       28.344     2045.932     1334.642      803.378        0.473        0.209       67.398       25.308        0.141      340.129       13.938      862.307
04/23/2013  13:45:00       63.122       34.614       17.745       65.086       48.554       47.669     4236.171     2357.511     2272.306        0.718        0.443       71.989       26.475        0.135      340.359       14.326      862.274
04/23/2013  13:46:00       72.732       51.029       39.572       50.771       40.899       40.465     2577.659     1672.710     1637.431        0.767        0.294       88.848       19.717        0.049      340.305       14.234      862.242
04/23/2013  13:47:00       22.437        8.152       25.480       83.744       63.729       39.098     7013.127     4061.437     1528.646        0.691        0.630       23.872       32.059        1.804      340.731       14.954      862.197
04/23/2013  13:48:00       36.974       65.029       64.269       64.549       56.719       59.294     4166.532     3217.073     3515.722        1.031        0.545       74.806       44.562        0.355      340.896       15.234      862.123
04/23/2013  13:49:00       35.719       28.521       63.339       53.416       80.631       49.516     2853.281     6501.368     2451.817        0.895        0.590       45.709       47.446        1.077      340.737       14.964      862.088
04/23/2013  13:50:00        4.434       74.458       88.560       66.378       58.117       57.971     4406.047     3377.623     3360.675        1.227        0.557       74.590       35.040        0.221      341.010       15.427      862.052
04/23/2013  13:51:00      206.253      164.328       72.288      162.254       94.944      102.400    26326.310     9014.443    10485.781        6.029        2.291      263.712       42.939        0.027      340.657       14.827      862.055
04/23/2013  13:52:00      193.669       82.619       81.242      168.932      113.415       87.786    28537.885    12862.892     7706.463        5.001        2.455      210.555       88.243        0.176      340.364       14.330      862.075
04/23/2013  13:53:00      154.451        0.654       67.610       93.055      117.847       76.238     8659.233    13887.917     5812.289        2.839        1.418      154.452       78.119        0.256      340.683       14.871      862.059
04/23/2013  13:54:00      214.573      108.875       77.059      138.261      103.153       83.533    19116.038    10640.565     6977.693        5.028        1.837      240.614       73.184        0.093      340.492       14.546      862.069
04/23/2013  13:55:00      141.697      146.428      149.869      110.456       89.047       89.062    12200.564     7929.414     7931.981        4.602        1.403      203.762       63.915        0.098      340.572       14.679      862.084
04/23/2013  13:56:00      191.938      133.130       99.733      123.364      102.182      104.921    15218.567    10441.125    11008.397        5.058        1.833      233.589       72.797        0.097      340.208       14.066      862.090
04/23/2013  13:57:00      106.114      178.803      190.964      114.054       96.117       89.157    13008.205     9238.423     7949.016        5.494        1.510      207.920       88.391        0.181      340.106       13.894      862.057
04/23/2013  13:58:00        8.330       36.378       86.848       56.034      107.372       79.794     3139.817    11528.730     6367.143        1.498        1.052       37.319       76.698        4.224      340.358       14.323      862.018
04/23/2013  13:59:00       77.722       53.404       -3.367      124.652      114.548       62.130    15538.243    13121.203     3860.164        2.071        1.626       94.301       38.665        0.168      340.495       14.554      861.967
04/23/2013  14:00:00      213.418      160.901        6.033      114.098       97.801       87.829    13018.322     9565.068     7713.852        5.088        1.515      267.276       64.695        0.059      340.208       14.065      861.903
04/23/2013  14:01:00      198.929       96.400       28.104       91.687       94.314       69.118     8406.526     8895.191     4777.362        3.586        1.104      221.056       31.572        0.020      340.511       14.579      861.879
04/23/2013  14:02:00      108.805       83.104       65.560      111.325       79.276       69.772    12393.145     6284.703     4868.168        2.329        1.177      136.912       51.495        0.141      340.720       14.935      861.850
04/23/2013  14:03:00      138.689      225.802      193.924      104.876       96.633       85.620    10998.942     9337.939     7330.740        6.774        1.383      264.992       71.142        0.072      340.330       14.272      861.835
04/23/2013  14:04:00      252.507      160.131       78.515      126.149      112.068      118.505    15913.504    12559.233    14043.540        6.903        2.126      299.002       91.650        0.094      340.201       14.054      861.829
04/23/2013  14:05:00       73.736       68.656       14.801       85.812       53.424       46.344     7363.650     2854.092     2147.737        1.137        0.618      100.750       48.591        0.233      340.132       13.941      861.822
04/23/2013  14:06:00      -23.762       59.353      -30.068       65.766       39.904       25.593     4325.146     1592.321      654.979        0.578        0.329       63.933       24.035        0.141      340.250       14.142      861.766
04/23/2013  14:07:00       21.916       33.124       10.741       55.799       43.446       35.655     3113.504     1887.566     1271.283        0.398        0.314       39.718       21.755        0.300      340.737       14.962      861.770
04/23/2013  14:08:00       47.932       61.609       -2.251       51.165       46.090       39.817     2617.885     2124.324     1585.433        0.621        0.316       78.059       32.128        0.169      340.973       15.363      861.784
04/23/2013  14:09:00       82.408      107.086        7.467      106.564       75.756       63.940    11355.845     5738.960     4088.354        1.974        1.059      135.124       46.387        0.118      341.300       15.915      861.782
04/23/2013  14:10:00       45.206       66.703       46.693       79.611       53.209       50.957     6337.843     2831.235     2596.640        1.022        0.588       80.579       43.088        0.286      341.624       16.465      861.818
04/23/2013  14:11:00       82.753       47.299       36.170       87.706       88.191       65.524     7692.348     7777.680     4293.405        1.507        0.988       95.317       53.362        0.313      341.187       15.726      861.867
04/23/2013  14:12:00      195.326       95.593       99.512      160.340       95.258       87.218    25708.871     9074.139     7606.949        4.978        2.119      217.463       83.124        0.146      341.082       15.545      861.861
04/23/2013  14:13:00      172.102      112.891      115.135      159.340      107.445       89.297    25389.301    11544.439     7973.924        5.025        2.245      205.824       81.364        0.156      340.893       15.226      861.840
04/23/2013  14:14:00      241.168       97.646       65.118      180.013      105.555       82.029    32404.727    11141.868     6728.821        6.110        2.514      260.186       81.410        0.098      340.470       14.509      861.832
04/23/2013  14:15:00       78.047      101.782      107.387      127.383      105.612      111.105    16226.537    11153.902    12344.334        3.385        1.986      128.261       90.254        0.495      340.708       14.913      861.801
04/23/2013  14:16:00      173.501      155.751      178.114      127.685      115.677       97.395    16303.336    13381.274     9485.868        6.262        1.959      233.155       89.918        0.149      340.387       14.369      861.800
04/23/2013  14:17:00       80.970       73.120      120.029       88.378       96.711       80.696     7810.739     9353.002     6511.851        2.499        1.184      109.100       71.816        0.433      340.600       14.731      861.816
04/23/2013  14:18:00      111.919      121.953      121.030      113.462      135.302       97.999    12873.569    18306.674     9603.814        4.141        2.039      165.524       80.702        0.238      340.972       15.359      861.804
04/23/2013  14:19:00      192.710      180.018      137.511      163.046       95.577       92.779    26583.843     9134.932     8608.030        6.638        2.216      263.711      101.001        0.147      340.510       14.577      861.830
04/23/2013  14:20:00      172.881      119.358       74.684      115.296       86.505       88.878    13293.068     7483.076     7899.220        3.919        1.434      210.081       65.321        0.097      340.226       14.098      861.860
04/23/2013  14:21:00      168.326      112.413       54.971       82.833       73.548       61.708     6861.277     5409.292     3807.914        3.003        0.804      202.411       45.118        0.050      340.412       14.410      861.864
04/23/2013  14:22:00      154.563      116.069        6.048       70.263       44.075       38.245     4936.864     1942.575     1462.678        2.287        0.417      193.292       12.113        0.004      340.301       14.224      861.857
04/23/2013  14:23:00      -10.576       57.388      -14.443       39.673       27.514       21.550     1573.972      757.018      464.414        0.320        0.140       58.354       17.854        0.094      340.450       14.478      861.814
04/23/2013  14:24:00       27.044       59.058       64.639       70.658       47.000       31.799     4992.547     2209.016     1011.163        0.830        0.411       64.956       23.989        0.136      341.009       15.425      861.779
04/23/2013  14:25:00      -40.469     -122.093       12.427       85.272      115.817       45.179     7271.359    13413.502     2041.123        1.971        1.136      128.625       53.748        0.175      340.918       15.268      861.752
04/23/2013  14:26:00     -158.274      -59.325      -12.634       90.873       63.038       43.078     8257.835     3973.829     1855.684        2.141        0.704      169.027       46.122        0.074      340.542       14.633      861.733
04/23/2013  14:27:00     -110.757      -38.038       20.799      104.425      103.195       46.449    10904.669    10649.201     2157.502        1.892        1.186      117.107       56.006        0.229      341.105       15.586      861.700
04/23/2013  14:28:00     -128.662     -124.453      -10.961       72.477       65.828       41.613     5252.973     4333.385     1731.673        2.174        0.566      179.004       37.126        0.043      340.890       15.221      861.708
04/23/2013  14:29:00     -166.208     -114.166      -12.670       69.019       51.612       38.919     4763.637     2663.824     1514.706        2.488        0.447      201.641       39.082        0.038      340.614       14.754      861.724
04/23/2013  14:30:00      -46.487       -7.678       17.022       52.933       24.227       31.239     2801.941      586.956      975.848        0.344        0.218       47.117       33.842        0.516      340.944       15.316      861.718
04/23/2013  14:31:00       -5.445       24.189        0.829       35.407       30.866       40.235     1253.682      952.727     1618.838        0.222        0.191       24.795       18.012        0.528      341.132       15.635      861.708
04/23/2013  14:32:00       53.236       45.789       10.838       74.307       42.268       38.686     5521.560     1786.601     1496.604        0.692        0.440       70.219       17.038        0.059      341.313       15.939      861.692
04/23/2013  14:33:00       60.341       39.468       35.407       66.021       63.797       54.165     4358.755     4070.030     2933.810        0.891        0.568       72.102       42.788        0.352      341.106       15.588      861.676
04/23/2013  14:34:00       49.316       41.844       83.341       79.026      136.592       81.779     6245.065    18657.265     6687.773        2.135        1.580       64.676       90.874        1.974      340.856       15.164      861.644
04/23/2013  14:35:00       93.577       68.673       54.954      108.876       62.488       42.999    11853.952     3904.696     1848.871        1.705        0.880      116.071       28.531        0.060      340.841       15.139      861.632
04/23/2013  14:36:00       60.326       68.566       97.042       84.097       87.055       68.261     7072.272     7578.486     4659.558        1.853        0.966       91.326       65.416        0.513      341.177       15.708      861.602
04/23/2013  14:37:00       67.149      113.088      115.659       78.569       61.789       60.695     6173.137     3817.926     3683.880        2.217        0.684      131.521       48.492        0.136      340.731       14.953      861.579
04/23/2013  14:38:00        3.009       19.589       64.985       53.153       85.856       44.124     2825.242     7371.189     1946.900        0.838        0.607       19.819       42.919        4.690      341.371       16.036      861.553
04/23/2013  14:39:00       56.740      -65.474       48.823       89.294      141.747       87.395     7973.330    20092.070     7637.896        2.279        1.785       86.639       88.414        1.041      341.373       16.040      861.549
04/23/2013  14:40:00       93.501       59.300       97.922      118.798       88.794       66.892    14112.956     7884.330     4474.569        2.415        1.324      110.720       65.844        0.354      341.059       15.507      861.571
04/23/2013  14:41:00      100.372      -77.305       17.660       71.325       97.745       55.703     5087.189     9554.135     3102.830        1.705        0.887      126.691       62.743        0.245      340.849       15.151      861.562
04/23/2013  14:42:00       27.279      -25.900       55.703       78.993      107.097       81.974     6239.845    11469.745     6719.695        1.447        1.221       37.616       75.379        4.016      341.338       15.980      861.543
04/23/2013  14:43:00       95.645     -101.291        4.530       60.539       97.045       65.040     3664.922     9417.692     4230.219        1.837        0.866      139.312       40.453        0.084      340.729       14.950      861.549
04/23/2013  14:44:00      -29.682       66.342      -15.782       40.804       62.593       20.971     1664.928     3917.914      439.793        0.578        0.301       72.680       11.339        0.024      340.633       14.787      861.523
04/23/2013  14:45:00       50.040       59.739        6.528       62.839       54.373       27.032     3948.682     2956.471      730.734        0.687        0.382       77.928       22.095        0.080      340.972       15.362      861.519
04/23/2013  14:46:00      222.152       97.469       43.302      133.788       99.941       70.134    17899.338     9988.201     4918.722        4.676        1.640      242.594       25.878        0.011      340.989       15.388      861.499
04/23/2013  14:47:00      282.557      208.612       33.171       79.652       78.025       67.755     6344.429     6087.968     4590.681        7.074        0.851      351.222       29.628        0.007      340.745       14.974      861.496
04/23/2013  14:48:00      108.137       10.449       19.872       96.062      126.902       53.224     9227.839    16104.180     2832.815        2.018        1.408      108.640       53.049        0.238      340.741       14.969      861.509
04/23/2013  14:49:00       84.335      -73.194       19.657       90.588       92.789       52.942     8206.199     8609.722     2802.838        1.623        0.981      111.668       54.403        0.237      340.911       15.257      861.482
04/23/2013  14:50:00       73.941     -137.251       -3.817       62.663       68.264       45.465     3926.711     4659.991     2067.089        1.748        0.533      155.901       33.240        0.045      341.013       15.431      861.466
04/23/2013  14:51:00       -8.492      -99.129       -3.313       81.004       56.533       44.890     6561.675     3196.000     2015.145        1.084        0.589       99.492       28.634        0.083      341.489       16.237      861.414
04/23/2013  14:52:00       -8.005      -67.492       10.070       84.920       77.758       50.079     7211.347     6046.372     2507.864        1.024        0.788       67.965       43.526        0.410      341.494       16.246      861.366
04/23/2013  14:53:00       45.257       48.133       49.676       54.103       55.445       33.136     2927.097     3074.161     1098.027        0.696        0.355       66.068       17.600        0.071      341.289       15.899      861.365
04/23/2013  14:54:00       69.289       50.230       79.775       87.620      101.063       63.939     7677.240    10213.679     4088.185        1.783        1.099       85.580       56.486        0.436      341.314       15.940      861.341
04/23/2013  14:55:00      126.376       56.151       91.118      116.455      170.759      107.146    13561.754    29158.781    11480.319        4.080        2.710      138.289      112.896        0.666      341.414       16.108      861.299
04/23/2013  14:56:00      149.286      131.995      121.883      163.942      100.396       83.898    26877.001    10079.387     7038.853        4.927        2.200      199.271       80.359        0.163      341.155       15.669      861.294
04/23/2013  14:57:00      101.120      111.929       93.972      102.914       55.787       64.128    10591.322     3112.173     4112.462        2.470        0.891      150.842       58.483        0.150      341.418       16.114      861.311
04/23/2013  14:58:00      184.124      117.833       50.037      102.867       58.283       58.924    10581.584     3396.898     3472.067        3.387        0.873      218.601       26.374        0.015      341.448       16.166      861.301
04/23/2013  14:59:00      263.825      141.087       55.368       95.410       95.250       75.285     9103.048     9072.590     5667.894        5.820        1.192      299.180       49.246        0.027      340.995       15.396      861.309
04/23/2013  15:00:00      183.920      143.066       38.322       99.806       56.060       53.391     9961.271     3142.686     2850.629        3.586        0.798      233.011       36.812        0.025      340.850       15.153      861.300
04/23/2013  15:01:00       44.586       18.587       29.884       92.078       95.005       46.412     8478.415     9025.963     2154.049        1.144        0.983       48.305       29.301        0.368      341.241       15.816      861.283
04/23/2013  15:02:00       49.265      -76.545        7.501       46.432       50.616       39.115     2155.892     2561.961     1529.997        0.729        0.312       91.028       31.923        0.123      340.904       15.246      861.256
04/23/2013  15:03:00       92.382       32.250       26.846       66.004       35.524       38.442     4356.535     1261.954     1477.754        0.869        0.355       97.850       29.999        0.094      340.917       15.270      861.226
04/23/2013  15:04:00       38.790      100.314      -10.008       33.650       49.740       26.997     1132.326     2474.103      728.844        0.800        0.217      107.553       17.728        0.027      340.725       14.945      861.210
04/23/2013  15:05:00       40.429       93.594      -23.646       53.518       69.030       43.600     2864.197     4765.190     1900.953        1.024        0.477      101.952       34.401        0.114      340.803       15.076      861.203
04/23/2013  15:06:00      -27.157       92.984      -23.752       40.370       43.714       27.617     1629.716     1910.883      762.697        0.712        0.215       96.869       24.457        0.064      340.899       15.239      861.175
04/23/2013  15:07:00      -36.064       46.639       -0.949       27.610       42.100       30.708      762.301     1772.389      942.989        0.348        0.174       58.956       21.182        0.129      341.190       15.731      861.130
04/23/2013  15:08:00        0.285      -12.057       -2.549       41.855       35.810       24.010     1751.834     1282.366      576.486        0.188        0.181       12.061       12.694        1.108      341.284       15.889      861.101
04/23/2013  15:09:00       16.016      -40.321       14.518       37.643       51.707       33.197     1417.021     2673.655     1102.044        0.364        0.260       43.385       21.514        0.246      341.174       15.704      861.049
04/23/2013  15:10:00      107.233       79.762       91.937      109.241      105.274       76.151    11933.646    11082.602     5799.001        2.756        1.441      133.645       68.496        0.263      341.116       15.603      861.000
04/23/2013  15:11:00       83.998       40.357       73.737       93.120       52.277       50.584     8671.250     2732.880     2558.750        1.404        0.698       93.189       36.446        0.153      341.415       16.111      860.968
04/23/2013  15:12:00       24.794      -49.124       69.089       69.658      135.046       70.388     4852.254    18237.310     4954.432        1.792        1.402       55.027       58.219        1.119      341.867       16.877      860.938
04/23/2013  15:13:00      114.118      -75.136       45.575      113.010      201.273      130.388    12771.347    40510.809    17000.966        4.550        3.514      136.632      153.925        1.269      341.200       15.746      860.934
04/23/2013  15:14:00       81.893      -69.107       21.127       59.954      148.412       72.415     3594.461    22026.255     5243.924        2.139        1.543      107.155       99.749        0.867      340.924       15.277      860.939
04/23/2013  15:15:00      107.719     -130.642       -6.437       86.137      131.021       63.162     7419.566    17166.401     3989.499        2.864        1.429      169.325       72.142        0.182      341.325       15.957      860.901
04/23/2013  15:16:00      103.191     -165.842      -18.701       42.231       50.298       34.801     1783.484     2529.888     1211.101        2.201        0.276      195.325       21.648        0.012      341.149       15.660      860.904
04/23/2013  15:17:00       66.422      -31.835        7.473       45.315       82.190       49.258     2053.478     6755.179     2426.380        0.836        0.562       73.657       47.779        0.421      341.050       15.495      860.881
04/23/2013  15:18:00       40.948       -3.872        7.964       55.024       57.295       41.934     3027.666     3282.767     1758.490        0.491        0.403       41.130       13.860        0.114      341.455       16.179      860.853
04/23/2013  15:19:00       -4.508     -101.831        4.987       74.183       88.476       60.556     5503.191     7828.005     3666.983        1.370        0.850      101.931       43.178        0.179      341.732       16.648      860.804
04/23/2013  15:20:00      110.322       38.671       95.523       78.629       79.816       62.128     6182.494     6370.626     3859.843        1.960        0.821      116.903       57.672        0.243      341.389       16.067      860.785
04/23/2013  15:21:00      190.415       62.971       84.997      132.430      126.867       85.566    17537.577    16095.241     7321.523        4.419        2.048      200.557       68.912        0.118      341.477       16.214      860.740
04/23/2013  15:22:00      144.026      166.015      -10.345      109.185      115.684       69.975    11921.320    13382.837     4896.546        3.930        1.510      219.783       65.079        0.088      341.163       15.682      860.764
04/23/2013  15:23:00       21.517      238.051      -31.975       87.235       97.863       47.718     7609.952     9577.185     2277.021        3.880        0.973      239.021       51.328        0.046      341.115       15.600      860.729
04/23/2013  15:24:00     -110.737       47.986       -4.285       72.883       74.613       53.541     5311.985     5567.107     2866.587        1.416        0.687      120.687       42.994        0.127      341.691       16.579      860.701
04/23/2013  15:25:00     -118.031       46.906      -15.450       64.311       42.676       44.074     4135.866     1821.222     1942.482        1.213        0.395      127.010       43.989        0.120      341.676       16.555      860.690
04/23/2013  15:26:00       57.564       56.877       73.239       86.714       63.365       52.796     7519.338     4015.159     2787.414        1.311        0.716       80.924       42.637        0.278      341.617       16.454      860.691
04/23/2013  15:27:00      164.698       91.685      104.859      136.484       97.780       80.785    18627.859     9561.010     6526.243        4.061        1.736      188.498       66.284        0.124      341.331       15.966      860.624
04/23/2013  15:28:00      123.458       38.573      100.020      131.915      147.074       96.709    17401.589    21630.896     9352.535        3.755        2.419      129.344      109.269        0.714      341.306       15.926      860.604
04/23/2013  15:29:00       95.215     -101.193       29.129       71.838       91.015       59.461     5160.743     8283.724     3535.624        1.856        0.849      138.946       50.054        0.130      341.277       15.876      860.590
04/23/2013  15:30:00       59.590       44.520       61.367       80.939       49.955       46.316     6551.195     2495.479     2145.214        1.024        0.560       74.385       35.191        0.224      341.710       16.611      860.570
04/23/2013  15:31:00      120.309       44.705        6.910       96.379       88.806       59.214     9288.953     7886.545     3506.327        1.860        1.034      128.347       10.553        0.007      341.763       16.700      860.546
04/23/2013  15:32:00       96.626      132.914      104.266      143.925      107.771       95.041    20714.466    11614.663     9032.868        3.961        2.068      164.325       95.899        0.341      341.860       16.863      860.513
04/23/2013  15:33:00      173.935      110.766       87.618      131.980      110.307       81.574    17418.787    12167.558     6654.308        4.321        1.812      206.210       67.543        0.107      341.581       16.391      860.502
04/23/2013  15:34:00       67.187       70.490       68.683       83.990       68.365       58.393     7054.346     4673.714     3409.781        1.467        0.757       97.380       49.327        0.257      341.857       16.859      860.517
04/23/2013  15:35:00      113.967       74.266       13.741       82.435       95.491       58.965     6795.574     9118.581     3476.864        1.904        0.970      136.029       51.663        0.144      341.745       16.670      860.518
04/23/2013  15:36:00      122.451       43.741       49.791       95.865      109.368       66.706     9190.162    11961.401     4449.669        2.249        1.280      130.029       54.049        0.173      342.104       17.278      860.494
04/23/2013  15:37:00      264.972      166.221       50.137      169.201      102.119       84.780    28628.999    10428.296     7187.596        7.329        2.312      312.793       58.437        0.035      341.887       16.911      860.497
04/23/2013  15:38:00      213.555      102.588       55.030      173.875       95.848       77.110    30232.379     9186.872     5945.937        5.225        2.268      236.918       70.698        0.089      341.330       15.966      860.506
04/23/2013  15:39:00      129.925      124.401       13.928      120.635      125.768       78.696    14552.890    15817.539     6193.064        3.455        1.828      179.878       50.924        0.080      341.384       16.057      860.479
04/23/2013  15:40:00      138.107       86.098       40.495      126.237      105.902       71.138    15935.896    11215.250     5060.652        3.016        1.611      162.747       63.812        0.154      341.530       16.304      860.455
04/23/2013  15:41:00      156.396      146.689       64.804      107.297       77.024       71.956    11512.581     5932.758     5177.641        3.640        1.131      214.423       48.208        0.051      341.653       16.511      860.449
04/23/2013  15:42:00      140.080      131.118       87.278      121.635       83.781       82.257    14795.098     7019.291     6766.195        3.650        1.429      191.871       34.954        0.033      341.600       16.422      860.424
04/23/2013  15:43:00      140.630      128.464       91.837      118.349       70.497       77.215    14006.373     4969.773     5962.122        3.482        1.247      190.472       47.790        0.063      341.644       16.496      860.413
04/23/2013  15:44:00      137.752       71.453       34.870      116.800       75.608       62.933    13642.352     5716.502     3960.600        2.430        1.166      155.181       43.503        0.079      341.672       16.545      860.412
04/23/2013  15:45:00       55.260       44.342        1.694       77.596       40.996       42.226     6021.118     1680.686     1783.017        0.725        0.474       70.851       31.199        0.194      341.237       15.809      860.400
04/23/2013  15:46:00      118.600       45.516       30.951       79.854       51.718       40.428     6376.623     2674.791     1634.399        1.389        0.534      127.034       27.090        0.045      341.313       15.939      860.352
04/23/2013  15:47:00      150.795      206.090        7.386      121.615      140.272       82.011    14790.129    19676.343     6725.839        5.322        2.060      255.368       85.900        0.113      341.317       15.943      860.340
04/23/2013  15:48:00      -18.998      218.088      -26.277       82.924      104.766       51.113     6876.347    10975.967     2612.551        3.454        1.023      218.914       58.268        0.071      341.259       15.844      860.324
04/23/2013  15:49:00      125.866      123.223       -5.217       78.113       66.714       50.903     6101.580     4450.744     2591.165        2.210        0.657      176.142       39.332        0.050      341.277       15.875      860.337
04/23/2013  15:50:00      -13.075       44.431      -31.273       55.790       78.571       27.529     3112.558     6173.435      757.835        0.658        0.502       46.315       30.458        0.432      341.350       16.002      860.334
04/23/2013  15:51:00        7.531       27.793        8.209       30.931       22.655       16.083      956.701      513.229      258.658        0.131        0.086       28.795        8.292        0.083      341.758       16.693      860.297
04/23/2013  15:52:00       93.445       79.843      109.402       90.336       86.016       71.831     8160.541     7398.743     5159.623        2.389        1.036      122.910       67.459        0.301      341.491       16.240      860.298
04/23/2013  15:53:00      203.794      113.189       78.804      171.894      124.597      107.140    29547.618    15524.445    11478.961        5.854        2.828      233.118      100.724        0.187      341.278       15.877      860.256
04/23/2013  15:54:00      177.966       91.911       18.802       98.187       70.878       64.448     9640.690     5023.632     4153.594        2.964        0.941      200.299       56.568        0.080      341.338       15.977      860.270
04/23/2013  15:55:00      -85.328      -16.059       -8.499       81.343       63.341       33.942     6616.737     4012.045     1152.039        0.969        0.589       86.826       18.008        0.043      342.079       17.239      860.225
04/23/2013  15:56:00        9.595       17.693       26.381       50.411       48.854       29.025     2541.272     2386.713      842.424        0.343        0.289       20.127       21.824        1.176      341.828       16.812      860.193
04/23/2013  15:57:00       88.649       59.849       75.393      106.506       82.103       69.249    11343.424     6740.920     4795.426        2.000        1.144      106.960       50.973        0.227      341.312       15.936      860.181
04/23/2013  15:58:00      229.006      160.127       68.542      153.320       89.083      101.202    23506.906     7935.855    10241.751        6.222        2.084      279.436       84.861        0.092      341.476       16.212      860.172
04/23/2013  15:59:00      238.871      135.753       44.432      116.074       92.956       73.802    13473.219     8640.795     5446.799        5.251        1.378      274.751       52.117        0.036      341.800       16.761      860.163
04/23/2013  16:00:00      160.305      126.945       85.417       89.776       64.737       70.172     8059.764     4190.838     4924.149        3.314        0.859      204.481       48.514        0.056      341.772       16.716      860.168
04/23/2013  16:01:00      101.481       82.044       10.137       73.404       55.105       43.184     5388.088     3036.533     1864.883        1.371        0.514      130.498       22.247        0.029      341.592       16.410      860.160
04/23/2013  16:02:00      101.239       42.042       43.110       88.995       83.200       57.413     7920.194     6922.214     3296.226        1.600        0.907      109.622       52.508        0.229      341.814       16.786      860.146
04/23/2013  16:03:00      209.433      152.140       49.182       63.612       66.383       54.774     4046.538     4406.756     3000.193        4.044        0.573      258.861       17.050        0.004      341.328       15.962      860.130
04/23/2013  16:04:00       71.395      158.249      -13.709       66.981       90.691       44.754     4486.503     8224.900     2002.898        2.252        0.736      173.609       46.224        0.071      341.441       16.153      860.109
04/23/2013  16:05:00       30.485       60.020      -27.295       59.302       54.969       20.535     3516.723     3021.600      421.682        0.612        0.348       67.318       24.726        0.135      341.333       15.974      860.096
04/23/2013  16:06:00      -47.691       74.407      -21.486       28.831       31.395       24.416      831.232      985.647      596.123        0.534        0.121       88.379       13.653        0.024      341.382       16.056      860.073
04/23/2013  16:07:00       30.997      126.424      -10.631       45.253       72.977       31.057     2047.827     5325.588      964.544        1.270        0.417      130.168       33.578        0.067      341.587       16.402      860.072
04/23/2013  16:08:00      118.272      141.504       17.144       82.661       82.760       66.081     6832.911     6849.250     4366.750        2.617        0.902      184.422       58.138        0.099      341.493       16.241      860.080
04/23/2013  16:09:00      239.602      133.273       48.570      120.653       87.209       72.115    14557.142     7605.419     5200.568        5.244        1.368      274.173       40.387        0.022      341.488       16.233      860.071
04/23/2013  16:10:00      228.219      142.300       73.424      109.932       72.916       70.323    12085.069     5316.755     4945.262        5.003        1.117      268.948       37.009        0.019      341.614       16.446      860.048
04/23/2013  16:11:00      206.787      153.863       36.274      161.012      103.761       83.542    25924.895    10766.441     6979.273        5.570        2.184      257.749       44.677        0.030      341.707       16.604      860.073
04/23/2013  16:12:00       96.204      165.693      -15.042       85.570       79.745       60.578     7322.173     6359.327     3669.686        2.714        0.868      191.597       53.902        0.079      341.636       16.484      860.090
04/23/2013  16:13:00       24.494      100.947        0.186       52.989       49.500       39.350     2807.783     2450.230     1548.389        0.880        0.340      103.876       29.697        0.082      341.737       16.657      860.069
04/23/2013  16:14:00       38.367      133.250       -4.113       54.863      107.565       52.623     3009.898    11570.131     2769.159        1.829        0.867      138.664       63.459        0.209      341.840       16.830      860.068
04/23/2013  16:15:00       42.932      165.981      -33.050       40.080       69.217       35.574     1606.376     4790.996     1265.489        1.907        0.383      171.444       38.627        0.051      341.398       16.081      860.053
04/23/2013  16:16:00       69.937       94.257        9.231       86.187       42.572       36.650     7428.232     1812.346     1343.259        1.222        0.529      117.370       26.969        0.053      341.623       16.465      860.022
04/23/2013  16:17:00      132.369       95.264        9.715      100.680       77.411       44.166    10136.556     5992.406     1950.637        2.238        0.904      163.085       39.740        0.059      341.520       16.286      859.990
04/23/2013  16:18:00       28.884       55.603      -17.972       46.248       59.360       28.137     2138.893     3523.658      791.677        0.535        0.323       62.658       26.339        0.177      341.602       16.430      859.978
04/23/2013  16:19:00       31.036       53.346       10.938       42.610       44.528       32.922     1815.582     1982.755     1083.883        0.440        0.244       61.718       27.020        0.192      341.656       16.520      859.974
04/23/2013  16:20:00      -26.733      158.528      -12.870       77.080       66.598       38.548     5941.259     4435.295     1485.927        1.893        0.593      160.766       43.993        0.075      341.514       16.277      859.972
04/23/2013  16:21:00       -4.895      113.972       -4.400       40.295       37.976       31.176     1623.689     1442.198      971.913        0.853        0.202      114.077       13.953        0.015      341.615       16.451      859.971
04/23/2013  16:22:00        8.275       87.340        8.804       87.750       53.175       51.205     7700.112     2827.568     2621.981        1.046        0.657       87.731       58.861        0.450      341.774       16.721      859.954
04/23/2013  16:23:00       83.230      -14.075       26.584       43.784       69.940       43.615     1917.067     4891.544     1902.240        0.827        0.436       84.412       46.177        0.299      341.507       16.268      859.918
04/23/2013  16:24:00       58.402       32.650       24.123       42.028       64.310       38.305     1766.367     4135.761     1467.238        0.621        0.368       66.910       41.535        0.385      341.644       16.499      859.867
04/23/2013  16:25:00      169.070      103.702       33.073       67.733       60.405       48.068     4587.744     3648.808     2310.577        2.549        0.527      198.340       35.448        0.032      341.644       16.497      859.860
04/23/2013  16:26:00       56.011      106.908      115.472       95.366       55.205       47.681     9094.643     3047.570     2273.440        2.116        0.721      120.692       53.520        0.197      341.765       16.704      859.829
04/23/2013  16:27:00       80.989      101.289       17.201       65.668       42.407       50.836     4312.285     1798.376     2584.308        1.290        0.435      129.687       33.120        0.065      341.837       16.827      859.816
04/23/2013  16:28:00      110.514      140.169       -0.061      103.121      100.375       70.255    10633.934    10075.214     4935.782        2.875        1.282      178.496       63.821        0.128      341.833       16.816      859.810
04/23/2013  16:29:00       77.152      106.867       -4.884       79.777       63.982       47.131     6364.295     4093.670     2221.358        1.504        0.634      131.807       45.852        0.121      341.837       16.826      859.818
04/23/2013  16:30:00      142.167      110.997        7.102       96.909       72.691       57.167     9391.281     5283.989     3268.032        2.526        0.897      180.365       44.601        0.061      341.936       16.993      859.826
04/23/2013  16:31:00       58.859      133.183      -27.230       72.724       89.006       60.021     5288.782     7922.016     3602.516        1.938        0.841      145.610       51.030        0.123      341.685       16.567      859.797
04/23/2013  16:32:00       80.737      159.748      -16.880       65.660      110.227       64.919     4311.225    12150.035     4214.432        2.650        1.034      178.992       62.059        0.120      341.558       16.352      859.783
04/23/2013  16:33:00      129.299      212.366      -21.643      108.283      107.466       75.356    11725.190    11548.992     5678.494        4.561        1.448      248.631       60.349        0.059      341.693       16.580      859.759
04/23/2013  16:34:00      132.608       50.258       21.106      126.851      103.425       51.796    16091.301    10696.711     2682.854        2.501        1.474      141.812       27.011        0.036      341.853       16.852      859.754
04/23/2013  16:35:00       72.396       41.454       41.742       81.125       75.857       51.200     6581.323     5754.232     2621.427        1.183        0.748       83.425       40.169        0.232      341.999       17.102      859.744
04/23/2013  16:36:00      130.370       76.669       76.987      131.159       91.159       81.673    17202.722     8309.962     6670.484        3.049        1.609      151.243       78.332        0.268      341.848       16.843      859.734
04/23/2013  16:37:00      246.531      170.680       17.940      120.455       81.971       68.999    14509.384     6719.303     4760.813        5.810        1.299      299.848       35.558        0.014      341.904       16.936      859.764
04/23/2013  16:38:00      268.601      124.795       28.774      142.707      112.951       85.000    20365.189    12757.929     7225.030        6.444        2.017      296.177       39.769        0.018      341.808       16.774      859.760
04/23/2013  16:39:00      178.246      153.771       77.615      143.847       93.715      109.528    20691.945     8782.574    11996.438        5.145        2.074      235.408       92.583        0.155      341.704       16.599      859.765
04/23/2013  16:40:00      235.914      142.865       66.023      157.203       82.626       81.134    24712.839     6827.000     6582.646        5.927        1.906      275.801       42.859        0.024      341.736       16.653      859.778
04/23/2013  16:41:00      235.193      153.668       27.872      117.297      107.750       64.380    13758.694    11610.059     4144.723        5.460        1.476      280.944       12.122        0.002      341.622       16.458      859.780
04/23/2013  16:42:00      119.025       66.175       66.406      116.611      108.069       71.628    13598.224    11679.003     5130.628        2.668        1.520      136.184        8.637        0.004      341.770       16.713      859.750
04/23/2013  16:43:00      288.832      181.723       30.155       92.419       78.473       76.171     8541.244     6157.937     5801.992        6.892        1.025      341.244       48.632        0.020      341.692       16.578      859.734
04/23/2013  16:44:00       90.013       60.920       82.929       86.343       77.210       64.695     7455.036     5961.403     4185.460        1.814        0.880      108.690       48.764        0.201      341.712       16.615      859.728
04/23/2013  16:45:00       93.503       55.250       73.076       89.063       79.659       57.632     7932.145     6345.583     3321.422        1.736        0.880      108.607       55.174        0.258      341.510       16.272      859.719
04/23/2013  16:46:00       62.085       51.476       69.947       77.554       86.493       63.568     6014.581     7480.960     4040.835        1.446        0.877       80.650       53.453        0.439      341.458       16.183      859.696
04/23/2013  16:47:00      104.673       66.551       66.636      109.139       79.893       50.558    11911.372     6382.945     2556.104        2.033        1.043      124.038       39.874        0.103      341.708       16.606      859.676
04/23/2013  16:48:00        6.044      -40.125       24.972       33.621       76.691       37.381     1130.372     5881.515     1397.360        0.534        0.420       40.577       23.540        0.337      342.111       17.293      859.665
04/23/2013  16:49:00       -3.815        9.311       18.728       44.605       60.798       42.844     1989.571     3696.397     1835.639        0.399        0.376       10.062       20.064        3.976      342.277       17.575      859.681
04/23/2013  16:50:00        8.730       52.762       78.023       40.827       93.396       73.047     1666.822     8722.734     5335.857        1.233        0.786       53.479       70.568        1.741      341.875       16.891      859.682
04/23/2013  16:51:00       74.488       61.839       59.946       69.410       69.091       39.134     4817.701     4773.509     1531.484        1.204        0.556       96.812       20.710        0.046      341.738       16.659      859.680
04/23/2013  16:52:00       22.787       70.000       68.443       72.243       57.107       55.739     5219.011     3261.220     3106.843        1.084        0.579       73.615       47.875        0.423      341.709       16.610      859.666
04/23/2013  16:53:00       -9.098      136.897        3.932       63.549       87.807       45.967     4038.512     7710.125     2112.946        1.635        0.693      137.199       49.620        0.131      341.880       16.899      859.649
04/23/2013  16:54:00      -70.151      117.171       -1.170       53.140       66.703       35.625     2823.890     4449.330     1269.132        1.360        0.427      136.566       29.496        0.047      341.954       17.025      859.643
04/23/2013  16:55:00       14.145      102.309       -5.058       57.542       45.825       39.401     3311.069     2099.893     1552.427        0.883        0.348      103.282       23.682        0.053      342.007       17.115      859.649
04/23/2013  16:56:00      105.465      146.784       29.203      106.772       85.593       73.634    11400.303     7326.122     5421.975        2.883        1.207      180.744       43.410        0.058      341.994       17.092      859.623
04/23/2013  16:57:00      115.835      100.549      104.891      126.192       89.669       63.081    15924.370     8040.537     3979.244        3.123        1.397      153.388       51.982        0.115      341.647       16.502      859.622
04/23/2013  16:58:00       70.419       78.593      105.377       79.505       77.650       50.360     6321.032     6029.498     2536.123        1.856        0.744      105.526       42.880        0.165      341.432       16.139      859.618
04/23/2013  16:59:00       75.604      -16.516       40.495       70.467       88.455       47.174     4965.600     7824.375     2225.413        1.132        0.751       77.387       30.991        0.160      341.761       16.697      859.601
04/23/2013  17:00:00       72.759      -87.709       14.979       91.320       80.938       45.373     8339.327     6550.983     2058.722        1.508        0.847      113.959       48.944        0.184      341.873       16.887      859.582
04/23/2013  17:01:00      153.278       53.453       40.017      126.175      114.311       59.381    15920.251    13066.926     3526.142        3.023        1.626      162.331       34.455        0.045      341.843       16.835      859.577
04/23/2013  17:02:00       96.620       54.648       30.702       97.951       57.180       47.047     9594.391     3269.515     2213.466        1.417        0.754      111.004       36.839        0.110      342.127       17.318      859.614
04/23/2013  17:03:00      119.003      124.324        0.979       68.879       54.207       39.576     4744.330     2938.433     1566.289        1.943        0.462      172.099       32.157        0.035      341.723       16.632      859.636
04/23/2013  17:04:00       22.392      117.972      -22.522       29.001       42.146       16.687      841.042     1776.305      278.470        0.891        0.145      120.078       15.728        0.017      341.604       16.431      859.635
04/23/2013  17:05:00       13.120      110.220      -20.866       38.316       59.139       23.757     1468.136     3497.452      564.407        0.914        0.276      110.998       25.335        0.052      341.918       16.964      859.617
04/23/2013  17:06:00      126.833      140.608        4.342      137.839       76.639       61.690    18999.582     5873.484     3805.712        3.227        1.434      189.360       42.612        0.051      342.015       17.126      859.612
04/23/2013  17:07:00       33.005       35.555       21.180       82.468       56.789       38.563     6801.027     3224.956     1487.097        0.716        0.576       48.513       30.454        0.394      341.760       16.695      859.611
04/23/2013  17:08:00       36.470      127.064      -12.212       62.873       78.890       36.385     3952.958     6223.640     1323.858        1.456        0.575      132.194       39.630        0.090      342.023       17.142      859.628
04/23/2013  17:09:00       21.194       90.791       -3.785      109.443       54.725       48.721    11977.759     2994.848     2373.777        1.302        0.867       93.232       43.509        0.218      341.853       16.852      859.646
04/23/2013  17:10:00        3.049      108.658      -14.192       86.694       91.096       38.927     7515.802     8298.474     1515.347        1.467        0.866      108.701       46.131        0.180      341.804       16.770      859.653
04/23/2013  17:11:00      -75.013       78.567       -5.511       44.599       57.394       40.643     1989.107     3294.046     1651.879        0.938        0.347      108.626       28.028        0.067      342.168       17.389      859.638
04/23/2013  17:12:00      -50.961      110.932       -9.534       48.513       74.447       30.685     2353.528     5542.331      941.551        1.191        0.442      122.078       35.520        0.085      342.007       17.114      859.626
04/23/2013  17:13:00      -41.006      165.847       -7.518       52.400       50.519       33.684     2745.747     2552.175     1134.642        1.784        0.322      170.841       29.425        0.030      341.950       17.018      859.623
04/23/2013  17:14:00       34.879       95.144       -8.910       51.665       63.327       25.939     2669.268     4010.259      672.818        0.885        0.368      101.336       24.968        0.061      341.888       16.915      859.624
04/23/2013  17:15:00      167.080       81.997       34.553      105.373       78.152       42.196    11103.570     6107.682     1780.508        2.741        0.950      186.116       39.971        0.046      341.883       16.904      859.606
04/23/2013  17:16:00      199.683      134.619       19.973      136.337       82.816       70.457    18587.644     6858.413     4964.135        4.440        1.521      240.823       56.475        0.055      341.856       16.857      859.585
04/23/2013  17:17:00      171.569      128.237       42.226      126.535       78.858       59.251    16011.128     6218.633     3510.739        3.670        1.287      214.198       50.607        0.056      341.859       16.862      859.590
04/23/2013  17:18:00      178.745      112.637       19.903       91.177       49.504       55.248     8313.260     2450.603     3052.374        2.942        0.691      211.274       41.454        0.038      341.795       16.752      859.596
04/23/2013  17:19:00      110.884      102.293       18.006      106.433       67.852       67.109    11327.950     4603.848     4503.655        2.176        1.022      150.861       46.523        0.095      341.953       17.021      859.599
04/23/2013  17:20:00      197.956      145.038       24.327      108.062       97.138       55.134    11677.501     9435.798     3039.745        4.248        1.208      245.403       34.360        0.020      341.761       16.695      859.603
04/23/2013  17:21:00      199.792      121.623       19.249       92.589       83.595       63.281     8572.810     6988.130     4004.510        3.732        0.978      233.899       30.955        0.018      341.673       16.546      859.598
04/23/2013  17:22:00       78.482       53.558        3.265       60.520       46.619       32.714     3662.657     2173.375     1070.218        0.797        0.345       95.016       23.056        0.059      341.662       16.531      859.608
04/23/2013  17:23:00      104.980       83.125       13.248       49.485       40.621       42.814     2448.733     1650.084     1833.044        1.202        0.297      133.905       24.191        0.033      341.710       16.613      859.591
04/23/2013  17:24:00       55.501       53.946       86.069       85.241       83.383       60.663     7265.957     6952.702     3679.942        1.564        0.895       77.399       62.556        0.653      341.671       16.545      859.570
04/23/2013  17:25:00       94.932       79.193       73.967       88.674       56.356       50.670     7863.152     3176.009     2567.419        1.718        0.680      123.627       35.616        0.083      341.585       16.398      859.557
04/23/2013  17:26:00       92.912      115.875       88.418       89.822       69.562       68.464     8067.937     4838.829     4687.271        2.373        0.880      148.525       59.339        0.160      341.632       16.477      859.560
04/23/2013  17:27:00       62.355       64.741       50.201       62.686       53.547       58.747     3929.539     2867.316     3451.241        1.042        0.512       89.887       33.945        0.143      341.864       16.872      859.568
04/23/2013  17:28:00       33.368      -16.908        4.319       55.410       59.161       34.285     3070.275     3500.067     1175.438        0.458        0.387       37.407       21.301        0.324      341.791       16.749      859.565
04/23/2013  17:29:00       10.873      -44.664       27.203       52.937       47.614       39.635     2802.319     2267.084     1570.943        0.475        0.332       45.969       33.217        0.522      341.827       16.811      859.541
04/23/2013  17:30:00       80.479       30.081       25.892       64.043       70.528       39.799     4101.527     4974.190     1583.956        0.935        0.533       85.917       29.769        0.120      341.885       16.908      859.536
04/23/2013  17:31:00       72.135       77.244        7.073       81.628       67.425       46.425     6663.127     4546.099     2155.237        1.229        0.668      105.688       31.734        0.090      342.088       17.252      859.538
04/23/2013  17:32:00       97.494       73.891       53.377      113.486       77.495       72.354    12879.087     6005.493     5235.055        2.096        1.206      122.331       72.871        0.355      342.069       17.218      859.522
04/23/2013  17:33:00      177.530       96.678       70.257      101.406       69.675       67.927    10283.115     4854.650     4614.058        3.277        0.988      202.147       56.037        0.077      341.630       16.471      859.511
04/23/2013  17:34:00      142.273       83.779       25.214      103.752       64.563       56.583    10764.379     4168.386     3201.601        2.301        0.907      165.108       33.759        0.042      341.830       16.814      859.495
04/23/2013  17:35:00       84.034       58.240       16.760       66.304       52.219       42.210     4396.205     2726.772     1781.661        0.982        0.445      102.243       28.928        0.080      341.984       17.077      859.479
04/23/2013  17:36:00      140.711      100.226        7.609      108.812       77.377       44.337    11840.079     5987.258     1965.751        2.484        0.990      172.757       33.072        0.037      342.130       17.323      859.465
04/23/2013  17:37:00      123.532       89.946       65.718       65.975       69.686       54.541     4352.734     4856.071     2974.726        1.992        0.609      152.808       37.177        0.059      341.867       16.878      859.452
04/23/2013  17:38:00       90.525       -5.286       22.432       83.835       42.872       36.309     7028.378     1838.042     1318.333        0.945        0.509       90.679       28.167        0.096      341.816       16.790      859.423
04/23/2013  17:39:00       33.512      -80.548       -2.103       56.525       73.443       37.391     3195.096     5393.821     1398.070        0.880        0.499       87.241       43.678        0.251      341.555       16.350      859.390
04/23/2013  17:40:00       64.656       19.252       -0.101       47.692      100.108       36.110     2274.566    10021.622     1303.963        0.907        0.680       67.461       19.104        0.080      342.042       17.174      859.374
04/23/2013  17:41:00       38.118      -36.890        1.308       56.674       35.837       35.259     3211.979     1284.296     1243.232        0.428        0.287       53.046       33.305        0.394      341.468       16.202      859.376
04/23/2013  17:42:00       11.411      -75.070       13.947       50.100       65.411       42.418     2510.003     4278.625     1799.282        0.727        0.429       75.933       30.715        0.164      342.055       17.196      859.360
04/23/2013  17:43:00       50.077      -83.514       22.510       45.198       72.222       37.406     2042.843     5215.954     1399.191        0.932        0.433       97.377       30.280        0.097      342.335       17.672      859.339
04/23/2013  17:44:00       23.364      -55.135       25.409       40.951       57.465       38.277     1676.969     3302.224     1465.147        0.534        0.322       59.881       19.117        0.102      342.171       17.394      859.333
04/23/2013  17:45:00      107.579       90.130       48.698       81.001       86.729       62.629     6561.170     7521.982     3922.432        2.003        0.900      140.344       47.340        0.114      341.975       17.059      859.326
04/23/2013  17:46:00       42.575      268.025      -33.238       70.492      124.122       56.351     4969.063    15406.349     3175.461        4.915        1.178      271.385       68.027        0.063      341.822       16.799      859.334
04/23/2013  17:47:00     -110.486      201.114      -36.402       74.796       85.726       38.924     5594.497     7348.924     1515.043        3.422        0.723      229.464       33.829        0.022      341.992       17.086      859.315
04/23/2013  17:48:00       24.381      302.768      -35.604       80.441      138.352       59.366     6470.819    19141.188     3524.274        6.133        1.457      303.748       61.152        0.041      342.070       17.219      859.296
04/23/2013  17:49:00      125.492      204.548        3.907      134.539      136.873       62.599    18100.814    18734.182     3918.652        4.917        2.038      239.975       68.474        0.081      342.184       17.412      859.307
04/23/2013  17:50:00      111.316       70.390       19.306       86.437       73.729       46.374     7471.366     5435.912     2150.569        1.639        0.753      131.704       54.093        0.169      342.023       17.141      859.310
04/23/2013  17:51:00       67.193       47.887       -7.393       61.607       39.577       25.746     3795.422     1566.351      662.854        0.644        0.301       82.511       23.373        0.080      341.943       17.007      859.307
04/23/2013  17:52:00       91.121       64.841       -0.606       55.020       68.031       46.098     3027.254     4628.215     2125.009        1.114        0.489      111.837       46.313        0.171      342.129       17.322      859.313
04/23/2013  17:53:00      122.737       66.650       41.004       69.802       69.094       57.094     4872.309     4774.002     3259.716        1.704        0.645      139.666       43.785        0.098      342.049       17.186      859.317
04/23/2013  17:54:00      183.382      147.826       19.103      117.657       79.839       56.884    13843.159     6374.265     3235.830        3.965        1.173      235.545       39.461        0.028      341.871       16.882      859.327
04/23/2013  17:55:00       74.523       98.210        3.227       86.573       81.818       42.415     7494.861     6694.227     1799.017        1.560        0.799      123.284       38.640        0.098      341.771       16.715      859.336
04/23/2013  17:56:00      191.775      105.498       49.277       98.204       75.461       64.903     9644.067     5694.302     4212.348        3.494        0.978      218.878       46.137        0.044      341.677       16.552      859.326
04/23/2013  17:57:00      126.824       94.468       56.534       50.156       47.014       38.891     2515.633     2210.357     1512.531        1.722        0.312      158.140       24.285        0.024      341.784       16.737      859.314
04/23/2013  17:58:00      109.663       99.858       18.107       83.631       50.895       50.747     6994.225     2590.325     2575.227        1.724        0.608      148.316       25.904        0.031      341.784       16.734      859.310
04/23/2013  17:59:00       98.310       62.372        9.013       34.152       28.441       27.208     1166.380      808.884      740.278        0.818        0.136      116.427       14.142        0.015      341.845       16.839      859.305
04/23/2013  18:00:00      108.583       82.057       23.877       56.335       32.538       39.527     3173.623     1058.727     1562.351        1.244        0.290      136.102       27.871        0.042      341.860       16.866      859.286
04/23/2013  18:01:00       52.085       50.672       13.526       30.283       33.141       29.344      917.076     1098.311      861.076        0.417        0.144       72.667       25.957        0.128      341.938       16.999      859.268
04/23/2013  18:02:00       -6.483      102.736      -13.730       48.004       62.345       28.711     2304.349     3886.893      824.334        0.890        0.351      102.941       31.125        0.091      342.191       17.427      859.284
04/23/2013  18:03:00       47.922      233.466      -33.483       67.790      116.430       62.983     4595.469    13555.864     3966.804        4.002        1.106      238.333       62.203        0.068      341.952       17.018      859.266
04/23/2013  18:04:00      113.388      151.038        8.941       91.841      111.278       54.521     8434.717    12382.694     2972.494        2.976        1.189      188.863       62.872        0.111      341.985       17.075      859.280
04/23/2013  18:05:00      127.864       83.370       26.689       83.717       75.208       43.826     7008.480     5656.188     1920.738        1.930        0.729      152.643       27.406        0.032      342.038       17.168      859.273
04/23/2013  18:06:00      186.528      147.187       16.861      119.509      102.343       69.367    14282.327    10474.189     4811.836        4.315        1.478      237.606       44.245        0.035      341.829       16.810      859.265
04/23/2013  18:07:00       65.386      104.096       13.063       77.933       74.511       52.120     6073.511     5551.815     2716.505        1.481        0.717      122.928       46.072        0.140      341.844       16.839      859.284
04/23/2013  18:08:00        0.870      245.764      -32.760       51.675       95.643       41.797     2670.334     9147.633     1747.029        3.752        0.678      245.766       44.787        0.033      341.882       16.899      859.298
04/23/2013  18:09:00       50.872      211.134      -19.214       70.460      118.320       59.046     4964.674    13999.583     3486.427        3.499        1.123      217.176       59.698        0.076      341.812       16.783      859.289
04/23/2013  18:10:00       47.876      236.808      -32.545       72.923      102.406       60.713     5317.736    10486.893     3686.129        3.946        0.975      241.599       56.287        0.054      341.720       16.625      859.281
04/23/2013  18:11:00        7.931      163.901      -16.792       74.082      102.781       37.170     5488.179    10564.018     1381.623        2.232        0.872      164.093       36.524        0.050      341.821       16.798      859.273
04/23/2013  18:12:00       69.508      137.864       -9.612       99.765       93.232       63.373     9953.151     8692.237     4016.196        2.329        1.133      154.395       55.709        0.130      341.831       16.816      859.278
04/23/2013  18:13:00       74.652      105.040      -14.297       60.199       61.418       47.841     3623.872     3772.186     2288.752        1.325        0.484      128.866       36.818        0.082      341.735       16.654      859.279
04/23/2013  18:14:00       77.834       48.474       15.397       52.050       42.043       27.291     2709.150     1767.603      744.781        0.693        0.261       91.694       19.838        0.047      341.831       16.816      859.268
04/23/2013  18:15:00      134.098       66.797       20.480       73.627       47.472       41.832     5420.887     2253.590     1749.948        1.614        0.471      149.813       20.437        0.019      341.830       16.813      859.254
04/23/2013  18:16:00      112.190      107.773        4.673       46.442       60.350       42.272     2156.886     3642.155     1786.899        1.590        0.379      155.568       24.351        0.025      341.985       17.078      859.244
04/23/2013  18:17:00      104.831       97.776       19.356       81.975       73.807       54.692     6719.935     5447.525     2991.246        1.804        0.758      143.352       42.087        0.086      341.938       16.997      859.252
04/23/2013  18:18:00      115.964       96.017       13.062       81.862       73.324       58.114     6701.355     5376.342     3377.288        1.914        0.773      150.555       50.173        0.111      341.885       16.907      859.245
04/23/2013  18:19:00      106.171       81.811       19.336      105.553       80.361       59.591    11141.497     6457.812     3551.080        1.974        1.058      134.035       26.917        0.040      341.835       16.822      859.235
04/23/2013  18:20:00       10.352      186.382      -15.026       71.978       87.704       51.645     5180.763     7691.914     2667.199        2.530        0.777      186.669       50.618        0.074      341.888       16.911      859.234
04/23/2013  18:21:00       17.988      218.421      -38.604       69.735       75.754       33.651     4862.975     5738.649     1132.390        3.063        0.587      219.160       38.707        0.031      341.909       16.945      859.227
04/23/2013  18:22:00       30.144      176.035      -16.014       53.907      110.809       45.921     2906.010    12278.539     2108.700        2.472        0.865      178.597       58.616        0.108      341.910       16.948      859.228
04/23/2013  18:23:00       -9.218      204.510      -26.075       50.932       76.764       32.336     2594.021     5892.671     1045.617        2.606        0.477      204.718       32.618        0.025      341.866       16.873      859.235
04/23/2013  18:24:00        2.736       76.685        2.975       53.917       66.087       34.690     2907.066     4367.462     1203.422        0.719        0.424       76.733       39.696        0.268      341.932       16.988      859.243
04/23/2013  18:25:00       13.857       84.122       -1.980       47.185       39.713       28.711     2226.391     1577.126      824.307        0.595        0.231       85.256       22.200        0.068      341.848       16.846      859.244
04/23/2013  18:26:00      217.809      173.110       13.884       95.284       80.556       70.045     9079.098     6489.217     4906.351        4.903        1.024      278.223       49.996        0.032      341.850       16.845      859.245
04/23/2013  18:27:00       77.750      117.386        6.790       78.078       60.365       59.266     6096.151     3643.959     3512.429        1.656        0.663      140.800       42.268        0.090      341.837       16.826      859.239
04/23/2013  18:28:00      111.910      199.497      -18.209      127.130      104.840       64.176    16162.146    10991.336     4118.552        4.196        1.564      228.742       57.532        0.063      341.726       16.635      859.236
04/23/2013  18:29:00      202.917      130.296       11.569       73.927       61.021       49.110     5465.154     3723.504     2411.747        3.494        0.580      241.147       22.742        0.009      341.649       16.505      859.232
04/23/2013  18:30:00       74.953       91.056        7.188       79.855       71.631       43.536     6376.882     5130.984     1895.395        1.368        0.670      117.937       42.886        0.132      341.800       16.764      859.235
04/23/2013  18:31:00       -8.379      207.460      -38.305       51.259       52.392       23.612     2627.481     2744.911      557.534        2.525        0.296      207.630       25.324        0.015      341.762       16.696      859.238
04/23/2013  18:32:00       30.114      167.317      -22.515       61.650       78.543       38.138     3800.755     6168.972     1454.481        2.041        0.571      170.005       38.372        0.051      341.808       16.777      859.255
04/23/2013  18:33:00       95.032       76.139        8.167       84.279       54.910       45.554     7102.945     3015.087     2075.125        1.354        0.610      121.771       28.941        0.056      341.787       16.742      859.246
04/23/2013  18:34:00       89.157      140.636        6.631      105.066       73.874       59.540    11038.803     5457.304     3544.990        2.390        1.002      166.515       41.392        0.062      341.753       16.682      859.250
04/23/2013  18:35:00       74.862      157.563       -3.771       90.816      108.200       68.604     8247.586    11707.254     4706.465        2.755        1.233      174.443       69.676        0.160      341.768       16.708      859.253
04/23/2013  18:36:00       41.143       71.205        7.693       48.830       60.363       53.518     2384.327     3643.650     2864.224        0.786        0.445       82.237       45.477        0.306      341.674       16.549      859.252
04/23/2013  18:37:00       83.764       89.275       16.068       66.760       56.585       48.035     4456.839     3201.836     2307.347        1.260        0.498      122.419       35.904        0.086      341.745       16.671      859.255
04/23/2013  18:38:00        0.518      179.075      -18.109       81.927       95.714       47.050     6711.997     9161.130     2213.720        2.524        0.904      179.076       49.992        0.078      341.809       16.778      859.252
04/23/2013  18:39:00       21.362      290.151      -44.583       75.409       69.748       38.448     5686.565     4864.831     1478.255        4.933        0.601      290.936       38.431        0.017      341.686       16.567      859.253
04/23/2013  18:40:00       44.671      115.329      -10.456       53.091       81.655       36.747     2818.623     6667.569     1350.337        1.312        0.542      123.678       32.978        0.071      341.757       16.691      859.244
04/23/2013  18:41:00       26.995       26.504       20.779       51.923       32.456       25.058     2696.044     1053.372      627.925        0.312        0.219       37.831       12.105        0.102      341.701       16.596      859.229
04/23/2013  18:42:00       35.938      143.124      -21.505       44.436       61.501       28.330     1974.559     3782.429      802.577        1.440        0.328      147.567       31.523        0.046      341.812       16.784      859.221
04/23/2013  18:43:00       81.217       77.502       16.834       59.108       54.766       37.612     3493.771     2999.331     1414.687        1.040        0.395      112.262       25.864        0.053      341.818       16.794      859.218
04/23/2013  18:44:00       45.111      123.826        0.376       76.509       55.308       37.094     5853.620     3059.012     1375.992        1.383        0.514      131.787       34.927        0.070      341.833       16.819      859.217
04/23/2013  18:45:00       52.162       65.221        8.199       61.173       61.506       34.724     3742.197     3782.991     1205.748        0.788        0.437       83.514       29.129        0.122      341.837       16.827      859.211
04/23/2013  18:46:00       14.074       24.666       -0.830       70.155       46.330       33.218     4921.686     2146.495     1103.445        0.449        0.409       28.399       26.558        0.875      341.764       16.702      859.194
04/23/2013  18:47:00       62.586      141.338       -8.500       71.344       88.763       62.584     5089.972     7878.852     3916.806        2.042        0.844      154.575       61.580        0.159      341.719       16.625      859.191
04/23/2013  18:48:00       46.665      169.504      -24.135       54.574       78.452       36.829     2978.347     6154.776     1356.381        2.099        0.524      175.810       42.136        0.057      341.743       16.667      859.183
04/23/2013  18:49:00       37.893      156.432      -13.097       49.977       75.946       38.722     2497.690     5767.740     1499.383        1.792        0.488      160.956       40.310        0.063      341.713       16.615      859.178
04/23/2013  18:50:00       37.814      179.178      -28.251       41.891       78.149       33.547     1754.825     6107.247     1125.430        2.166        0.449      183.125       32.161        0.031      341.765       16.702      859.173
04/23/2013  18:51:00        9.482      177.036      -26.469       55.825      116.962       38.834     3116.401    13680.022     1508.106        2.521        0.915      177.290       51.937        0.086      341.692       16.578      859.175
04/23/2013  18:52:00       22.179      149.861      -20.269       40.950       88.594       38.993     1676.878     7848.810     1520.491        1.720        0.552      151.493       47.571        0.099      341.693       16.582      859.178
04/23/2013  18:53:00       16.666      144.517      -16.956       41.242       45.105       31.873     1700.942     2034.501     1015.872        1.310        0.238      145.474       24.042        0.027      341.743       16.665      859.190
04/23/2013  18:54:00       61.621      134.664      -12.089       69.447       69.356       46.108     4822.927     4810.293     2125.944        1.692        0.588      148.093       35.409        0.057      341.725       16.636      859.194
04/23/2013  18:55:00      145.458      127.609        3.824       81.197       64.447       55.817     6592.875     4153.356     3115.516        2.566        0.693      193.499       34.387        0.032      341.623       16.460      859.190
04/23/2013  18:56:00       32.952       85.459       -1.196       42.973       64.083       37.514     1846.653     4106.677     1407.268        0.787        0.368       91.592       36.568        0.159      341.671       16.546      859.192
04/23/2013  18:57:00       62.583       72.552       -1.775       60.253       59.001       40.068     3630.421     3481.138     1605.450        0.895        0.436       95.815       28.395        0.088      341.727       16.640      859.186
04/23/2013  18:58:00       57.650       66.709        2.486       45.290       53.250       28.159     2051.157     2835.558      792.908        0.673        0.284       88.168       26.770        0.092      341.709       16.610      859.189
04/23/2013  18:59:00      105.083       69.671       20.734       89.815       62.119       33.919     8066.796     3858.747     1150.466        1.470        0.654      126.081       13.081        0.011      341.676       16.552      859.192
04/23/2013  19:00:00      123.730      106.204       21.165       73.414       50.363       46.655     5389.610     2536.443     2176.649        1.857        0.505      163.060       34.763        0.045      341.668       16.541      859.194
04/23/2013  19:01:00      180.235      123.980       25.496       69.108       53.995       41.986     4775.881     2915.439     1762.799        2.898        0.473      218.759       16.814        0.006      341.658       16.519      859.185
04/23/2013  19:02:00      207.280      133.058       11.181       79.297       61.346       52.279     6287.942     3763.324     2733.092        3.679        0.639      246.311       37.341        0.023      341.635       16.481      859.189
04/23/2013  19:03:00      116.554       99.620       14.140       81.877       41.084       44.784     6703.780     1687.863     2005.639        1.705        0.520      153.326       28.293        0.034      341.697       16.589      859.188
04/23/2013  19:04:00       50.679       61.780        8.045       44.254       30.416       29.225     1958.430      925.124      854.085        0.509        0.187       79.907       19.516        0.060      341.694       16.585      859.195
04/23/2013  19:05:00       15.390      183.138      -26.907       35.955       87.263       31.455     1292.782     7614.887      989.433        2.220        0.495      183.784       47.207        0.066      341.694       16.582      859.201
04/23/2013  19:06:00       40.758      170.943      -24.998       41.887       64.403       36.410     1754.557     4147.698     1325.679        1.937        0.361      175.735       38.970        0.049      341.625       16.466      859.205
04/23/2013  19:07:00      101.333       81.265       16.041       58.956       42.441       31.715     3475.754     1801.276     1005.834        1.171        0.314      129.894       29.345        0.051      341.590       16.408      859.200
04/23/2013  19:08:00      121.823       92.209       17.682       56.165       36.447       35.830     3154.483     1328.411     1283.806        1.471        0.288      152.785       23.979        0.025      341.584       16.396      859.213
04/23/2013  19:09:00       71.786      123.844       -9.753       60.953       61.219       40.775     3715.318     3747.754     1662.581        1.485        0.456      143.145       38.798        0.073      341.586       16.398      859.213
04/23/2013  19:10:00       27.963      179.817      -27.766       40.319       59.632       30.820     1625.587     3556.017      949.853        2.001        0.307      181.978       31.403        0.030      341.598       16.420      859.211
04/23/2013  19:11:00        3.794      210.613      -31.193       40.269       43.874       25.824     1621.632     1924.954      666.876        2.478        0.211      210.647       21.002        0.010      341.604       16.429      859.209
04/23/2013  19:12:00       24.281      186.870      -33.899       42.622       36.186       20.177     1816.657     1309.402      407.094        2.010        0.177      188.441       10.852        0.003      341.604       16.430      859.205
04/23/2013  19:13:00       34.224      234.606      -43.267       45.936       79.750       32.764     2110.134     6360.124     1073.464        3.381        0.477      237.089       37.941        0.026      341.536       16.312      859.208
04/23/2013  19:14:00       13.255      215.351      -37.108       37.887       52.864       28.082     1435.422     2794.571      788.583        2.647        0.251      215.759       29.040        0.018      341.546       16.330      859.206
04/23/2013  19:15:00       17.812      155.950      -15.229       46.078       67.262       34.867     2123.200     4524.232     1215.675        1.636        0.393      156.964       31.592        0.041      341.502       16.257      859.206
04/23/2013  19:16:00       33.886      198.781      -29.795       43.038       37.636       26.311     1852.253     1416.453      692.291        2.275        0.198      201.648       23.018        0.013      341.509       16.269      859.198
04/23/2013  19:17:00        3.468      251.514      -36.210       44.626       59.598       26.378     1991.498     3551.955      695.806        3.541        0.312      251.538       24.441        0.009      341.511       16.268      859.192
04/23/2013  19:18:00       17.265      177.705      -13.847       52.421       63.426       39.060     2748.012     4022.914     1525.667        2.018        0.415      178.542       36.711        0.042      341.450       16.168      859.187
04/23/2013  19:19:00       29.351      135.961      -24.231       40.392       57.138       28.098     1631.505     3264.760      789.488        1.281        0.284      139.093       29.333        0.044      341.455       16.178      859.192
04/23/2013  19:20:00      -10.700      139.829      -18.666       62.997       73.858       35.378     3968.603     5455.043     1251.583        1.534        0.534      140.238       42.194        0.091      341.455       16.178      859.202
04/23/2013  19:21:00      -43.967      284.888      -51.414       68.888       42.420       27.282     4745.614     1799.490      744.330        4.651        0.364      288.261       20.398        0.005      341.410       16.097      859.207
04/23/2013  19:22:00       45.354      205.651      -36.036       59.641       86.331       41.809     3557.007     7453.105     1748.015        2.920        0.638      210.593       45.801        0.047      341.350       15.999      859.201
04/23/2013  19:23:00        9.988      238.605      -39.116       76.347       78.444       41.382     5828.856     6153.388     1712.443        3.613        0.685      238.814       44.658        0.035      341.354       16.005      859.202
04/23/2013  19:24:00       22.189      195.787      -32.090       55.978      119.140       40.181     3133.548    14194.294     1614.513        2.939        0.947      197.040       59.106        0.090      341.329       15.963      859.202
04/23/2013  19:25:00       29.967      206.866      -38.046       63.081       59.536       33.040     3979.193     3544.530     1091.609        2.688        0.431      209.026       31.974        0.023      341.320       15.947      859.201
04/23/2013  19:26:00      -29.992      170.763      -24.500       49.406       54.091       27.980     2440.906     2925.784      782.890        1.840        0.307      173.377       27.584        0.025      341.322       15.953      859.205
04/23/2013  19:27:00      -12.460      228.428      -34.968       63.311       51.111       26.025     4008.260     2612.368      677.292        3.043        0.365      228.767       21.266        0.009      341.326       15.959      859.217
04/23/2013  19:28:00        1.234      217.497      -37.505       67.231       69.190       32.247     4519.958     4787.196     1039.891        2.953        0.517      217.501       30.973        0.020      341.307       15.926      859.211
04/23/2013  19:29:00       37.550      147.835      -18.303       51.819       78.503       43.469     2685.177     6162.740     1889.525        1.717        0.537      152.529       42.147        0.076      341.233       15.801      859.221
04/23/2013  19:30:00      -20.148      197.735      -32.132       67.622       43.313       32.571     4572.703     1876.058     1060.867        2.402        0.375      198.759       23.767        0.014      341.239       15.810      859.244
04/23/2013  19:31:00      -15.987      191.329      -33.132       67.207       57.685       28.086     4516.834     3327.578      788.822        2.329        0.432      191.996       28.739        0.022      341.236       15.806      859.250
04/23/2013  19:32:00       21.691      153.646      -17.536       57.720       51.798       32.767     3331.650     2682.985     1073.647        1.574        0.354      155.170       24.713        0.025      341.199       15.745      859.267
04/23/2013  19:33:00       13.788      190.351      -31.555       40.182       42.584       19.878     1614.614     1813.397      395.127        2.062        0.191      190.850       15.086        0.006      341.183       15.719      859.277
04/23/2013  19:34:00      -10.368      171.633      -28.638       67.560       66.878       24.210     4564.355     4472.692      586.130        2.000        0.481      171.946       23.537        0.019      341.221       15.783      859.289
04/23/2013  19:35:00      -20.434      208.386      -33.693       72.335       73.432       27.750     5232.405     5392.256      770.050        2.818        0.570      209.385       29.485        0.020      341.192       15.731      859.308
04/23/2013  19:36:00      -33.502      186.450      -22.600       49.951       62.030       31.398     2495.129     3847.742      985.823        2.186        0.366      189.436       19.235        0.010      341.110       15.594      859.311
04/23/2013  19:37:00       20.116      161.762      -26.626       52.494       41.482       23.410     2755.659     1720.765      548.015        1.615        0.251      163.008       20.716        0.016      341.105       15.587      859.327
04/23/2013  19:38:00       26.317      107.176      -11.358       49.197       59.606       33.813     2420.298     3552.934     1143.333        0.971        0.356      110.360       35.880        0.106      341.064       15.518      859.322
04/23/2013  19:39:00       32.771      169.200      -27.613       64.587       64.141       44.663     4171.474     4114.118     1994.801        2.037        0.514      172.345       40.507        0.055      341.047       15.488      859.329
04/23/2013  19:40:00       12.319      111.075      -32.572       50.988       41.360       21.093     2599.792     1710.689      444.906        0.915        0.238      111.756       16.903        0.023      341.005       15.417      859.321
04/23/2013  19:41:00       12.620      181.262      -37.223       42.958       53.843       23.132     1845.367     2899.070      535.109        1.984        0.264      181.700       24.456        0.018      341.053       15.498      859.320
04/23/2013  19:42:00        9.279      162.409      -23.557       57.020       58.477       32.967     3251.313     3419.505     1086.798        1.739        0.388      162.674       32.099        0.039      341.000       15.407      859.315
04/23/2013  19:43:00       20.806      122.242      -27.208       53.782       47.861       31.370     2892.451     2290.695      984.107        1.114        0.308      124.000       24.766        0.040      340.982       15.377      859.314
04/23/2013  19:44:00       41.443      114.300      -21.324       53.284       50.341       30.059     2839.209     2534.223      903.556        1.076        0.314      121.582       28.446        0.055      340.955       15.334      859.306
04/23/2013  19:45:00       17.111      132.346      -25.063       31.742       38.086       18.880     1007.577     1450.564      356.440        1.062        0.141      133.447       20.282        0.023      340.986       15.385      859.302
04/23/2013  19:46:00       -5.358      115.659      -27.033       47.219       27.733       16.643     2229.655      769.096      276.997        0.871        0.164      115.783       16.373        0.020      340.991       15.393      859.315
04/23/2013  19:47:00      -38.741      103.682      -21.799       39.625       56.209       24.519     1570.145     3159.420      601.188        0.903        0.267      110.683       26.001        0.055      341.092       15.563      859.324
04/23/2013  19:48:00      -79.386      127.703      -23.955       40.124       55.874       27.245     1609.895     3121.914      742.280        1.433        0.274      150.367       23.996        0.025      341.071       15.529      859.338
04/23/2013  19:49:00       -7.152      230.083      -44.653       50.704       63.428       27.426     2570.892     4023.111      752.208        3.116        0.367      230.194       34.500        0.022      340.925       15.278      859.355
04/23/2013  19:50:00      -61.279      231.897      -36.528       40.654       72.994       27.395     1652.714     5328.150      750.476        3.330        0.387      239.857       31.913        0.018      340.899       15.235      859.363
04/23/2013  19:51:00       -1.801      222.799      -31.831       56.632       76.565       30.233     3207.234     5862.134      914.029        3.032        0.499      222.806       31.047        0.019      340.839       15.133      859.375
04/23/2013  19:52:00      -32.179      167.718      -29.637       35.326       43.271       17.920     1247.946     1872.361      321.133        1.674        0.172      170.777       17.142        0.010      340.879       15.204      859.385
04/23/2013  19:53:00      -40.314      188.391      -31.497       47.644       38.990       22.827     2269.987     1520.193      521.073        2.121        0.216      192.656       19.964        0.011      340.821       15.105      859.394
04/23/2013  19:54:00      -42.326      112.629      -21.687       42.812       52.492       28.294     1832.849     2755.367      800.543        1.017        0.269      120.319       11.201        0.009      340.856       15.165      859.406
04/23/2013  19:55:00      -14.781      215.115      -41.885       37.251       39.676       21.564     1387.609     1574.147      464.998        2.584        0.171      215.623       14.569        0.005      340.773       15.021      859.423
04/23/2013  19:56:00      -29.296      217.345      -40.012       38.915       40.957       18.469     1514.344     1677.484      341.090        2.661        0.177      219.310       12.993        0.004      340.755       14.991      859.437
04/23/2013  19:57:00      -48.216      222.604      -41.088       52.585       56.775       26.657     2765.138     3223.394      710.611        3.013        0.335      227.766       29.252        0.016      340.723       14.937      859.449
04/23/2013  19:58:00      -23.317      183.355      -32.907       47.560       38.204       21.974     2261.920     1459.577      482.866        1.972        0.210      184.832       15.944        0.007      340.702       14.904      859.455
04/23/2013  19:59:00      -34.782      146.121      -25.844       47.829       31.742       16.339     2287.573     1007.579      266.947        1.339        0.178      150.204       13.637        0.008      340.715       14.927      859.471
04/23/2013  20:00:00      -51.218       94.670      -18.907       36.502       39.724       19.059     1332.387     1578.029      363.230        0.761        0.164      107.637       20.402        0.036      340.797       15.065      859.484
04/23/2013  20:01:00      -40.830       74.296       -5.526       36.116       42.870       17.906     1304.398     1837.864      320.627        0.534        0.173       84.776       18.998        0.050      340.693       14.891      859.490
04/23/2013  20:02:00      -70.198      142.184      -27.841       52.713       70.987       26.329     2778.617     5039.205      693.221        1.721        0.426      158.569       32.911        0.043      340.639       14.798      859.481
04/23/2013  20:03:00      -25.638       99.043       -8.170       41.331       50.475       30.613     1708.266     2547.738      937.161        0.786        0.260      102.307       27.019        0.070      340.571       14.682      859.489
04/23/2013  20:04:00      -67.551       66.534      -11.440       40.066       55.783       26.582     1605.289     3111.739      706.621        0.727        0.271       94.815       27.245        0.083      340.649       14.814      859.505
04/23/2013  20:05:00      -91.756      127.162      -23.164       64.850       66.884       42.019     4205.548     4473.403     1765.572        1.778        0.522      156.810       52.008        0.110      340.471       14.513      859.516
04/23/2013  20:06:00      -85.072      156.171      -26.804       57.393       65.311       29.446     3293.928     4265.537      867.091        2.038        0.421      177.838       31.326        0.031      340.495       14.553      859.512
04/23/2013  20:07:00      -46.570      175.600      -15.098       33.458       71.773       30.106     1119.414     5151.372      906.380        2.020        0.359      181.670       26.353        0.021      340.431       14.445      859.514
04/23/2013  20:08:00      -12.986      112.391      -10.344       27.921       38.375       21.850      779.580     1472.605      477.407        0.782        0.136      113.139       16.629        0.022      340.392       14.380      859.519
04/23/2013  20:09:00      -60.898      160.525      -15.062       56.060       97.139       30.033     3142.743     9435.922      902.000        2.159        0.674      171.688       34.411        0.040      340.330       14.275      859.523
04/23/2013  20:10:00      -43.125      179.911      -20.774       57.615       67.458       26.292     3319.516     4550.609      691.265        2.161        0.428      185.008       23.130        0.016      340.323       14.262      859.531
04/23/2013  20:11:00       16.100       74.255       -7.360       77.765       42.222       20.674     6047.415     1782.730      427.394        0.704        0.413       75.981       21.876        0.083      340.249       14.139      859.542
04/23/2013  20:12:00       40.512       25.867       -0.281       40.831       31.812       22.245     1667.202     1012.029      494.858        0.274        0.159       48.066       19.685        0.168      340.105       13.895      859.543
04/23/2013  20:13:00       62.044       69.351       -7.035       38.532       32.155       24.300     1484.714     1033.950      590.473        0.591        0.155       93.054       20.342        0.048      340.121       13.922      859.541
04/23/2013  20:14:00        6.407       34.657        2.925       25.933       22.410       21.935      672.517      502.222      481.136        0.145        0.083       35.244       15.344        0.190      340.097       13.882      859.544
04/23/2013  20:15:00      -13.838      107.286      -19.047       16.642       30.945       14.981      276.946      957.586      224.434        0.676        0.073      108.175       15.077        0.019      340.174       14.010      859.543
04/23/2013  20:16:00      -53.060       89.147      -17.155       46.662       26.940       15.897     2177.375      725.778      252.704        0.711        0.158      103.743       10.895        0.011      340.231       14.108      859.550
04/23/2013  20:17:00      -74.374       71.306      -16.903       18.756       28.712       17.921      351.793      824.400      321.160        0.620        0.075      103.034       16.121        0.024      340.246       14.134      859.550
04/23/2013  20:18:00     -131.207      108.748      -37.516       36.357       39.733       24.115     1321.799     1578.717      581.521        1.696        0.174      170.415       24.219        0.020      340.191       14.039      859.553
04/23/2013  20:19:00     -107.651       66.382      -15.813       36.472       42.675       26.262     1330.170     1821.117      689.682        1.004        0.192      126.473       21.079        0.028      340.170       14.004      859.569
04/23/2013  20:20:00      -71.771       76.279      -12.013       34.915       56.168       23.651     1219.043     3154.798      559.359        0.802        0.247      104.735       26.510        0.064      340.069       13.835      859.584
04/23/2013  20:21:00     -101.246       72.893      -23.772       43.264       50.572       22.916     1871.760     2557.527      525.135        1.054        0.248      124.757       24.146        0.037      340.141       13.958      859.586
04/23/2013  20:22:00      -28.207       78.109      -16.184       29.771       67.566       20.838      886.293     4565.180      434.243        0.652        0.294       83.046       19.358        0.054      340.131       13.939      859.583
04/23/2013  20:23:00      -93.418      104.338      -28.066       43.842       46.043       21.523     1922.147     2119.980      463.248        1.245        0.225      140.048       21.557        0.024      340.057       13.817      859.582
04/23/2013  20:24:00      -79.293      134.290      -24.318       25.940       50.453       19.385      672.866     2545.479      375.778        1.425        0.180      155.952       14.370        0.008      340.040       13.786      859.583
04/23/2013  20:25:00     -100.477       50.445      -21.440       27.178       23.957       20.626      738.629      573.926      425.426        0.742        0.087      112.429       14.927        0.018      340.093       13.875      859.589
04/23/2013  20:26:00      -60.338      113.170      -21.319       37.822       48.918       26.189     1430.497     2392.971      685.873        1.071        0.225      128.251       14.917        0.014      339.965       13.661      859.598
04/23/2013  20:27:00     -103.036       46.426      -19.360       33.454       27.250       20.926     1119.138      742.559      437.906        0.772        0.115      113.012       14.864        0.017      340.004       13.723      859.603
04/23/2013  20:28:00     -114.574       94.181      -25.509       32.215       33.013       25.125     1037.824     1089.842      631.251        1.270        0.138      148.315       18.483        0.016      339.954       13.642      859.617
04/23/2013  20:29:00     -123.438      143.310      -41.747       41.551       40.292       22.153     1726.512     1623.439      490.739        2.068        0.192      189.142       24.684        0.017      339.930       13.599      859.636
04/23/2013  20:30:00      -79.096      105.456      -24.456       49.480       49.178       24.320     2448.232     2418.459      591.461        1.172        0.273      131.822       27.822        0.045      339.909       13.565      859.651
04/23/2013  20:31:00      -43.561       67.193       -7.397       30.378       56.267       23.330      922.821     3166.008      544.273        0.555        0.232       80.078       25.131        0.098      339.899       13.548      859.655
04/23/2013  20:32:00      -34.384       67.717       -5.263       45.286       41.728       24.894     2050.862     1741.200      619.734        0.510        0.221       75.946       24.576        0.105      339.932       13.604      859.668
04/23/2013  20:33:00      -44.541      100.388      -14.571       59.844       50.563       24.671     3581.266     2556.605      608.650        0.951        0.337      109.825       32.307        0.087      339.863       13.489      859.672
04/23/2013  20:34:00      -53.050       97.320       -9.824       28.912       44.893       18.174      835.915     2015.390      330.293        0.778        0.159      110.839       14.691        0.018      339.881       13.519      859.694
04/23/2013  20:35:00       -7.127      115.231      -19.445       31.664       34.407       25.843     1002.605     1183.843      667.848        0.828        0.143      115.451       23.325        0.041      339.846       13.459      859.719
04/23/2013  20:36:00       26.871       90.462      -15.278       29.246       43.199       23.006      855.318     1866.169      529.258        0.619        0.163       94.369       18.086        0.037      339.801       13.384      859.731
04/23/2013  20:37:00       -2.269       79.882      -10.228       36.673       49.870       25.071     1344.930     2487.059      628.550        0.547        0.223       79.914       20.972        0.069      339.766       13.325      859.730
04/23/2013  20:38:00      -71.324      138.372      -22.566       50.004       48.024       17.798     2500.383     2306.341      316.775        1.493        0.256      155.673       17.217        0.012      339.841       13.450      859.729
04/23/2013  20:39:00      -34.059      130.433      -15.953       49.048       57.063       28.132     2405.698     3256.189      791.430        1.244        0.323      134.806       29.351        0.047      339.809       13.395      859.738
04/23/2013  20:40:00      -10.795      105.773      -18.357       25.152       23.879       18.287      632.601      570.213      334.429        0.659        0.077      106.322       14.677        0.019      339.766       13.325      859.752
04/23/2013  20:41:00      -45.481      121.146      -12.193       31.962       49.799       32.702     1021.546     2479.977     1069.453        1.073        0.229      129.401       29.209        0.051      339.816       13.410      859.764
04/23/2013  20:42:00      -80.077      177.588      -31.182       78.528       52.773       34.789     6166.708     2784.973     1210.267        2.454        0.508      194.807       37.296        0.037      339.820       13.413      859.773
04/23/2013  20:43:00     -100.796      103.510      -14.655       50.212       59.475       27.015     2521.197     3537.321      729.788        1.394        0.339      144.479       24.139        0.028      339.809       13.397      859.771
04/23/2013  20:44:00     -104.468       87.977      -19.571       37.332       38.289       30.676     1393.696     1466.058      941.002        1.142        0.190      136.577       28.455        0.043      339.807       13.393      859.785
04/23/2013  20:45:00      -42.849      136.086      -11.686       48.190       39.159       25.711     2322.302     1533.399      661.045        1.250        0.226      142.672       23.352        0.027      339.787       13.360      859.787
04/23/2013  20:46:00      -57.270       47.046      -11.391       47.068       30.602       19.020     2215.411      936.500      361.743        0.457        0.176       74.116       23.245        0.098      339.822       13.420      859.796
04/23/2013  20:47:00     -112.788       42.971      -14.172       38.452       25.980       21.023     1478.534      674.958      441.979        0.868        0.130      120.697       13.561        0.013      339.773       13.336      859.809
04/23/2013  20:48:00      -99.938      120.539      -31.599       42.296       48.535       27.863     1788.978     2355.673      776.326        1.522        0.246      156.580       23.965        0.023      339.796       13.374      859.819
04/23/2013  20:49:00      -82.873       70.726      -17.469       36.329       47.537       25.666     1319.807     2259.799      658.754        0.821        0.212      108.950       23.795        0.048      339.821       13.417      859.828
04/23/2013  20:50:00      -86.081       97.524      -20.537       39.151       54.660       29.409     1532.771     2987.731      864.861        1.136        0.269      130.080       21.544        0.027      339.818       13.413      859.834
04/23/2013  20:51:00     -123.894      156.133      -37.628       54.467       47.885       25.985     2966.624     2293.014      675.222        2.354        0.297      199.317       16.835        0.007      339.860       13.480      859.852
04/23/2013  20:52:00      -94.546      129.597      -26.116       52.340       41.997       27.328     2739.446     1763.732      746.819        1.583        0.262      160.419       24.857        0.024      339.815       13.405      859.868
04/23/2013  20:53:00     -105.783      106.664      -18.455       57.622       75.668       37.320     3320.280     5725.580     1392.773        1.667        0.522      150.224       36.496        0.059      339.800       13.380      859.878
04/23/2013  20:54:00      -11.934       53.355       -5.870       33.274       43.483       21.991     1107.184     1890.762      483.604        0.325        0.174       54.673       21.336        0.152      339.806       13.390      859.887
04/23/2013  20:55:00      -27.628       92.005      -16.634       41.915       62.892       22.828     1756.830     3955.348      521.137        0.787        0.312       96.063       10.730        0.012      339.782       13.352      859.892
04/23/2013  20:56:00      -17.002       83.559      -20.027       24.276       56.756       22.995      589.320     3221.298      528.793        0.600        0.217       85.272       28.012        0.108      339.749       13.296      859.910
04/23/2013  20:57:00      -19.790       85.595      -12.360       38.524       40.483       18.307     1484.112     1638.867      335.130        0.566        0.173       87.853        9.494        0.012      339.730       13.263      859.918
04/23/2013  20:58:00       13.378       58.023       -2.186       23.936       26.863       17.921      572.952      721.620      321.172        0.258        0.081       59.545       14.171        0.057      339.557       12.971      859.911
04/23/2013  20:59:00      -10.287      114.229      -14.277       27.775       61.807       20.520      771.457     3820.073      421.088        0.918        0.251      114.692       22.664        0.039      339.578       13.009      859.914
04/23/2013  21:00:00        7.002        4.099        6.274       22.822       17.998       12.391      520.850      323.917      153.528        0.055        0.050        8.114       12.162        2.247      339.361       12.641      859.920
04/23/2013  21:01:00       22.763        8.959        0.192       16.892       12.116       10.798      285.347      146.800      116.601        0.057        0.027       24.462        9.086        0.138      339.501       12.876      859.923
04/23/2013  21:02:00        4.622      -36.444       -2.743       10.728       23.722       11.870      115.099      562.719      140.885        0.109        0.041       36.736        9.788        0.071      339.638       13.110      859.926
04/23/2013  21:03:00       -3.425      -15.875        2.485       10.655       26.060       12.646      113.537      679.123      159.909        0.061        0.048       16.240        5.736        0.125      339.542       12.947      859.933
04/23/2013  21:04:00      -11.385      -18.035        6.242       22.193       18.478       11.355      492.540      341.425      128.925        0.073        0.048       21.328       12.226        0.329      339.585       13.019      859.945
04/23/2013  21:05:00      -23.248       14.384        0.852       15.113       16.392       13.139      228.416      268.683      172.628        0.071        0.033       27.339       10.594        0.150      339.562       12.981      859.951
04/23/2013  21:06:00      -35.688        6.853        5.179       23.848       21.253       13.112      568.737      451.675      171.916        0.127        0.060       36.340       11.235        0.096      339.523       12.915      859.954
04/23/2013  21:07:00      -33.640       19.408       -2.318       24.535       19.084        9.449      601.980      364.181       89.288        0.128        0.053       38.837        6.639        0.029      339.583       13.018      859.958
04/23/2013  21:08:00     -109.514        2.977       -7.056       34.266       21.471       17.031     1174.188      461.007      290.047        0.699        0.096      109.554       17.082        0.024      339.484       12.849      859.970
04/23/2013  21:09:00      -63.230        0.404       -8.362       38.112       19.539       17.599     1452.543      381.762      309.729        0.311        0.107       63.231       17.674        0.078      339.474       12.832      859.996
04/23/2013  21:10:00      -87.486       18.622      -16.386       29.763       17.834       15.309      885.836      318.035      234.367        0.485        0.072       89.446       15.535        0.030      339.473       12.832      860.014
04/23/2013  21:11:00      -87.910        7.234       -9.873       33.735       22.707       14.391     1138.064      515.595      207.101        0.487        0.093       88.207       11.589        0.017      339.404       12.716      860.027
04/23/2013  21:12:00      -52.853       28.069      -20.800       17.382       19.209       15.469      302.127      368.968      239.287        0.246        0.046       59.844        7.612        0.016      339.425       12.750      860.052
04/23/2013  21:13:00      -45.552       28.502      -12.743       22.676       33.881       16.216      514.210     1147.950      262.960        0.249        0.096       53.734       12.015        0.050      339.427       12.753      860.067
04/23/2013  21:14:00      -64.823       11.937       -5.856       21.515       22.543       13.835      462.893      508.188      191.398        0.277        0.058       65.913        9.925        0.023      339.454       12.798      860.079
04/23/2013  21:15:00     -109.276      -51.897       -7.197       30.544       33.605       18.059      932.963     1129.295      326.110        0.854        0.119      120.974       17.859        0.022      339.369       12.655      860.087
04/23/2013  21:16:00      -72.735       -3.961        3.490       34.468       38.217       20.837     1188.036     1460.567      434.195        0.420        0.154       72.843       13.125        0.032      339.271       12.489      860.106
04/23/2013  21:17:00      -62.989        5.287       -7.468       16.486       28.961       12.391      271.788      838.739      153.547        0.266        0.063       63.210        2.134        0.001      339.323       12.577      860.108
04/23/2013  21:18:00      -46.307       67.228      -15.980       14.627       23.199       12.975      213.937      538.190      168.350        0.392        0.046       81.633       11.836        0.021      339.335       12.598      860.124
04/23/2013  21:19:00      -77.239       29.909      -19.868       20.872       25.025       15.916      435.631      626.243      253.331        0.428        0.066       82.828       12.999        0.025      339.379       12.673      860.130
04/23/2013  21:20:00      -95.877        9.547      -11.175       31.927       31.277       17.045     1019.364      978.271      290.519        0.585        0.114       96.352       16.177        0.028      339.338       12.602      860.139
04/23/2013  21:21:00      -71.563      -12.471       -8.916       37.193       56.691       20.919     1383.348     3213.920      437.609        0.519        0.252       72.642       20.695        0.081      339.304       12.545      860.147
04/23/2013  21:22:00      -94.463       18.670      -20.715       29.488       26.492       15.883      869.525      701.845      252.267        0.576        0.091       96.290        7.021        0.005      339.414       12.730      860.164
04/23/2013  21:23:00      -76.998       65.845      -22.344       28.218       24.064       15.552      796.243      579.093      241.859        0.619        0.081      101.313        3.680        0.001      339.296       12.534      860.178
04/23/2013  21:24:00      -67.372       53.764       -7.607       29.600       35.436       16.134      876.186     1255.728      260.307        0.494        0.120       86.195        5.568        0.004      339.292       12.524      860.185
04/23/2013  21:25:00     -137.117       91.418      -36.956       49.049       51.799       28.596     2405.835     2683.173      817.752        1.721        0.295      164.797       23.768        0.021      339.359       12.636      860.188
04/23/2013  21:26:00      -66.205       83.743      -17.242       34.021       35.670       21.892     1157.443     1272.341      479.260        0.730        0.145      106.752       20.366        0.036      339.299       12.536      860.188
04/23/2013  21:27:00      -51.792       43.817       -9.474       25.332       32.928       19.933      641.691     1084.263      397.309        0.341        0.106       67.841       15.733        0.054      339.335       12.599      860.184
04/23/2013  21:28:00     -108.924       -1.196      -15.328       31.024       27.759       14.225      962.469      770.581      202.354        0.702        0.097      108.930       16.278        0.022      339.291       12.522      860.183
04/23/2013  21:29:00     -102.068       35.314      -17.559       69.154       32.743       27.596     4782.216     1072.120      761.560        0.929        0.331      108.004       19.820        0.034      339.294       12.528      860.180
04/23/2013  21:30:00      -89.149      100.024      -25.288       32.736       36.386       25.098     1071.661     1323.911      629.928        1.081        0.151      133.986       22.849        0.029      339.191       12.355      860.179
04/23/2013  21:31:00     -149.734       64.327      -13.334       70.607       40.088       36.323     4985.419     1607.078     1319.327        1.732        0.396      162.967       31.163        0.037      339.217       12.398      860.162
04/23/2013  21:32:00      -72.825        4.459       -3.098       40.737       42.082       35.230     1659.470     1770.918     1241.143        0.500        0.234       72.961       14.584        0.040      339.257       12.466      860.138
04/23/2013  21:33:00     -111.949        4.166      -14.058       25.412       27.776       17.533      645.762      771.497      307.413        0.724        0.086      112.026       10.357        0.009      339.275       12.497      860.120
04/23/2013  21:34:00     -117.866       41.111      -16.309       47.738       49.958       28.439     2278.950     2495.806      808.772        1.071        0.279      124.830       23.023        0.034      339.227       12.414      860.117
04/23/2013  21:35:00      -34.052       74.516        0.649       29.527       40.803       23.051      871.828     1664.867      531.332        0.489        0.153       81.927       16.535        0.041      339.168       12.315      860.113
04/23/2013  21:36:00      -55.954       31.524       -7.907       28.514       41.660       26.151      813.044     1735.529      683.895        0.371        0.162       64.223       24.354        0.144      339.210       12.387      860.112
04/23/2013  21:37:00      -84.100        0.048       -7.043       21.818       27.705       16.570      476.036      767.556      274.551        0.432        0.076       84.100        8.724        0.011      339.236       12.431      860.109
04/23/2013  21:38:00      -75.890       12.566      -10.535       35.819       25.634       26.759     1282.986      657.104      716.037        0.434        0.133       76.923       26.331        0.117      339.175       12.328      860.106
04/23/2013  21:39:00      -81.600       -2.677       -9.781       25.552       25.972       16.553      652.901      674.551      273.997        0.418        0.080       81.644       15.041        0.034      339.113       12.225      860.115
04/23/2013  21:40:00      -71.352       22.487      -16.837       26.405       38.049       16.263      697.210     1447.730      264.477        0.414        0.120       74.812       11.758        0.025      339.123       12.242      860.119
04/23/2013  21:41:00      -73.838       15.375      -15.908       29.824       31.488       16.113      889.499      991.524      259.617        0.404        0.107       75.421       10.896        0.021      339.174       12.326      860.120
04/23/2013  21:42:00      -74.242      -14.445      -13.530       23.239       16.414       12.994      540.044      269.430      168.846        0.344        0.049       75.634        8.257        0.012      339.151       12.287      860.117
04/23/2013  21:43:00      -98.094       -5.471      -10.650       21.565       19.597       11.010      465.065      384.040      121.226        0.537        0.049       98.247        7.775        0.006      339.200       12.370      860.114
04/23/2013  21:44:00      -90.414       -3.317      -21.618       27.126       28.243       17.867      735.824      797.663      319.223        0.525        0.093       90.475       13.440        0.022      339.155       12.295      860.123
04/23/2013  21:45:00     -106.574      -19.468      -13.929       39.026       31.696       16.127     1523.019     1004.615      260.094        0.736        0.139      108.338       15.647        0.021      339.072       12.155      860.128
04/23/2013  21:46:00      -63.203       32.137      -10.568       18.555       21.871       13.627      344.275      478.346      185.692        0.307        0.050       70.904        8.699        0.015      339.074       12.159      860.143
04/23/2013  21:47:00      -80.319       10.561      -16.979       27.571       26.709       14.087      760.187      713.366      198.435        0.426        0.084       81.010       15.967        0.039      339.110       12.218      860.163
04/23/2013  21:48:00      -81.300       38.512      -12.049       49.933       28.017       19.001     2493.258      784.941      361.030        0.594        0.182       89.960       23.366        0.067      339.120       12.234      860.174
04/23/2013  21:49:00     -100.312       51.879      -16.137       35.213       23.169       16.789     1239.934      536.823      281.867        0.754        0.103      112.933       14.982        0.018      339.148       12.283      860.192
04/23/2013  21:50:00      -63.462       40.144      -16.207       35.307       24.956       19.821     1246.605      622.796      392.866        0.408        0.113       75.093        5.829        0.006      339.186       12.347      860.206
04/23/2013  21:51:00      -77.615       75.090      -21.230       41.331       48.850       28.495     1708.243     2386.310      811.959        0.851        0.245      107.994       30.142        0.078      339.233       12.427      860.223
04/23/2013  21:52:00      -35.380       20.193        0.637       18.843       25.119       12.441      355.074      630.947      154.780        0.140        0.057       40.736        7.866        0.037      339.179       12.335      860.225
04/23/2013  21:53:00      -50.376        8.846       -6.700       28.752       17.722       14.113      826.652      314.081      199.180        0.200        0.067       51.147       14.246        0.078      339.162       12.306      860.226
04/23/2013  21:54:00      -36.952      105.620      -18.749       39.061       36.171       20.523     1525.756     1308.366      421.183        0.806        0.163      111.898       15.247        0.019      339.291       12.521      860.233
04/23/2013  21:55:00      -66.257       39.429      -10.140       24.167       26.891       12.455      584.033      723.119      155.130        0.375        0.073       77.101        7.164        0.009      339.291       12.523      860.220
04/23/2013  21:56:00      -57.017       62.306       -7.912       41.142       36.251       26.314     1692.657     1314.101      692.436        0.545        0.185       84.457       26.935        0.102      339.294       12.527      860.221
04/23/2013  21:57:00      -50.261       44.423       -8.166       33.897       26.590       16.129     1149.037      707.010      260.131        0.334        0.106       67.079       17.292        0.066      339.331       12.593      860.212
04/23/2013  21:58:00      -66.456       58.822      -16.385       29.652       26.250       15.102      879.259      689.060      228.079        0.497        0.090       88.749       11.839        0.018      339.384       12.682      860.218
04/23/2013  21:59:00      -61.969       11.471      -12.602       19.994       22.409       16.312      399.766      502.185      266.073        0.265        0.058       63.022        8.354        0.018      339.213       12.391      860.204
04/23/2013  22:00:00      -45.834       12.658       -6.064       19.627       20.248       13.060      385.212      409.983      170.558        0.163        0.048       47.550        9.006        0.036      339.264       12.478      860.206
04/23/2013  22:01:00      -73.922       36.019      -17.180       20.931       24.180       23.860      438.117      584.663      569.286        0.432        0.080       82.230        8.943        0.012      339.368       12.654      860.201
04/23/2013  22:02:00      -61.481       19.072      -10.712       25.994       24.893       16.746      675.686      619.657      280.418        0.292        0.079       64.372       13.174        0.042      339.342       12.609      860.186
04/23/2013  22:03:00      -70.337       -8.259      -10.334       22.091       19.232       12.573      488.005      369.882      158.083        0.307        0.051       70.820        8.347        0.014      339.267       12.482      860.178
04/23/2013  22:04:00      -71.011        4.919      -13.110       21.364       20.690       12.961      456.437      428.065      167.998        0.315        0.053       71.181       10.047        0.020      339.320       12.572      860.175
04/23/2013  22:05:00      -82.243       34.044      -11.593       21.568       35.081       17.407      465.157     1230.647      303.019        0.503        0.100       89.010       17.479        0.039      339.326       12.581      860.165
04/23/2013  22:06:00      -86.733       49.990      -23.865       29.417       41.474       21.933      865.350     1720.081      481.048        0.683        0.153      100.108       15.293        0.023      339.340       12.606      860.162
04/23/2013  22:07:00      -76.811       14.314      -12.041       16.564       27.261       15.375      274.379      743.144      236.381        0.375        0.063       78.133       10.997        0.020      339.321       12.574      860.160
04/23/2013  22:08:00      -96.360       25.113      -18.096       29.171       27.926       20.153      850.921      779.842      406.149        0.614        0.102       99.578       14.808        0.022      339.241       12.440      860.163
04/23/2013  22:09:00      -70.315       19.720      -12.092       26.672       23.715       19.828      711.413      562.381      393.156        0.357        0.083       73.027       11.654        0.025      339.179       12.335      860.167
04/23/2013  22:10:00      -82.181       31.788      -21.390       27.108       27.242       17.170      734.866      742.110      294.814        0.500        0.089       88.115        9.499        0.012      339.136       12.261      860.186
04/23/2013  22:11:00      -95.144       40.604      -10.741       30.082       29.135       22.627      904.909      848.844      511.984        0.654        0.113      103.446       15.454        0.022      339.153       12.292      860.184
04/23/2013  22:12:00      -98.130       44.958      -20.759       18.797       30.154       12.439      353.315      909.238      154.733        0.675        0.071      107.939       10.279        0.009      339.224       12.410      860.196
04/23/2013  22:13:00     -101.380       18.920      -13.950       18.576       16.579       14.256      345.066      274.848      203.247        0.583        0.041      103.131        3.979        0.001      339.214       12.395      860.205
04/23/2013  22:14:00      -83.750       20.410      -11.447       38.346       19.677       18.177     1470.438      387.201      330.419        0.487        0.109       86.201       15.774        0.033      339.146       12.281      860.217
04/23/2013  22:15:00      -71.861        9.207        0.850       30.011       30.903       20.391      900.647      954.989      415.787        0.376        0.114       72.448        9.419        0.017      339.139       12.268      860.226
04/23/2013  22:16:00      -48.864      -11.489      -10.909       26.125       19.656       11.624      682.515      386.353      135.117        0.192        0.060       50.197        2.873        0.003      339.115       12.225      860.236
04/23/2013  22:17:00      -95.063       42.593      -20.112       27.563       28.935       18.808      759.746      837.252      353.744        0.660        0.098      104.169       15.227        0.021      339.196       12.363      860.244
04/23/2013  22:18:00      -99.467       53.839      -16.144       30.623       34.609       24.252      937.784     1197.763      588.155        0.789        0.136      113.103       25.877        0.052      339.164       12.311      860.256
04/23/2013  22:19:00      -74.786       73.132      -21.517       24.190       30.481       15.923      585.159      929.116      253.527        0.659        0.088      104.600       10.248        0.010      339.126       12.245      860.264
04/23/2013  22:20:00      -83.027       64.702      -20.237       28.897       35.321       18.492      835.017     1247.569      341.949        0.696        0.121      105.261       11.906        0.013      339.139       12.269      860.263
04/23/2013  22:21:00      -65.586       22.190      -10.674       17.353       19.676       12.258      301.139      387.144      150.260        0.287        0.042       69.239       10.933        0.025      339.170       12.319      860.267
04/23/2013  22:22:00      -80.691       54.916      -20.864       22.379       39.046       17.777      500.834     1524.598      316.027        0.615        0.117       97.605       19.133        0.038      339.146       12.279      860.265
04/23/2013  22:23:00      -92.310       81.610      -27.415       29.756       29.420       16.838      885.445      865.530      283.523        0.898        0.102      123.213       13.842        0.013      339.195       12.363      860.260
04/23/2013  22:24:00      -72.484       32.538      -18.292       18.531       22.696       16.149      343.383      515.116      260.790        0.388        0.056       79.452        8.248        0.011      339.106       12.211      860.273
04/23/2013  22:25:00      -57.629       27.732       -9.016       18.087       26.412       15.055      327.139      697.606      226.640        0.271        0.063       63.954        8.445        0.017      339.095       12.195      860.263
04/23/2013  22:26:00      -37.531       33.009      -16.514       16.530       25.979       14.076      273.242      674.909      198.139        0.196        0.057       49.982        3.595        0.005      339.135       12.259      860.251
04/23/2013  22:27:00      -53.150        4.395      -15.005       19.533       32.722       12.009      381.519     1070.716      144.218        0.233        0.080       53.332        9.204        0.030      339.038       12.098      860.243
04/23/2013  22:28:00      -71.018       24.886      -10.981       19.653       29.626       20.230      386.228      877.687      409.233        0.373        0.084       75.252       17.647        0.055      339.103       12.208      860.231
04/23/2013  22:29:00      -66.625      -14.073      -14.174       17.825       38.389       13.163      317.730     1473.746      173.277        0.340        0.098       68.096        7.462        0.012      339.040       12.099      860.213
04/23/2013  22:30:00      -69.306       14.490      -11.794       24.279       25.881       15.371      589.477      669.843      236.264        0.332        0.075       70.804       12.205        0.030      339.091       12.188      860.206
04/23/2013  22:31:00      -61.329       13.591      -11.612       20.007       42.450       17.848      400.289     1802.011      318.565        0.330        0.126       62.817       14.232        0.051      339.098       12.198      860.189
04/23/2013  22:32:00      -67.924       32.581      -17.145       26.268       31.897       15.432      689.986     1017.448      238.160        0.396        0.097       75.334       10.079        0.018      339.084       12.176      860.197
04/23/2013  22:33:00      -73.638      -19.578       -8.388       21.341       23.121       17.167      455.427      534.593      294.697        0.358        0.064       76.196       10.176        0.018      338.927       11.911      860.197
04/23/2013  22:34:00      -87.215        3.556      -13.680       29.762       44.058       14.980      885.753     1941.142      224.410        0.543        0.153       87.288       13.182        0.023      338.901       11.867      860.192
04/23/2013  22:35:00      -87.135       -1.499       -6.586       31.149       38.510       16.224      970.244     1482.992      263.203        0.518        0.136       87.148       15.897        0.033      338.792       11.684      860.198
04/23/2013  22:36:00      -64.730        4.234       -6.484       35.025       20.857       14.807     1226.744      434.997      219.235        0.307        0.094       64.868       10.954        0.029      338.833       11.753      860.197
04/23/2013  22:37:00      -85.505        2.045       -9.202       47.397       24.301       19.050     2246.482      590.547      362.917        0.530        0.160       85.529       18.723        0.048      338.749       11.613      860.189
04/23/2013  22:38:00      -98.233      -12.140      -11.045       40.358       25.426       17.173     1628.774      646.481      294.923        0.624        0.129       98.980       21.663        0.048      338.683       11.501      860.196
04/23/2013  22:39:00     -101.977      -18.078       -7.396       21.324       24.104       18.861      454.695      581.023      355.744        0.609        0.070      103.567       10.393        0.010      338.611       11.381      860.191
04/23/2013  22:40:00     -111.843       -9.596       -8.736       48.550       21.890       20.479     2357.073      479.187      419.381        0.797        0.163      112.254       23.958        0.046      338.532       11.248      860.194
04/23/2013  22:41:00     -104.995      -31.012      -15.140       41.043       22.431       15.924     1684.509      503.166      253.568        0.733        0.122      109.479       17.623        0.026      338.451       11.110      860.195
04/23/2013  22:42:00     -110.959       -6.340      -15.348       50.726       43.724       21.029     2573.098     1911.818      442.237        0.876        0.246      111.140       20.319        0.033      338.382       10.996      860.179
04/23/2013  22:43:00     -150.249      -16.010      -12.176       38.413       33.718       19.571     1475.584     1136.871      383.028        1.299        0.150      151.099       18.066        0.014      338.426       11.071      860.179
04/23/2013  22:44:00     -121.021      -42.951      -14.791       21.167       21.627       16.331      448.045      467.713      266.691        0.895        0.059      128.417       10.643        0.007      338.415       11.050      860.185
04/23/2013  22:45:00      -94.140      -32.026       -8.246       33.477       34.967       19.826     1120.686     1222.682      393.051        0.635        0.137       99.438       17.082        0.030      338.331       10.911      860.175
04/23/2013  22:46:00     -106.355      -42.652      -13.124       24.215       25.102       16.194      586.372      630.128      262.247        0.739        0.074      114.589       13.425        0.014      338.474       11.150      860.178
04/23/2013  22:47:00      -79.631      -10.077      -13.801       17.999       25.738       14.248      323.963      662.439      203.014        0.391        0.059       80.266        8.357        0.011      338.486       11.170      860.175
04/23/2013  22:48:00      -85.893      -19.874      -14.146       19.888       16.824       15.712      395.516      283.062      246.862        0.445        0.046       88.163        7.422        0.007      338.554       11.284      860.162
04/23/2013  22:49:00      -94.395      -30.356      -11.067       25.686       24.588       20.138      659.754      604.572      405.520        0.581        0.083       99.156       16.643        0.028      338.463       11.133      860.164
04/23/2013  22:50:00      -90.460       -5.385      -16.529       23.579       21.898       15.253      555.972      479.514      232.642        0.488        0.063       90.621       16.152        0.032      338.428       11.074      860.163
04/23/2013  22:51:00     -100.370      -29.300      -15.938       16.774       24.174       16.212      281.379      584.358      262.845        0.616        0.056      104.559        9.437        0.008      338.452       11.113      860.160
04/23/2013  22:52:00     -109.274      -36.051      -10.775       17.810       21.703       14.887      317.213      471.033      221.613        0.718        0.050      115.067        5.341        0.002      338.430       11.077      860.174
04/23/2013  22:53:00     -104.186      -17.606      -10.851       19.197       18.127       13.710      368.522      328.580      187.959        0.608        0.044      105.663        9.136        0.007      338.363       10.963      860.186
04/23/2013  22:54:00     -113.943      -30.120      -10.619       36.271       24.517       16.103     1315.600      601.073      259.292        0.809        0.109      117.857       19.318        0.027      338.344       10.931      860.189
04/23/2013  22:55:00     -110.629      -10.563      -10.131       35.319       25.338       19.145     1247.404      641.998      366.528        0.735        0.113      111.132       18.929        0.029      338.183       10.661      860.200
04/23/2013  22:56:00     -125.647      -21.642      -10.851       31.289       20.178       16.169      978.990      407.147      261.445        0.901        0.082      127.497       13.859        0.012      338.181       10.658      860.206
04/23/2013  22:57:00     -105.365      -36.000       -6.858       27.182       32.955       16.468      738.872     1086.017      271.184        0.727        0.105      111.346       13.781        0.015      338.225       10.732      860.212
04/23/2013  22:58:00     -106.275      -53.023       -3.578       30.891       25.922       18.850      954.266      671.926      355.340        0.805        0.099      118.767       16.840        0.020      338.155       10.614      860.227
04/23/2013  22:59:00      -82.468      -32.935       -4.320       48.021       31.510       21.146     2306.046      992.908      447.161        0.582        0.187       88.802       23.562        0.070      338.221       10.726      860.225
04/23/2013  23:00:00      -54.993      -45.512       -2.400       42.130       25.944       17.844     1774.976      673.108      318.406        0.393        0.138       71.383       15.661        0.048      338.245       10.766      860.231
04/23/2013  23:01:00       -1.399      -35.027       12.826       49.758       34.319       30.558     2475.821     1177.794      933.802        0.299        0.229       35.055       27.019        0.594      338.236       10.751      860.240
04/23/2013  23:02:00      -56.389      -66.149        8.308       51.393       39.902       25.711     2641.247     1592.167      661.065        0.626        0.245       86.922       26.446        0.093      338.127       10.567      860.244
04/23/2013  23:03:00     -117.434      -64.089       -8.336       60.574       28.795       25.732     3669.198      829.162      662.140        1.156        0.258      133.784       17.144        0.016      338.032       10.408      860.248
04/23/2013  23:04:00     -107.912      -88.175       -2.952       50.112       44.410       30.199     2511.218     1972.288      911.962        1.241        0.270      139.355       29.840        0.046      338.020       10.388      860.268
04/23/2013  23:05:00     -117.837      -69.995        4.020       60.282       44.786       26.577     3633.946     2005.805      706.317        1.257        0.317      137.058       26.545        0.038      337.992       10.340      860.279
04/23/2013  23:06:00      -99.789      -75.985       -8.428       39.271       32.594       25.408     1542.231     1062.400      645.547        0.953        0.163      125.426       22.126        0.031      338.115       10.548      860.271
04/23/2013  23:07:00      -83.883      -36.463        0.498       50.476       30.040       20.848     2547.830      902.399      434.622        0.612        0.194       91.465       23.151        0.064      338.017       10.383      860.281
04/23/2013  23:08:00      -63.422      -34.942        4.095       44.938       33.882       23.093     2019.407     1147.961      533.304        0.448        0.185       72.411       22.625        0.098      338.088       10.503      860.281
04/23/2013  23:09:00      -92.882      -56.404        2.246       46.566       36.719       27.556     2168.394     1348.255      759.318        0.804        0.214      108.667       24.533        0.051      338.132       10.576      860.285
04/23/2013  23:10:00      -91.314      -53.930        0.665       56.559       29.832       26.811     3198.940      889.974      718.805        0.803        0.240      106.051       22.301        0.044      338.146       10.600      860.293
04/23/2013  23:11:00     -138.660      -82.840       -7.489       48.133       32.333       24.190     2316.819     1045.409      585.141        1.505        0.197      161.521       15.862        0.010      338.248       10.771      860.296
04/23/2013  23:12:00     -112.930      -78.768      -15.644       28.746       36.552       21.718      826.329     1336.022      471.663        1.092        0.132      137.687       17.271        0.016      338.243       10.762      860.296
04/23/2013  23:13:00      -82.967      -54.429        2.435       51.115       34.449       25.123     2612.760     1186.754      631.177        0.714        0.222       99.228       28.984        0.085      338.185       10.664      860.309
04/23/2013  23:14:00     -128.315      -28.477       -6.249       44.799       35.849       24.603     2006.923     1285.122      605.286        1.061        0.195      131.436       19.582        0.022      338.136       10.582      860.321
04/23/2013  23:15:00     -167.300      -54.299       -6.633       46.542       34.713       26.232     2166.201     1205.023      688.105        1.752        0.203      175.891       21.920        0.016      338.184       10.662      860.320
04/23/2013  23:16:00     -176.802      -56.245       -0.907       45.164       36.283       29.077     2039.756     1316.438      845.494        1.931        0.210      185.533       29.987        0.026      338.081       10.489      860.333
04/23/2013  23:17:00     -198.443      -79.081       -0.090       33.525       30.162       22.529     1123.935      909.753      507.536        2.409        0.127      213.620       22.049        0.011      338.113       10.541      860.345
04/23/2013  23:18:00     -140.375      -68.669       -1.027       46.564       31.207       21.625     2168.176      973.864      467.624        1.401        0.180      156.271       22.801        0.021      338.112       10.543      860.357
04/23/2013  23:19:00     -142.328      -67.379       -1.508       68.528       57.781       30.682     4696.035     3338.639      941.407        1.689        0.449      157.471       31.351        0.040      338.107       10.531      860.367
04/23/2013  23:20:00     -125.658      -34.061       -6.967       35.155       28.539       22.696     1235.856      814.463      515.128        0.978        0.128      130.192       18.219        0.020      338.128       10.567      860.389
04/23/2013  23:21:00     -130.777      -45.687       -3.578       41.899       42.494       21.620     1755.533     1805.752      467.437        1.161        0.201      138.528       19.295        0.019      338.125       10.564      860.395
04/23/2013  23:22:00     -115.507      -45.865       -1.117       46.890       26.987       22.136     2198.696      728.312      490.001        0.943        0.171      124.280       24.127        0.038      338.059       10.453      860.405
04/23/2013  23:23:00     -127.990      -32.092       -4.591       29.500       25.439       21.239      870.254      647.140      451.085        0.970        0.098      131.952       19.075        0.021      338.041       10.424      860.411
04/23/2013  23:24:00     -102.092      -34.036       -0.856       31.943       32.838       17.299     1020.338     1078.339      299.259        0.699        0.120      107.616       16.703        0.024      338.013       10.375      860.420
04/23/2013  23:25:00     -123.627      -43.796       -6.554       30.201       24.228       13.940      912.128      586.990      194.331        0.947        0.085      131.155       14.044        0.011      337.938       10.250      860.436
04/23/2013  23:26:00     -114.180       -3.645       -5.458       44.587       23.365       21.746     1987.972      545.921      472.871        0.804        0.150      114.238       22.954        0.040      337.798       10.015      860.467
04/23/2013  23:27:00     -129.501      -10.691       -5.692       34.568       32.948       22.981     1194.914     1085.601      528.139        0.986        0.140      129.942       21.406        0.027      337.775        9.977      860.475
04/23/2013  23:28:00     -123.899      -27.689      -18.923       15.036       25.991       15.089      226.085      675.541      227.693        0.880        0.056      126.956        8.947        0.005      337.813       10.041      860.483
04/23/2013  23:29:00      -96.127      -53.790        0.149       41.890       43.927       19.002     1754.792     1929.618      361.069        0.809        0.202      110.153       16.353        0.022      337.808       10.033      860.493
04/23/2013  23:30:00      -78.684      -16.771       -4.018       46.091       35.826       20.188     2124.412     1283.488      407.545        0.515        0.191       80.452       21.441        0.071      337.729        9.901      860.481
04/23/2013  23:31:00     -126.401       -0.335      -16.622       27.778       34.351       21.299      771.634     1179.985      453.627        0.933        0.120      126.402       16.106        0.016      337.727        9.896      860.480
04/23/2013  23:32:00      -68.437      -15.811       -9.381       45.998       28.032       17.740     2115.795      785.813      314.724        0.412        0.161       70.240       21.052        0.090      337.659        9.783      860.470
04/23/2013  23:33:00     -125.212        2.846      -15.294       30.755       29.141       19.820      945.853      849.203      392.850        0.905        0.109      125.245       12.234        0.010      337.580        9.650      860.463
04/23/2013  23:34:00      -99.645      -24.196       -6.546       41.074       27.420       21.683     1687.036      751.873      470.154        0.673        0.145      102.541       23.361        0.052      337.545        9.590      860.467
04/23/2013  23:35:00     -102.049      -17.411       -1.819       36.070       28.932       23.158     1301.079      837.086      536.282        0.670        0.134      103.524       19.323        0.035      337.555        9.608      860.458
04/23/2013  23:36:00      -99.329      -10.191       -4.708       41.036       34.211       22.691     1683.943     1170.400      514.880        0.668        0.168       99.851       19.168        0.037      337.661        9.785      860.452
04/23/2013  23:37:00      -85.138      -12.871       -1.731       52.507       34.368       24.000     2757.018     1181.157      575.993        0.596        0.226       86.105       26.866        0.097      337.566        9.626      860.462
04/23/2013  23:38:00     -126.188      -18.558      -10.728       41.765       43.222       21.663     1744.286     1868.127      469.270        1.023        0.204      127.545       21.398        0.028      337.610        9.702      860.458
04/23/2013  23:39:00      -96.312      -37.736       -5.430       39.937       34.201       23.027     1594.971     1169.716      530.261        0.701        0.165      103.440       20.523        0.039      337.583        9.655      860.459
04/23/2013  23:40:00      -88.115      -64.673       -1.122       47.711       37.375       30.641     2276.370     1396.885      938.868        0.828        0.231      109.302       26.790        0.060      337.610        9.701      860.463
04/23/2013  23:41:00     -109.828      -66.638       -4.385       31.111       25.146       21.442      967.888      632.310      459.780        0.929        0.103      128.463       16.784        0.017      337.617        9.712      860.464
04/23/2013  23:42:00     -121.787      -64.384      -11.153       28.970       27.865       17.983      839.251      776.486      323.403        1.052        0.097      137.759       12.410        0.008      337.606        9.693      860.470
04/23/2013  23:43:00      -96.500      -61.516       -5.585       29.814       20.984       16.645      888.866      440.335      277.065        0.737        0.080      114.440        3.895        0.001      337.650        9.766      860.479
04/23/2013  23:44:00      -87.068      -52.163      -12.286       33.559       23.825       20.547     1126.175      567.612      422.169        0.628        0.106      101.498       13.076        0.017      337.595        9.674      860.489
04/23/2013  23:45:00     -111.007      -77.688       -3.879       40.878       23.351       19.100     1670.985      545.265      364.809        1.048        0.129      135.491       12.483        0.008      337.580        9.650      860.501
04/23/2013  23:46:00     -139.121      -64.528       -5.963       25.253       20.930       13.695      637.731      438.078      187.561        1.241        0.063      153.357       12.560        0.007      337.538        9.581      860.497
04/23/2013  23:47:00     -122.036      -47.388       -0.397       29.561       21.952       14.261      873.865      481.869      203.388        0.935        0.078      130.913       16.517        0.016      337.530        9.567      860.515
04/23/2013  23:48:00     -107.868      -43.786      -10.088       14.666       14.250       13.892      215.094      203.065      192.985        0.713        0.031      116.416        3.875        0.001      337.589        9.666      860.514
04/23/2013  23:49:00      -79.631      -41.032        2.803       27.299       21.081       15.032      745.219      444.421      225.969        0.472        0.071       89.581       12.572        0.020      337.595        9.675      860.506
04/23/2013  23:50:00      -84.634      -40.019       -6.646       28.574       16.715       15.363      816.460      279.399      236.026        0.507        0.067       93.618        9.536        0.010      337.552        9.603      860.504
04/23/2013  23:51:00      -99.898      -36.980       -5.492       19.065       22.447       15.184      363.490      503.857      230.568        0.624        0.055      106.523        9.980        0.009      337.521        9.551      860.495
04/23/2013  23:52:00      -89.703      -21.359       -1.758       27.986       23.617       10.878      783.228      557.748      118.337        0.498        0.073       92.211       12.943        0.020      337.487        9.494      860.494
04/23/2013  23:53:00      -85.613      -21.454       -7.775       25.093       19.527       12.613      629.678      381.308      159.083        0.451        0.059       88.261       11.819        0.018      337.456        9.442      860.498
04/23/2013  23:54:00      -90.418      -19.621      -10.306       23.228       21.993       14.708      539.521      483.711      216.322        0.495        0.062       92.522       13.433        0.021      337.412        9.368      860.498
04/23/2013  23:55:00     -106.272      -33.061       -6.941       30.511       26.936       17.856      930.929      725.556      318.830        0.720        0.099      111.296       15.034        0.018      337.408        9.361      860.510
04/23/2013  23:56:00     -112.828      -49.944       -7.898       39.960       28.842       20.719     1596.809      831.846      429.270        0.907        0.143      123.388       24.401        0.039      337.408        9.362      860.518
04/23/2013  23:57:00      -79.639      -38.204       -5.319       40.225       24.681       22.858     1618.082      609.161      522.481        0.529        0.137       88.328       11.319        0.016      337.345        9.256      860.519
04/23/2013  23:58:00     -105.268      -53.087       -6.480       34.169       31.470       20.048     1167.494      990.336      401.911        0.825        0.128      117.897       12.257        0.011      337.268        9.127      860.530
04/23/2013  23:59:00     -110.980      -52.566       -2.739       30.413       30.168       20.131      924.968      910.099      405.268        0.866        0.112      122.800       14.212        0.013      337.345        9.256      860.537
